[[{"header":{"parameterUnit":"m.s-1","parameterCategory":1,"la1":30.6,"la2":28.766,"lo1":-90.7593,"lo2":-88.6598,"dx":0.0162,"dy":0.0183,"nx":116,"ny":114,"refTime":"2022-12-15T18:00:00:Z","depth":0,"parameterNumber":2,"parameterNumberName":"U-component_of_WINDS"},"data":[0.0,0.0,0.0,0.0,0.0,0.0,0.0,0.0,0.0,0.0,0.0,0.0,0.0,0.0,0.0,0.0,0.0,0.0,0.0,0.0,0.0,0.0,0.0,0.0,0.0,0.0,0.0,0.0,0.0,0.0,0.0,0.0,0.0,0.0,0.0,0.0,0.0,0.0,0.0,0.0,0.0,0.0,0.0,0.0,0.0,0.0,0.0,0.0,0.0,0.0,0.0,0.0,0.0,0.0,0.0,0.0,0.0,0.0,0.0,0.0,0.0,0.0,0.0,0.0,0.0,0.0,0.0,0.0,0.0,0.0,0.0,0.0,0.0,0.0,0.0,0.0,0.0,0.0,0.0,0.0,0.0,0.0,0.0,0.0,0.0,0.0,0.0,0.0,0.0,0.0,0.0,0.0,0.0,0.0,0.0,0.0,0.0,0.0,0.0,0.0,0.0,0.0,0.0,0.0,0.0,0.0,0.0,0.0,0.0,0.0,0.0,0.0,0.0,0.0,0.0,0.0,0.0,0.0,0.0,0.0,0.0,0.0,0.0,0.0,0.0,0.0,0.0,0.0,0.0,0.0,0.0,0.0,0.0,0.0,0.0,0.0,0.0,0.0,0.0,0.0,0.0,0.0,0.0,0.0,0.0,0.0,0.0,0.0,0.0,0.0,0.0,0.0,0.0,0.0,0.0,0.0,0.0,0.0,0.0,0.0,0.0,0.0,0.0,0.0,0.0,0.0,0.0,0.0,0.0,0.0,0.0,0.0,0.0,0.0,0.0,0.0,0.0,0.0,0.0,0.0,0.0,0.0,0.0,0.0,0.0,0.0,0.0,0.0,0.0,0.0,0.0,0.0,0.0,0.0,0.0,0.0,0.0,0.0,0.0,0.0,0.0,0.0,0.0,0.0,0.0,0.0,0.0,0.0,0.0,0.0,0.0,0.0,0.0,0.0,0.0,0.0,0.0,0.0,0.0,0.0,0.0,0.0,0.0,0.0,0.0,0.0,0.0,0.0,0.0,0.0,0.0,0.0,0.0,0.0,0.0,0.0,0.0,0.0,0.0,0.0,0.0,0.0,0.0,0.0,0.0,0.0,0.0,0.0,0.0,0.0,0.0,0.0,0.0,0.0,0.0,0.0,0.0,0.0,0.0,0.0,0.0,0.0,0.0,0.0,0.0,0.0,0.0,0.0,0.0,0.0,0.0,0.0,0.0,0.0,0.0,0.0,0.0,0.0,0.0,0.0,0.0,0.0,0.0,0.0,0.0,0.0,0.0,0.0,0.0,0.0,0.0,0.0,0.0,0.0,0.0,0.0,0.0,0.0,0.0,0.0,0.0,0.0,0.0,0.0,0.0,0.0,0.0,0.0,0.0,0.0,0.0,0.0,0.0,0.0,0.0,0.0,0.0,0.0,0.0,0.0,0.0,0.0,0.0,0.0,0.0,0.0,0.0,0.0,0.0,0.0,0.0,0.0,0.0,0.0,0.0,0.0,0.0,0.0,0.0,0.0,0.0,0.0,0.0,0.0,0.0,0.0,0.0,0.0,0.0,0.0,0.0,0.0,0.0,0.0,0.0,0.0,0.0,0.0,0.0,0.0,0.0,0.0,0.0,0.0,0.0,0.0,0.0,0.0,0.0,0.0,0.0,0.0,0.0,0.0,0.0,0.0,0.0,0.0,0.0,0.0,0.0,0.0,0.0,0.0,0.0,0.0,0.0,0.0,0.0,0.0,0.0,0.0,0.0,0.0,0.0,0.0,0.0,0.0,0.0,0.0,0.0,0.0,0.0,0.0,0.0,0.0,0.0,0.0,0.0,0.0,0.0,0.0,0.0,0.0,0.0,0.0,0.0,0.0,0.0,0.0,0.0,0.0,0.0,0.0,0.0,0.0,0.0,0.0,0.0,0.0,0.0,0.0,0.0,0.0,0.0,0.0,0.0,0.0,0.0,0.0,0.0,0.0,0.0,0.0,0.0,0.0,0.0,0.0,0.0,0.0,0.0,0.0,0.0,0.0,0.0,0.0,0.0,0.0,0.0,0.0,0.0,0.0,0.0,0.0,0.0,0.0,0.0,0.0,0.0,0.0,0.0,0.0,0.0,0.0,0.0,0.0,0.0,0.0,0.0,0.0,0.0,0.0,0.0,0.0,0.0,0.0,0.0,0.0,0.0,0.0,0.0,0.0,0.0,0.0,0.0,0.0,0.0,0.0,0.0,0.0,0.0,0.0,0.0,0.0,0.0,0.0,0.0,0.0,0.0,0.0,0.0,0.0,0.0,0.0,0.0,0.0,0.0,0.0,0.0,0.0,0.0,0.0,0.0,0.0,0.0,0.0,0.0,0.0,0.0,0.0,0.0,0.0,0.0,0.0,0.0,0.0,0.0,0.0,0.0,0.0,0.0,0.0,0.0,0.0,0.0,0.0,0.0,0.0,0.0,0.0,0.0,0.0,0.0,0.0,0.0,0.0,0.0,0.0,0.0,0.0,0.0,0.0,0.0,0.0,0.0,0.0,0.0,0.0,0.0,0.0,0.0,0.0,0.0,0.0,0.0,0.0,0.0,0.0,0.0,0.0,0.0,0.0,0.0,0.0,0.0,0.0,0.0,0.0,0.0,0.0,0.0,0.0,0.0,0.0,0.0,0.0,0.0,0.0,0.0,0.0,0.0,0.0,0.0,0.0,0.0,0.0,0.0,0.0,0.0,0.0,0.0,0.0,0.0,0.0,0.0,0.0,0.0,0.0,0.0,0.0,0.0,0.0,0.0,0.0,0.0,0.0,0.0,0.0,0.0,0.0,0.0,0.0,0.0,0.0,0.0,0.0,0.0,0.0,0.0,0.0,0.0,0.0,0.0,0.0,0.0,0.0,0.0,0.0,0.0,0.0,0.0,0.0,0.0,0.0,0.0,0.0,0.0,0.0,0.0,0.0,0.0,0.0,0.0,0.0,0.0,0.0,0.0,0.0,0.0,0.0,0.0,0.0,0.0,0.0,0.0,0.0,0.0,0.0,0.0,0.0,0.0,0.0,0.0,0.0,0.0,0.0,0.0,0.0,0.0,0.0,0.0,0.0,0.0,0.0,0.0,0.0,0.0,0.0,0.0,0.0,0.0,0.0,0.0,0.0,0.0,0.0,0.0,0.0,0.0,0.0,0.0,0.0,0.0,0.0,0.0,0.0,0.0,0.0,0.0,0.0,0.0,0.0,0.0,0.0,0.0,0.0,0.0,0.0,0.0,0.0,0.0,0.0,0.0,0.0,0.0,0.0,0.0,0.0,0.0,0.0,0.0,0.0,0.0,0.0,0.0,0.0,0.0,0.0,0.0,0.0,0.0,0.0,0.0,0.0,0.0,0.0,0.0,0.0,0.0,0.0,0.0,0.0,0.0,0.0,0.0,0.0,0.0,0.0,0.0,0.0,0.0,0.0,0.0,0.0,0.0,0.0,0.0,0.0,0.0,0.0,0.0,0.0,0.0,0.0,0.0,0.0,0.0,0.0,0.0,0.0,0.0,0.0,0.0,0.0,0.0,0.0,0.0,0.0,0.0,0.0,0.0,0.0,0.0,0.0,0.0,0.0,0.0,0.0,0.0,0.0,0.0,0.0,0.0,0.0,0.0,0.0,0.0,0.0,0.0,0.0,0.0,0.0,0.0,0.0,0.0,0.0,0.0,0.0,0.0,0.0,0.0,0.0,0.0,0.0,0.0,0.0,0.0,0.0,0.0,0.0,0.0,0.0,0.0,0.0,0.0,0.0,0.0,0.0,0.0,0.0,0.0,0.0,0.0,0.0,0.0,0.0,0.0,0.0,0.0,0.0,0.0,0.0,0.0,0.0,0.0,0.0,0.0,0.0,0.0,0.0,0.0,0.0,0.0,0.0,0.0,0.0,0.0,0.0,0.0,0.0,0.0,0.0,0.0,0.0,0.0,0.0,0.0,0.0,0.0,0.0,0.0,0.0,0.0,0.0,0.0,0.0,0.0,0.0,0.0,0.0,0.0,0.0,0.0,0.0,0.0,0.0,0.0,0.0,0.0,0.0,0.0,0.0,0.0,0.0,0.0,0.0,0.0,0.0,0.0,0.0,0.0,0.0,0.0,0.0,0.0,0.0,0.0,0.0,0.0,0.0,0.0,0.0,0.0,0.0,0.0,0.0,0.0,0.0,0.0,0.0,0.0,0.0,0.0,0.0,0.0,0.0,0.0,0.0,0.0,0.0,0.0,0.0,0.0,0.0,0.0,0.0,0.0,0.0,0.0,0.0,0.0,0.0,0.0,0.0,0.0,0.0,0.0,0.0,0.0,0.0,0.0,0.0,0.0,0.0,0.0,0.0,0.0,0.0,0.0,0.0,0.0,0.0,0.0,0.0,0.0,0.0,0.0,0.0,0.0,0.0,0.0,0.0,0.0,0.0,0.0,0.0,0.0,0.0,0.0,0.0,0.0,0.0,0.0,0.0,0.0,0.0,0.0,0.0,0.0,0.0,0.0,0.0,0.0,0.0,0.0,0.0,0.0,0.0,0.0,0.0,0.0,0.0,0.0,0.0,0.0,0.0,0.0,0.0,0.0,0.0,0.0,0.0,0.0,0.0,0.0,0.0,0.0,0.0,0.0,0.0,0.0,0.0,0.0,0.0,0.0,0.0,0.0,0.0,0.0,0.0,0.0,0.0,0.0,0.0,0.0,0.0,0.0,0.0,0.0,0.0,0.0,0.0,0.0,0.0,0.0,0.0,0.0,0.0,0.0,0.0,0.0,0.0,0.0,0.0,0.0,0.0,0.0,0.0,0.0,0.0,0.0,0.0,0.0,0.0,0.0,0.0,0.0,0.0,0.0,0.0,0.0,0.0,0.0,0.0,0.0,0.0,0.0,0.0,0.0,0.0,0.0,0.0,0.0,0.0,0.0,0.0,0.0,0.0,0.0,0.0,0.0,0.0,0.0,0.0,0.0,0.0,0.0,0.0,0.0,0.0,0.0,0.0,0.0,0.0,0.0,0.0,0.0,0.0,0.0,0.0,0.0,0.0,0.0,0.0,0.0,0.0,0.0,0.0,0.0,0.0,0.0,0.0,0.0,0.0,0.0,0.0,0.0,0.0,0.0,0.0,0.0,0.0,0.0,0.0,0.0,0.0,0.0,0.0,0.0,0.0,0.0,0.0,0.0,0.0,0.0,0.0,0.0,0.0,0.0,0.0,0.0,0.0,0.0,0.0,0.0,0.0,0.0,0.0,0.0,0.0,0.0,0.0,0.0,0.0,0.0,0.0,0.0,0.0,0.0,0.0,0.0,0.0,0.0,0.0,0.0,0.0,0.0,0.0,0.0,0.0,0.0,0.0,0.0,0.0,0.0,0.0,0.0,0.0,0.0,0.0,0.0,0.0,0.0,0.0,0.0,0.0,0.0,0.0,0.0,0.0,0.0,0.0,0.0,0.0,0.0,0.0,0.0,0.0,0.0,0.0,0.0,0.0,0.0,0.0,0.0,0.0,0.0,0.0,0.0,0.0,0.0,0.0,0.0,0.0,0.0,0.0,0.0,0.0,0.0,0.0,0.0,0.0,0.0,0.0,0.0,0.0,0.0,0.0,0.0,0.0,0.0,0.0,0.0,0.0,0.0,0.0,0.0,0.0,0.0,0.0,0.0,0.0,0.0,0.0,0.0,0.0,0.0,0.0,0.0,0.0,0.0,0.0,0.0,0.0,0.0,0.0,0.0,0.0,0.0,0.0,0.0,0.0,0.0,0.0,0.0,0.0,0.0,0.0,0.0,0.0,0.0,0.0,0.0,0.0,0.0,0.0,0.0,0.0,0.0,0.0,0.0,0.0,0.0,0.0,0.0,0.0,0.0,0.0,0.0,0.0,0.0,0.0,0.0,0.0,0.0,0.0,0.0,0.0,0.0,0.0,0.0,0.0,0.0,0.0,0.0,0.0,0.0,0.0,0.0,0.0,0.0,0.0,0.0,0.0,0.0,0.0,0.0,0.0,0.0,0.0,0.0,0.0,0.0,0.0,0.0,0.0,0.0,0.0,0.0,0.0,0.0,0.0,0.0,0.0,0.0,0.0,0.0,0.0,0.0,0.0,0.0,0.0,0.0,0.0,0.0,0.0,0.0,0.0,0.0,0.0,3.8721,3.7351,0.0,0.0,0.0,0.0,0.0,0.0,0.0,0.0,0.0,0.0,0.0,0.0,0.0,0.0,0.0,0.0,0.0,0.0,0.0,0.0,0.0,0.0,0.0,2.0355,2.0565,2.0565,2.0896,0.0,0.0,0.0,0.0,0.0,0.0,0.0,2.2236,2.2274,2.2977,2.4458,2.4458,2.503,2.6082,2.5702,2.5334,2.5004,0.0,0.0,0.0,0.0,0.0,0.0,0.0,0.0,0.0,0.0,0.0,0.0,0.0,0.0,0.0,0.0,0.0,0.0,0.0,0.0,0.0,0.0,0.0,0.0,0.0,0.0,0.0,0.0,0.0,0.0,0.0,0.0,0.0,0.0,0.0,0.0,0.0,0.0,0.0,0.0,0.0,0.0,0.0,0.0,0.0,0.0,0.0,0.0,0.0,0.0,0.0,0.0,0.0,0.0,0.0,0.0,0.0,0.0,0.0,0.0,0.0,0.0,0.0,0.0,0.0,0.0,0.0,0.0,0.0,0.0,4.0726,3.9468,0.0,0.0,0.0,0.0,0.0,0.0,0.0,0.0,0.0,0.0,0.0,0.0,0.0,0.0,0.0,0.0,0.0,0.0,0.0,0.0,0.0,2.0244,2.038,2.0974,2.1393,2.1393,2.2057,2.2489,2.2489,2.2624,2.2692,2.2692,2.2692,2.3038,2.3782,2.3782,2.4526,2.5968,2.6239,2.7084,2.8403,2.8504,2.7934,2.6755,2.6209,0.0,0.0,0.0,0.0,0.0,0.0,0.0,0.0,0.0,0.0,0.0,0.0,0.0,0.0,0.0,0.0,0.0,0.0,0.0,0.0,0.0,0.0,0.0,0.0,0.0,0.0,0.0,0.0,0.0,0.0,0.0,0.0,0.0,0.0,0.0,0.0,0.0,0.0,0.0,0.0,0.0,0.0,0.0,0.0,0.0,0.0,0.0,0.0,0.0,0.0,0.0,0.0,0.0,0.0,0.0,0.0,0.0,0.0,0.0,0.0,0.0,0.0,0.0,4.4487,4.4946,4.5367,4.5829,4.5788,4.5244,4.3369,4.2286,4.1711,4.0466,0.0,0.0,0.0,0.0,0.0,0.0,0.0,0.0,0.0,0.0,0.0,0.0,0.0,0.0,0.0,0.0,0.0,0.0,0.0,2.1285,2.1914,2.208,2.2148,2.2148,2.2835,2.3241,2.3241,2.3857,2.4203,2.4203,2.4203,2.4568,2.5296,2.5296,2.6036,2.7515,2.8843,2.9934,3.0784,3.1403,3.1611,3.1307,2.8678,2.7515,2.7414,0.0,0.0,0.0,0.0,0.0,0.0,0.0,0.0,0.0,0.0,0.0,0.0,0.0,0.0,0.0,0.0,0.0,0.0,0.0,0.0,0.0,0.0,0.0,0.0,0.0,0.0,0.0,0.0,0.0,0.0,0.0,0.0,0.0,0.0,0.0,0.0,0.0,0.0,0.0,0.0,0.0,3.4235,3.5064,0.0,0.0,0.0,0.0,0.0,0.0,0.0,0.0,0.0,0.0,0.0,0.0,0.0,4.3362,4.4127,4.4235,4.4973,4.6353,4.644,4.7145,4.8409,4.8501,4.8493,4.8409,4.8097,0.0,4.4134,4.3924,0.0,0.0,0.0,0.0,0.0,0.0,0.0,0.0,0.0,0.0,0.0,0.0,0.0,0.0,0.0,0.0,0.0,0.0,0.0,0.0,0.0,2.2932,2.3105,2.3485,2.3823,2.403,2.403,2.4703,2.5105,2.5105,2.5519,2.6086,2.681,2.7266,2.8455,3.0345,3.1833,3.2747,3.3056,3.3795,3.4167,3.41,3.2765,3.148,3.0243,2.875,0.0,0.0,0.0,0.0,0.0,0.0,0.0,0.0,0.0,0.0,0.0,0.0,0.0,0.0,0.0,0.0,0.0,0.0,0.0,0.0,0.0,0.0,0.0,0.0,0.0,0.0,0.0,0.0,0.0,0.0,0.0,0.0,0.0,0.0,0.0,0.0,0.0,0.0,0.0,3.4917,3.6073,3.6794,3.7928,3.8651,0.0,0.0,0.0,0.0,0.0,0.0,0.0,0.0,0.0,4.5256,4.5324,4.5872,4.7064,4.7064,4.7605,4.8654,4.8654,4.9221,5.0228,5.0228,5.0228,5.0228,5.0228,4.9518,4.8206,4.6955,4.6007,4.5256,0.0,0.0,0.0,0.0,4.3586,4.3552,0.0,0.0,0.0,0.0,0.0,0.0,0.0,0.0,0.0,0.0,0.0,0.0,2.3308,2.3413,2.3692,2.4448,2.485,2.5049,2.5049,2.5951,2.6552,2.675,2.7266,2.801,2.8944,2.9914,3.1413,3.3439,3.4556,3.5193,3.5391,3.5915,3.618,3.618,3.618,3.5041,3.3061,3.1562,3.0615,3.005,0.0,0.0,0.0,0.0,0.0,0.0,0.0,0.0,0.0,0.0,0.0,0.0,0.0,0.0,0.0,0.0,0.0,0.0,0.0,0.0,0.0,0.0,0.0,0.0,0.0,0.0,0.0,0.0,0.0,0.0,0.0,0.0,0.0,0.0,0.0,0.0,0.0,3.7144,3.7928,3.8661,3.9891,4.0749,0.0,0.0,0.0,0.0,0.0,0.0,4.5142,4.5514,4.6327,4.7605,4.7639,4.8274,4.9552,4.9552,4.9932,5.065,5.065,5.1048,5.1776,5.1979,5.2089,5.2089,5.2283,5.2351,5.2148,4.9747,4.83,4.7605,4.7056,4.6387,4.5717,4.5717,4.5717,4.5717,0.0,0.0,0.0,0.0,0.0,0.0,0.0,0.0,0.0,0.0,0.0,2.2591,2.3308,2.3413,2.3692,2.4448,2.579,2.6598,2.6598,2.7994,2.9136,2.9828,2.9895,3.0615,3.2051,3.3501,3.499,3.6553,3.666,3.7054,3.7747,3.7781,3.7781,3.7781,3.7781,3.6896,3.5335,3.3852,3.3215,3.3041,3.1596,0.0,0.0,0.0,0.0,0.0,0.0,0.0,0.0,0.0,0.0,0.0,0.0,0.0,0.0,0.0,0.0,0.0,0.0,0.0,0.0,0.0,0.0,0.0,0.0,0.0,0.0,0.0,0.0,0.0,0.0,0.0,0.0,0.0,0.0,0.0,0.0,0.0,0.0,4.0961,4.1711,0.0,0.0,0.0,0.0,4.4472,4.5853,4.6658,4.6699,4.8003,4.912,4.9906,4.994,5.0304,5.1066,5.11,5.1472,5.2198,5.2198,5.2604,5.3408,5.4101,5.4439,5.4473,5.5166,5.5462,5.5259,5.2249,5.06,4.994,4.9872,4.9424,4.8781,4.8781,4.8781,4.8781,0.0,0.0,0.0,0.0,0.0,1.9956,2.1024,2.1586,2.2158,2.2902,2.3,2.3477,2.4691,2.5236,2.5816,2.6547,2.7575,2.8391,2.8852,2.9842,3.0726,3.1471,3.2413,3.3631,3.517,3.5706,3.6479,3.7516,3.7962,3.834,3.8639,3.9079,3.9322,3.9322,3.9322,3.9017,3.8374,3.6411,3.5599,3.5464,3.3941,3.2718,0.0,0.0,0.0,0.0,0.0,0.0,0.0,0.0,0.0,0.0,0.0,0.0,0.0,0.0,0.0,0.0,0.0,0.0,0.0,0.0,0.0,0.0,0.0,0.0,0.0,0.0,0.0,0.0,0.0,0.0,0.0,0.0,0.0,0.0,0.0,0.0,0.0,4.2577,4.3734,0.0,4.5534,4.6027,4.6812,4.8052,4.8628,4.9127,4.9619,5.0119,5.0736,5.1488,5.2029,5.2638,5.3382,5.3847,5.4245,5.4481,5.4481,5.4625,5.4921,5.52,5.5302,5.5336,5.5597,5.5699,5.5631,5.4549,5.3374,5.2232,5.1733,5.1082,5.0423,5.0423,5.0423,5.0423,0.0,0.0,0.0,0.0,1.9676,2.0349,2.1417,2.1985,2.2557,2.3308,2.3413,2.4056,2.5774,2.6425,2.7101,2.8108,2.9165,3.005,3.0784,3.177,3.2757,3.3783,3.499,3.6237,3.75,3.7528,3.79,3.8639,3.9377,3.9749,3.9749,4.0506,4.0851,4.0851,4.0851,4.0851,4.0716,3.9017,3.8002,3.7427,3.6169,3.5222,3.4472,0.0,0.0,0.0,0.0,0.0,0.0,0.0,0.0,0.0,0.0,0.0,0.0,0.0,0.0,0.0,0.0,0.0,0.0,0.0,0.0,0.0,0.0,0.0,0.0,0.0,0.0,0.0,0.0,0.0,0.0,0.0,0.0,0.0,0.0,4.2726,4.4005,4.4478,4.5662,4.6812,4.7808,4.8376,4.9146,5.0371,5.0718,5.1183,5.1953,5.2224,5.2697,5.3408,5.3949,5.46,5.5353,5.5843,5.6215,5.6452,5.6452,5.6452,5.6452,5.6713,5.6815,5.6815,5.7094,5.7196,5.7162,5.6916,5.6249,5.5234,5.3949,5.3137,5.2723,5.2723,5.2723,5.2723,0.0,0.0,0.0,1.9734,2.0005,2.0549,2.208,2.2317,2.2594,2.3346,2.3447,2.4293,2.6496,2.6767,2.7376,2.8942,3.0393,3.1572,3.2361,3.3738,3.5227,3.679,3.755,3.8288,3.9011,3.9051,3.9423,4.014,4.0865,4.1231,4.1265,4.1988,4.2293,4.2293,4.2293,4.2293,4.2266,4.1542,4.0426,3.9045,3.8261,3.7516,3.6863,0.0,0.0,0.0,0.0,0.0,0.0,0.0,0.0,0.0,0.0,0.0,0.0,0.0,0.0,0.0,0.0,0.0,0.0,0.0,0.0,0.0,0.0,0.0,0.0,0.0,0.0,0.0,0.0,0.0,0.0,0.0,0.0,0.0,4.3626,4.4222,4.5285,4.6725,4.7556,4.8563,5.0041,5.0176,5.0507,5.1235,5.1987,5.2739,5.3543,5.427,5.5006,5.5699,5.5767,5.6139,5.6858,5.69,5.7273,5.7958,5.7992,5.8001,5.8026,5.8786,5.9115,5.9158,5.9877,6.0182,6.0114,5.9394,5.9115,5.8878,5.6646,5.5767,5.5767,5.5767,5.5767,5.5767,0.0,0.0,0.0,1.9839,2.0494,2.118,2.2148,2.276,2.3346,2.4101,2.4665,2.5634,2.7321,2.8015,2.8971,3.0451,3.1437,3.2757,3.4562,3.507,3.6225,3.8307,3.8605,3.9045,3.9768,4.0331,4.069,4.0899,4.165,4.1988,4.1988,4.2191,4.2293,4.2293,4.2293,4.2293,4.23,4.209,4.1752,4.1244,3.9417,3.8571,3.834,0.0,0.0,0.0,0.0,0.0,0.0,0.0,0.0,0.0,0.0,0.0,0.0,0.0,0.0,0.0,0.0,0.0,0.0,0.0,0.0,0.0,0.0,0.0,0.0,0.0,0.0,0.0,0.0,0.0,0.0,0.0,4.6049,4.6123,4.5913,4.6989,4.8146,4.906,4.9822,5.066,5.1589,5.2232,5.2875,5.3619,5.4355,5.4853,5.509,5.5784,5.6292,5.6486,5.7534,5.8201,5.838,5.893,5.9302,5.9505,6.008,6.0351,6.0385,6.1129,6.1467,6.1477,6.168,6.1782,6.1748,6.1545,6.1467,6.1197,5.8398,5.7315,5.7315,5.7315,5.7315,5.7315,0.0,0.0,0.0,2.0362,2.0882,2.1458,2.2185,2.2936,2.3654,2.4406,2.5139,2.6277,2.8108,2.873,2.9721,3.151,3.2627,3.4043,3.5988,3.6975,3.8091,3.9389,3.9457,3.9795,4.054,4.0967,4.1339,4.1644,4.2388,4.2929,4.3281,4.3579,4.3883,4.4188,4.4188,4.4019,4.3714,4.3376,4.3071,4.2625,4.1007,4.0195,3.9884,3.9445,3.8633,3.7737,3.7737,3.7212,3.6558,3.6558,0.0,0.0,0.0,0.0,0.0,0.0,0.0,0.0,0.0,0.0,0.0,0.0,0.0,0.0,0.0,0.0,0.0,0.0,0.0,0.0,0.0,0.0,0.0,0.0,4.7977,4.8383,4.9026,4.933,4.9838,5.0887,5.1683,5.2461,5.3179,5.3983,5.4727,5.5488,5.5911,5.6418,5.7052,5.75,5.7872,5.8186,5.9327,6.0105,6.0419,6.1163,6.167,6.1975,6.2448,6.2675,6.2685,6.3125,6.3338,6.3338,6.3338,6.3338,6.3338,6.3338,6.3338,6.3101,0.0,0.0,0.0,0.0,5.9785,5.9785,2.0035,2.0072,2.0355,2.1089,2.1261,2.1556,2.2215,2.3004,2.3755,2.441,2.5207,2.6552,2.8768,2.901,2.9924,3.2226,3.3704,3.5227,3.6931,3.8956,4.0113,4.0113,4.0113,4.0438,4.1163,4.1271,4.1677,4.2428,4.3261,4.4005,4.4736,4.5466,4.6177,4.6793,4.6793,4.6455,4.5763,4.5142,4.4391,4.3592,4.2963,4.2158,4.1333,4.1333,4.046,3.9248,3.9248,3.8768,3.8153,3.8153,0.0,0.0,0.0,0.0,0.0,0.0,0.0,0.0,0.0,0.0,0.0,0.0,0.0,0.0,0.0,0.0,0.0,0.0,0.0,0.0,0.0,0.0,0.0,0.0,4.9999,5.0955,5.2367,5.1488,5.1191,5.2401,5.3272,5.4025,5.4778,5.5513,5.624,5.6993,5.7137,5.7771,5.9182,5.9327,0.0,0.0,0.0,6.1975,6.2627,6.3284,6.3961,6.4613,6.4783,6.485,6.485,6.5019,6.5121,6.5121,6.5121,6.5121,6.5121,6.5121,6.5121,6.4952,6.3294,6.2661,6.2661,6.2661,6.2661,6.2661,2.0241,2.0528,2.1018,2.1156,2.1691,2.2151,2.2283,2.3447,2.4342,2.4478,2.5655,2.7135,2.8807,2.901,3.0117,3.2949,3.3998,3.5661,3.8402,3.9531,4.0113,4.0113,4.0113,4.0438,4.1163,4.1779,4.2455,4.3186,4.458,4.5324,4.55,4.6244,4.6658,4.6793,4.6793,4.6725,4.659,4.6421,4.594,4.5256,4.5087,4.3842,4.209,4.209,4.1542,4.0758,4.0758,4.029,3.966,3.966,3.9288,3.8774,3.8605,3.8165,0.0,0.0,0.0,0.0,0.0,0.0,0.0,0.0,0.0,0.0,0.0,0.0,0.0,0.0,0.0,0.0,0.0,0.0,0.0,5.142,5.2334,5.3145,5.4033,5.4422,5.449,5.4203,5.4837,5.5564,5.6292,5.7045,5.778,5.8515,5.9124,5.9877,6.0815,6.1434,6.2076,6.2811,6.3555,6.4038,6.4174,6.4309,6.4478,6.4613,6.5821,0.0,6.643,6.7647,6.8233,6.8233,6.8233,6.8233,6.8233,6.8233,6.8233,6.7963,6.5222,6.4174,6.4174,6.4174,6.4174,6.4174,2.1295,2.1475,2.1755,2.1755,2.2057,2.2317,2.2317,2.3552,2.4511,2.4511,2.579,2.7279,2.884,2.9339,3.0581,3.3176,3.5115,3.715,3.9389,3.9903,4.0113,4.0113,4.0113,4.0614,4.1745,4.2124,4.2868,4.4012,4.5121,4.5906,4.6278,4.7015,4.7564,4.7902,4.7902,4.7699,4.7353,4.7353,4.6913,4.621,4.5831,4.5026,4.391,4.3125,4.2388,4.1745,4.1745,4.1278,4.0635,4.0635,4.0168,3.9559,3.9559,3.9288,3.9011,0.0,0.0,0.0,0.0,0.0,0.0,0.0,0.0,0.0,0.0,0.0,0.0,0.0,0.0,4.8552,4.8943,0.0,5.1555,5.2706,5.3551,5.4439,5.5556,5.6325,5.6528,5.5793,5.6359,5.7103,5.7839,5.893,5.9911,6.0655,6.139,6.2134,6.2922,6.3294,6.3666,6.4028,6.5111,6.5686,6.5686,6.6474,6.6846,6.688,6.759,6.7952,6.7986,6.8741,6.9113,6.9113,6.9113,6.9113,6.9113,6.9113,6.9113,6.8944,6.7455,6.6846,6.6846,6.6846,6.6846,6.6846,2.2317,2.2317,2.2317,2.2317,2.2317,2.2317,2.2317,2.3447,2.4342,2.4478,2.5655,2.7135,2.8807,2.9537,3.0949,3.3582,3.6321,3.8531,4.0005,4.0113,4.0113,4.0113,4.0113,4.0783,4.2266,4.2293,4.3044,4.4608,4.5331,4.6075,4.6827,4.7549,4.8293,4.9011,4.9011,4.8672,4.8124,4.8124,4.7691,4.6955,4.638,4.5966,4.5561,4.4336,4.3294,4.2523,4.2523,4.2049,4.14,4.14,4.1007,4.0512,4.0512,4.0512,4.0512,4.0512,4.0946,0.0,0.0,0.0,0.0,0.0,0.0,0.0,0.0,4.594,4.7436,4.7436,4.9094,5.0515,5.0515,5.1733,5.2976,5.3619,5.4566,5.5658,5.6833,5.7789,5.8229,5.7915,5.8297,5.8863,5.9597,6.0917,6.2042,6.2763,6.3396,6.4096,6.4975,6.5019,6.5155,6.5459,6.6633,6.7242,6.7242,6.8459,6.9113,6.9113,6.9248,6.9316,6.9316,6.9451,6.9519,6.9519,6.9519,6.9519,6.9519,6.9519,6.9519,6.9519,6.9519,6.9519,6.9485,6.9214,6.9113,6.9113,2.2317,2.2317,2.2317,2.2317,2.2317,2.2317,2.2317,2.3004,2.3755,2.441,2.5207,2.6552,2.8768,2.9073,3.0828,3.4997,3.6896,3.8531,4.0005,4.0113,4.0113,4.0113,4.0113,4.0783,4.2266,4.2293,4.3044,4.4608,4.5331,4.6075,4.6827,4.7549,4.8293,4.9011,4.9011,4.8943,4.8875,4.8875,4.8462,4.7785,4.7684,4.6872,4.5696,4.5493,4.4539,4.3288,4.3288,4.2787,4.2191,4.2191,4.2124,4.2063,4.2063,4.2063,4.2063,4.2063,4.2124,4.2191,4.2191,4.2726,4.3626,4.4986,4.5872,4.6583,0.0,4.8612,4.9737,4.9737,5.098,5.2063,5.2063,5.3315,5.4372,5.4473,5.6199,5.7586,5.7755,5.8973,6.0317,6.1612,6.1264,6.1197,6.1951,6.2787,6.3555,6.4309,6.4444,6.5077,6.6497,6.6565,6.7174,6.8538,6.8774,6.8842,6.8842,6.9011,6.9113,6.9113,6.9766,7.0071,7.0105,7.077,7.1064,7.1064,7.1064,7.1064,7.1064,7.1064,7.1064,7.1064,7.1064,7.1064,7.0894,6.9575,6.9113,6.9113,2.2317,2.2317,2.2317,2.2317,2.2317,2.2317,2.2317,2.2936,2.3654,2.4406,2.5139,2.6277,2.8103,2.988,3.2182,3.5335,3.6997,3.8328,3.9389,3.9869,4.0113,4.0113,4.0113,4.0783,4.2266,4.2293,4.3044,4.4608,4.5331,4.5865,4.6177,4.6921,4.7658,4.836,4.836,4.8605,4.9011,4.9011,4.8563,4.7845,4.7421,4.665,4.5662,4.5229,4.4661,4.4154,4.458,4.3971,0.0,4.3477,4.3044,4.2293,4.2293,4.2591,4.2956,4.2956,4.3565,4.4384,4.4797,4.5459,4.6155,4.6838,4.7868,4.8789,4.912,5.0304,5.1386,5.1386,5.257,5.3653,5.3653,5.4532,5.5513,5.6368,5.7291,5.8364,5.9684,6.08,6.1849,6.2922,6.3531,6.3802,6.37,6.4343,6.5087,6.5821,6.6271,6.6981,6.8087,6.8121,6.8436,6.9079,6.9519,6.9733,6.9733,7.0161,7.0387,7.0387,7.0692,7.0838,7.0838,7.1165,7.13,7.13,7.13,7.13,7.13,7.13,7.13,7.13,7.13,7.13,7.1233,7.0624,7.0387,7.0387,2.2317,2.2317,2.2317,2.2317,2.2317,2.2317,2.2317,2.276,2.3346,2.4101,2.4834,2.601,2.7934,3.0451,3.2892,3.5103,3.649,3.7747,3.891,3.9491,3.9903,4.0072,4.0113,4.0716,4.1988,4.2198,4.2943,4.4262,4.5026,4.55,4.5696,4.6244,4.6887,4.7582,4.7582,4.7894,4.8376,4.8376,4.8063,4.7549,4.7022,4.6346,4.5628,4.5101,4.4777,4.4675,4.5203,4.4816,4.4133,4.4695,4.4296,4.3545,4.3545,4.391,4.437,4.4566,4.5594,4.6786,4.7503,4.8105,4.8571,4.8766,4.9755,5.0718,5.0718,5.1691,5.2706,5.2875,5.383,5.4676,5.4871,5.5683,5.6664,5.7721,5.8432,5.9481,6.1332,6.2245,6.3057,6.3994,6.5222,6.5865,6.5527,6.6,6.662,6.7377,6.7929,6.8571,6.935,6.9417,6.9485,6.9688,7.0229,7.0511,7.0511,7.103,7.13,7.13,7.13,7.13,7.13,7.13,7.13,7.13,7.13,7.13,7.13,7.13,7.13,7.13,7.13,7.13,7.13,7.13,7.13,7.13,2.2317,2.2317,2.2317,2.2317,2.2317,2.2317,2.2317,2.2317,2.2594,2.3346,2.4068,2.5659,2.8637,3.032,3.2109,3.4342,3.5239,3.6625,3.8842,3.9011,3.9356,4.0079,4.0113,4.0472,4.1231,4.1921,4.2658,4.345,4.4222,4.5007,4.5696,4.573,4.6143,4.6827,4.6827,4.6861,4.6861,4.6861,4.6861,4.6827,4.6827,4.6346,4.5696,4.5669,4.5229,4.4608,4.4642,4.5067,4.5628,4.5669,4.6109,4.6658,4.6658,4.6691,4.6827,4.7549,4.8293,4.9052,4.9804,5.0015,5.021,5.093,5.1683,5.2232,5.2232,5.2875,5.3687,5.4372,5.4575,5.4812,5.5539,5.6867,5.7857,5.7891,5.9742,6.1467,6.2255,6.299,6.3994,6.5469,6.6305,6.7039,6.7726,6.7827,6.8166,6.8977,6.9045,6.9383,7.0139,7.0172,7.05,7.1199,7.1267,7.1267,7.1267,7.13,7.13,7.13,7.13,7.13,7.13,7.13,7.13,7.13,7.13,7.13,7.13,7.13,7.13,7.13,7.13,7.13,7.13,7.13,7.13,7.13,2.2317,2.2317,2.2317,2.2317,2.2317,2.2317,2.2317,2.2317,2.2557,2.3308,2.4462,0.0,0.0,0.0,0.0,0.0,3.4326,3.5943,3.6693,3.8159,3.9113,3.9356,3.9836,4.0438,4.1163,4.1441,4.1914,4.2658,4.3436,4.3937,4.4201,4.4729,4.5372,4.6075,4.6075,4.6346,4.6793,4.6793,4.6515,4.6075,4.6075,4.5643,4.4966,4.4966,4.4804,4.4608,0.0,4.4777,4.5108,4.6116,4.6278,4.6143,4.6658,4.7462,4.8511,4.9713,5.0254,5.0491,5.0769,5.1183,5.1623,5.1852,5.2536,5.3112,5.3112,5.3687,5.4304,5.4541,5.5759,5.6876,5.7103,5.8355,5.9539,6.008,6.1197,6.2289,6.3024,6.4174,6.5324,6.6294,6.7083,6.803,6.9293,6.8977,6.9011,6.9755,6.9834,7.0161,7.0906,7.0939,7.103,7.1289,7.13,7.13,7.13,7.13,7.13,7.13,7.13,7.13,7.13,7.13,7.13,7.13,7.13,7.13,7.13,7.13,7.1605,7.2011,7.2011,7.2326,7.2766,7.2766,7.2766,7.2631,2.2317,2.2317,2.2317,2.2317,2.2317,0.0,0.0,0.0,0.0,0.0,0.0,0.0,0.0,0.0,0.0,0.0,0.0,3.4765,3.5538,3.6963,3.8159,3.8943,3.9457,4.0032,4.0804,4.1068,4.1434,4.1914,4.2658,4.3024,4.3024,4.3552,4.4188,4.4877,4.4877,4.5297,4.6015,4.6015,4.6049,4.6041,4.5534,4.5169,4.4932,4.4391,4.4188,0.0,4.4188,4.4364,4.4845,4.6285,4.665,4.6609,4.7361,4.8612,5.0025,5.1243,5.1818,5.2021,5.2021,5.2359,5.2739,5.2739,5.3315,5.389,5.389,5.4465,5.5074,5.5319,5.674,5.7992,5.8254,5.9505,6.0791,6.1569,6.2313,6.3159,6.413,6.5324,6.6373,6.7106,6.8098,6.9124,7.0105,7.0026,7.0094,7.0567,7.0601,7.0804,7.1267,7.13,7.13,7.13,7.13,7.13,7.13,7.13,7.13,7.13,7.13,7.1436,7.1672,7.1672,7.1842,7.209,7.209,7.209,7.209,7.209,7.236,7.2812,7.2812,7.3082,7.3488,7.3488,7.3488,7.3353,2.2317,2.2317,2.2317,0.0,0.0,0.0,0.0,0.0,0.0,0.0,0.0,0.0,0.0,0.0,0.0,0.0,0.0,0.0,3.5335,3.5566,3.6591,3.8774,3.8943,3.9303,3.9954,4.0751,4.1117,4.1078,4.1867,4.2225,4.2225,4.2293,4.2658,4.3355,4.3355,4.3768,4.4472,4.4472,4.5263,4.6403,4.5026,4.4877,4.5307,4.3882,4.3355,4.3341,4.3341,4.3875,4.477,4.6293,4.7327,4.8157,4.8875,5.0093,5.1404,5.2122,5.2909,5.3509,5.3509,5.3509,5.3518,5.3543,5.4093,5.4591,5.4582,5.5131,5.5847,5.6487,5.7333,5.8146,5.8847,6.0279,6.1603,6.2357,6.3091,6.4062,6.5503,6.6373,6.714,6.7861,6.9293,7.0206,7.024,7.0906,7.13,7.13,7.13,7.13,7.13,7.13,7.13,7.13,7.13,7.13,7.13,7.1334,7.1368,7.1402,7.1402,7.1774,7.2462,7.2462,7.2845,7.3488,7.3488,7.3488,7.3488,7.3488,7.3522,7.3556,7.3556,7.359,7.3624,7.3624,7.3624,7.3624,0.0,0.0,0.0,0.0,0.0,0.0,0.0,0.0,0.0,0.0,0.0,0.0,0.0,0.0,0.0,0.0,0.0,0.0,3.3886,3.4997,3.6118,3.7297,3.8408,3.8803,3.8407,3.9698,4.0087,3.9475,4.0814,4.1474,4.1508,4.2056,4.2394,4.2591,4.2591,4.2692,4.2875,4.2875,4.2784,4.2648,4.2806,4.2669,4.2356,4.2536,4.2591,4.2557,4.2527,4.3024,4.4005,4.6109,4.8011,4.9661,5.0397,5.1269,5.2156,5.2968,5.334,5.3509,5.3509,5.3509,5.3619,5.4169,5.4473,5.452,5.4216,5.473,5.5085,5.4466,5.6471,5.8409,5.8608,6.0541,6.2347,6.3115,6.3825,6.4647,6.5571,6.6823,6.7895,6.8707,6.9631,7.0409,7.0962,7.1199,7.13,7.13,7.13,7.13,7.13,7.13,7.13,7.13,7.13,7.13,7.13,7.1842,7.2394,7.2947,7.2947,7.3048,7.3218,7.3218,7.3319,7.3488,7.3488,7.3488,7.3488,7.3488,7.3815,7.4322,7.4322,7.4661,7.5134,7.5134,7.5134,7.5134,0.0,0.0,0.0,0.0,0.0,0.0,0.0,0.0,0.0,0.0,0.0,0.0,0.0,0.0,0.0,0.0,0.0,0.0,0.0,3.3993,3.5103,3.6237,3.7393,3.8125,3.8328,3.8818,3.9192,3.942,3.9933,4.0371,4.0737,4.1149,4.1521,4.1813,4.1813,4.1988,4.228,4.1943,4.2167,0.0,0.0,4.1654,4.209,4.1552,4.1533,4.1815,4.1714,4.2803,4.458,4.6243,4.8282,5.0244,5.0972,5.1716,5.2469,5.3272,5.3509,5.3509,5.3509,5.3754,5.4093,5.4507,5.4716,5.4753,5.4543,5.4698,5.4725,5.4105,5.5729,5.7517,5.8368,5.9971,6.1807,6.3687,6.4343,6.4788,6.5269,6.7111,6.8387,6.8227,6.9693,7.0591,7.0392,7.095,7.1041,7.0402,7.0961,7.13,7.13,7.13,7.13,7.13,7.1605,7.1943,7.2259,7.2665,7.3082,7.3488,7.3488,7.3657,7.3984,7.3984,7.4165,7.4469,7.4469,7.4469,7.4469,7.4469,7.4695,7.51,7.51,7.5337,7.5709,7.5709,7.5709,7.5709,0.0,0.0,0.0,0.0,0.0,0.0,0.0,0.0,0.0,2.5871,2.5803,2.6044,2.6763,2.8121,0.0,0.0,0.0,0.0,0.0,0.0,3.392,3.5402,3.6237,3.725,3.8504,3.7974,3.8321,3.9637,3.9076,3.9123,3.9805,3.999,4.0387,4.0898,4.0996,4.1413,4.1949,4.1217,4.1962,4.3453,4.0778,4.0882,4.2446,0.0,4.0333,4.1045,4.1149,4.2843,4.5238,4.641,4.8349,5.0346,5.1006,5.1784,5.2604,5.3315,5.3509,5.3509,5.3509,5.4033,5.4583,5.4521,5.4798,5.5067,5.4852,5.4582,5.4379,5.4379,5.5091,5.6197,5.7833,5.8941,6.0607,6.3737,6.4151,6.4324,6.4959,6.7246,6.835,6.7116,6.9382,7.0482,6.9085,7.0019,7.0309,6.9289,7.0421,7.1199,7.1289,7.1402,7.1503,7.1605,7.2225,7.2902,7.3624,7.3657,7.3691,7.3793,7.3793,7.4119,7.475,7.475,7.5089,7.5709,7.5709,7.5709,7.5709,7.5709,7.5709,7.5709,7.5709,7.5709,7.5709,7.5709,7.5709,7.5709,0.0,0.0,0.0,0.0,0.0,0.0,2.5567,2.6116,2.6721,2.735,2.6886,2.6793,2.7519,2.8455,0.0,0.0,0.0,0.0,0.0,0.0,0.0,3.4613,3.5413,3.592,3.6187,3.6698,3.7091,3.7289,3.7865,3.8186,3.8236,3.95,3.9794,3.9315,3.998,4.0377,4.0434,3.9654,3.9173,3.8933,3.8401,3.8412,3.8732,3.8338,3.9077,0.0,4.164,4.2323,4.3118,4.5876,4.868,5.104,5.1167,5.2156,5.3315,5.3441,5.3509,5.3509,5.3509,5.4033,5.452,5.4201,5.4618,5.4786,5.3565,5.3246,5.3209,5.3209,5.4536,5.5783,5.6122,5.801,6.013,6.2,6.1862,6.2522,6.5312,6.6733,6.7156,6.6359,6.8233,6.9048,6.7673,6.7781,6.8268,6.9145,6.9995,7.0711,7.1278,7.1875,7.2496,7.3116,7.3251,7.3646,7.4378,7.4412,7.4728,7.5315,7.5315,7.5371,7.5506,7.5506,7.5574,7.5709,7.5709,7.5709,7.5709,7.5709,7.5709,7.5709,7.5709,7.5709,7.5709,7.5709,7.5709,7.5709,0.0,0.0,0.0,0.0,0.0,0.0,2.6112,2.6788,2.7389,2.7752,2.7875,2.8019,2.8383,2.9098,2.9702,0.0,0.0,0.0,0.0,0.0,0.0,3.3332,3.4443,3.5223,3.5597,3.598,3.6556,3.7327,0.0,3.7137,3.7792,3.8194,3.835,3.8337,3.8743,3.89,3.888,3.8483,3.8112,3.7771,3.733,3.7418,3.7764,3.7322,3.7861,0.0,4.1466,4.2193,4.2564,4.573,4.824,5.0194,5.0964,5.2258,5.3509,5.3509,5.3509,5.3509,5.3509,5.4329,5.4973,5.4211,5.4411,5.4512,5.3192,5.244,5.2018,5.2018,5.3213,5.434,5.4751,5.6573,5.8538,6.0055,6.0644,6.1746,6.4118,6.5369,6.6068,6.6132,6.7341,6.7932,6.7254,6.719,6.7606,6.8601,6.902,6.9981,7.1785,7.1848,7.2505,7.4028,7.3335,7.3646,7.5156,7.5168,7.5337,7.5709,7.5709,7.5709,7.5709,7.5709,7.5709,7.5709,7.6149,7.6318,7.6352,7.6736,7.6906,7.6906,7.6906,7.6906,7.6906,7.6906,7.6906,7.6906,0.0,0.0,0.0,0.0,0.0,0.0,0.0,2.7427,2.7921,2.8263,2.8856,2.931,2.9445,2.9837,3.0166,0.0,0.0,0.0,0.0,0.0,0.0,0.0,3.3569,3.4542,3.5144,0.0,0.0,3.7203,3.5901,0.0,0.0,0.0,0.0,0.0,3.7534,3.7684,3.7798,3.7635,3.7528,0.0,0.0,3.6852,3.7499,0.0,0.0,0.0,0.0,4.2002,4.2185,4.5637,4.7665,4.9044,5.0694,5.2156,5.3281,5.3441,5.3509,5.3509,5.3509,5.4285,5.4872,5.3874,5.383,5.3724,5.2573,5.1641,5.1018,5.1104,5.1965,5.285,5.3443,5.5071,5.6843,5.8442,5.9457,6.0812,6.2948,6.4062,6.4875,6.5474,6.6252,6.6653,6.6351,6.6438,6.686,6.7682,6.8303,6.9638,7.1832,7.14,7.1952,7.3855,7.281,7.3175,7.5234,7.5246,7.5412,7.5709,7.5709,7.5777,7.5946,7.5946,7.6048,7.6217,7.686,7.713,7.7164,7.7751,7.7988,7.7988,7.7988,7.7988,7.7988,7.7988,7.7988,7.7988,0.0,0.0,0.0,0.0,0.0,0.0,0.0,2.7756,2.8297,2.9726,2.9963,3.0243,3.0925,3.0446,3.0374,0.0,0.0,0.0,0.0,0.0,0.0,0.0,0.0,0.0,0.0,0.0,0.0,3.4883,3.4224,0.0,0.0,0.0,0.0,0.0,0.0,3.7226,3.7746,3.7016,0.0,0.0,0.0,0.0,0.0,0.0,0.0,0.0,0.0,4.1401,4.0883,4.5317,4.7327,4.8394,5.0525,5.175,5.2562,5.3281,5.3509,5.3509,5.3509,5.3386,5.3104,5.2592,5.2313,5.186,5.0725,5.0377,5.0419,5.0831,5.1494,5.2013,5.2085,5.3731,5.5721,5.766,5.7685,5.8922,6.3135,6.3469,6.3308,6.3379,6.4523,6.4813,6.3592,6.3962,6.4854,6.6202,6.8672,7.022,7.0473,7.0431,7.0784,7.1671,7.1549,7.2224,7.377,7.3782,7.4418,7.5709,7.5709,7.6082,7.6792,7.6792,7.7176,7.7785,7.7887,7.7887,7.7887,7.7954,7.7988,7.7988,7.7988,7.7988,7.7988,7.7988,7.7988,7.7988,0.0,0.0,0.0,0.0,0.0,0.0,2.7689,2.8205,2.889,2.9963,3.0475,3.0852,3.1161,3.0954,3.0886,3.1161,0.0,0.0,0.0,0.0,0.0,0.0,0.0,0.0,0.0,0.0,3.4931,3.5211,3.4576,0.0,0.0,0.0,0.0,0.0,0.0,3.6416,3.7093,3.724,0.0,0.0,0.0,0.0,0.0,0.0,0.0,0.0,0.0,0.0,4.0689,4.525,4.6996,4.7691,5.0356,5.1404,5.1886,5.3137,5.3509,5.3357,5.2697,5.2747,5.2637,5.1151,5.1048,5.0999,4.9907,4.9643,4.97,4.9913,5.0661,5.1199,5.0941,5.2755,5.4482,5.4981,5.6208,5.8308,6.1752,6.2034,6.2508,6.4095,6.4054,6.3984,6.4293,6.4123,6.4555,6.5939,6.7451,6.8698,6.9608,6.965,7.0594,7.2645,7.1848,7.2533,7.4835,7.4859,7.5384,7.642,7.642,7.6826,7.7548,7.7548,7.7718,7.8022,7.8483,7.8653,7.8686,7.9126,7.9342,7.9342,7.9342,7.9342,7.9342,7.9342,7.9342,7.9342,0.0,0.0,0.0,0.0,0.0,2.7296,2.8035,2.8822,2.9605,3.034,3.0891,3.1195,3.1195,3.1195,3.1195,3.1195,3.1195,0.0,0.0,0.0,0.0,0.0,0.0,0.0,0.0,0.0,3.531,3.531,3.4865,3.4725,0.0,0.0,3.4942,3.5637,0.0,0.0,0.0,0.0,0.0,0.0,0.0,0.0,0.0,0.0,0.0,0.0,0.0,0.0,0.0,0.0,0.0,4.6907,4.9684,5.0863,5.1448,5.2682,5.323,5.3187,5.1822,5.2064,5.2207,5.0287,5.0204,5.029,4.9256,4.9007,4.8947,4.8738,4.9452,5.0073,4.9971,5.1816,5.3461,5.3698,5.5624,5.8036,6.0725,6.1089,6.1945,6.4234,6.3829,6.366,6.4432,6.439,6.4844,6.6191,6.6729,6.7442,6.8472,6.8546,6.9702,7.2223,7.0866,7.1606,7.4706,7.4731,7.5596,7.7232,7.7232,7.7362,7.7661,7.8107,7.7946,7.7342,7.8309,7.8492,7.8116,7.8629,7.8829,7.8829,7.8829,7.9111,7.9508,7.9508,7.9798,8.0124,0.0,0.0,0.0,0.0,0.0,0.0,2.887,2.96,3.0335,3.1094,3.1195,3.1195,3.1195,3.1195,3.1195,3.1195,3.1195,0.0,0.0,0.0,0.0,0.0,0.0,0.0,0.0,0.0,3.4616,3.4616,3.4684,3.5053,3.5661,3.5014,3.506,3.5701,0.0,0.0,0.0,0.0,0.0,0.0,0.0,0.0,3.7786,0.0,0.0,0.0,0.0,0.0,0.0,0.0,0.0,0.0,0.0,5.0017,5.1292,5.1793,5.2662,5.305,5.0991,5.1136,5.1559,5.0151,4.9822,4.9538,4.8542,4.8308,4.8128,4.7459,4.7859,4.8539,4.9198,5.0893,5.2807,5.468,5.6162,5.7984,6.0527,6.1021,6.1613,6.2972,6.3632,6.3752,6.3182,6.4246,6.5547,6.6894,6.7014,6.7014,6.7029,6.7029,6.7698,6.9201,6.7804,6.8793,7.2508,7.2536,7.4358,7.7988,7.7988,7.7581,7.6868,7.8395,7.7828,7.5691,7.7262,7.7069,7.5637,7.5637,7.5651,7.5651,7.5651,7.6562,7.7909,7.7909,7.8881,7.9985,0.0,0.0,0.0,0.0,0.0,0.0,0.0,2.9639,3.0374,3.1089,3.1195,3.1195,3.1195,3.1195,3.1195,3.1195,3.1195,0.0,0.0,0.0,0.0,0.0,0.0,0.0,0.0,0.0,3.61,3.61,3.6628,3.6746,3.6436,3.6204,3.6197,3.6467,3.6345,3.6584,0.0,0.0,0.0,0.0,0.0,3.6407,3.7807,0.0,0.0,0.0,0.0,0.0,0.0,0.0,0.0,0.0,0.0,0.0,0.0,5.0148,5.121,5.2116,5.076,5.0107,4.9666,4.9232,4.8589,4.8022,4.7695,4.7608,4.7549,4.7328,4.7818,4.8498,4.9168,5.0882,5.2678,5.4201,5.5937,5.7851,6.0039,6.0768,6.1613,6.2944,6.3632,6.4096,6.4381,6.5188,6.6056,6.6939,6.7014,6.7427,6.8458,6.7548,6.7699,6.9143,6.9182,7.0224,7.2416,7.285,7.3918,7.5598,7.5598,7.5755,7.5999,7.6507,7.6297,7.5623,7.611,7.6053,7.5594,7.5594,7.6209,7.7179,7.7179,7.8097,7.9469,7.9469,7.9773,7.9985,0.0,0.0,0.0,0.0,0.0,0.0,0.0,2.9876,3.0678,3.1128,3.1195,3.1195,3.1195,3.1195,3.1195,3.1195,3.1195,0.0,0.0,0.0,0.0,0.0,0.0,0.0,3.5362,3.6316,3.6925,3.7224,3.7956,3.8066,3.7609,3.7295,3.7143,3.7164,3.7096,3.7151,0.0,0.0,0.0,0.0,3.6252,3.655,3.8613,0.0,0.0,0.0,0.0,0.0,0.0,0.0,0.0,0.0,0.0,0.0,0.0,0.0,4.9858,5.0705,4.9542,4.9595,4.9673,4.8512,4.8051,4.7764,4.7376,4.7309,4.7358,4.7638,4.8008,4.8577,4.9464,5.105,5.2636,5.397,5.6034,5.8082,5.9861,6.0894,6.1972,6.3273,6.3767,6.4351,6.5278,6.5757,6.6281,6.6954,6.7014,6.7381,6.8325,6.7744,6.7803,6.8722,6.9134,7.0339,7.2337,7.2734,7.3606,7.4911,7.4911,7.4846,7.4718,7.5319,7.4954,7.3869,7.4437,7.4362,0.0,7.3839,7.4392,7.5243,7.5243,7.6223,7.761,7.761,7.7949,7.8251,0.0,0.0,0.0,0.0,0.0,0.0,0.0,3.0253,3.1195,3.1195,3.1195,3.1195,3.1195,3.1195,3.1195,3.1195,0.0,0.0,0.0,0.0,0.0,0.0,0.0,0.0,3.6761,3.6891,3.7285,3.7984,3.8734,3.9085,3.9054,3.8238,3.7858,3.7807,3.7858,3.7484,0.0,0.0,0.0,0.0,3.612,3.6831,0.0,0.0,0.0,0.0,0.0,0.0,0.0,0.0,0.0,0.0,0.0,0.0,0.0,0.0,0.0,0.0,0.0,4.9464,5.1024,4.8219,4.8125,4.846,4.7516,4.7339,0.0,4.8158,4.8368,4.8805,5.0028,5.1427,5.2785,5.4119,5.6513,5.8637,5.998,6.1327,6.263,6.3857,6.4036,6.4575,6.5877,6.6026,6.634,6.6954,6.7014,6.7014,6.7014,6.7643,6.8017,6.8077,6.8107,6.9439,7.2118,7.2195,7.3229,7.5261,7.5261,7.4481,7.3092,7.4585,7.3672,7.097,7.2394,7.2221,7.0889,7.0889,7.0954,7.1067,7.1067,7.2031,7.346,7.346,7.4379,7.5377,0.0,0.0,0.0,0.0,0.0,0.0,0.0,0.0,0.0,0.0,3.1195,3.1195,3.1195,3.1195,3.1195,0.0,0.0,0.0,0.0,0.0,0.0,0.0,0.0,0.0,3.679,3.7906,3.8571,3.8734,3.9491,3.9836,3.9817,3.9003,3.8337,3.7829,3.8386,3.8867,0.0,0.0,0.0,0.0,3.7191,3.7723,0.0,0.0,0.0,0.0,3.8818,3.9383,0.0,0.0,0.0,0.0,0.0,0.0,0.0,0.0,4.8851,5.0046,4.8194,0.0,4.9565,4.9635,4.8656,4.7602,0.0,4.7698,4.8098,4.8278,4.9075,5.0009,5.0817,5.2474,5.4162,5.5521,5.7483,5.9325,6.0685,6.2002,6.3153,6.3917,6.4441,6.5099,6.5906,6.646,6.6835,6.6984,6.7014,6.7014,6.7014,6.7643,6.8257,6.875,6.9259,6.9855,7.0551,7.0988,7.1481,7.1999,7.1999,7.1824,7.1441,7.184,7.1585,7.0905,7.1279,7.123,7.0889,7.0889,7.1647,7.2721,7.2721,7.3703,7.5042,7.5042,7.5275,7.5377,0.0,0.0,0.0,0.0,0.0,0.0,0.0,0.0,0.0,0.0,0.0,3.1195,3.1195,3.1195,0.0,0.0,0.0,0.0,0.0,0.0,0.0,0.0,0.0,3.6502,3.7285,3.8408,3.9186,3.9491,3.9903,4.0113,4.0087,3.8941,3.8358,3.8316,3.8718,3.9342,0.0,0.0,3.8402,3.9868,3.7205,0.0,0.0,0.0,0.0,0.0,3.9176,3.9926,0.0,4.0457,4.1885,4.3882,0.0,0.0,0.0,0.0,4.8067,4.9388,4.813,4.8294,4.8922,4.9516,4.847,4.7369,4.7698,4.8038,4.8457,4.9033,4.9949,5.0966,5.1947,5.3503,5.5179,5.6795,5.8471,6.0116,6.1792,6.2869,6.3632,6.3947,6.4859,6.5607,6.5966,6.661,6.7014,6.7014,6.7014,6.7014,6.7014,6.7942,6.863,6.9004,6.9901,7.041,7.041,7.0739,7.0889,7.0889,7.0889,7.0889,7.0889,7.0889,7.0889,7.0889,7.0889,7.0889,7.0889,7.0889,7.1407,7.2189,7.2189,7.2721,7.3429,7.3429,7.3429,7.3307,0.0,0.0,0.0,0.0,0.0,0.0,0.0,0.0,0.0,0.0,0.0,0.0,0.0,0.0,0.0,0.0,0.0,0.0,0.0,0.0,0.0,0.0,3.6214,3.7325,3.8052,3.8802,3.9457,4.0113,4.0113,4.0056,3.9895,3.8716,3.8469,3.9063,3.8948,3.9282,0.0,3.792,3.8201,3.97,3.7139,0.0,0.0,0.0,0.0,0.0,0.0,0.0,0.0,4.0989,4.2325,4.4048,4.4322,0.0,0.0,0.0,0.0,0.0,4.7754,4.812,4.8605,4.8769,4.8051,4.7489,4.8158,4.8379,4.8805,5.0088,5.0877,5.1786,5.3246,5.4593,5.6107,5.7949,5.9458,6.1028,6.2868,6.3542,6.3917,6.4126,6.5173,6.5936,6.6116,6.667,6.7014,6.7014,6.7014,6.7014,6.7014,6.8166,6.8884,6.9004,7.0141,7.0799,7.0889,7.0889,7.0889,7.0889,7.0889,7.0889,7.0889,7.0889,7.0889,7.0889,7.0889,7.0889,7.0889,7.0889,7.0889,7.0889,7.0889,7.0889,7.0889,7.0889,7.0889,7.0889,0.0,0.0,0.0,0.0,0.0,0.0,0.0,0.0,0.0,0.0,0.0,0.0,0.0,0.0,0.0,0.0,0.0,0.0,0.0,0.0,0.0,3.6417,3.7285,3.8091,3.8808,3.9559,4.0005,4.0113,4.0113,3.974,3.9076,3.9545,3.9818,3.9895,3.9209,3.8962,3.9056,3.8709,3.8775,3.9043,3.858,0.0,0.0,0.0,0.0,0.0,0.0,0.0,0.0,4.0802,4.1122,4.1671,4.3749,0.0,0.0,0.0,0.0,0.0,4.7241,4.7293,4.7732,4.8584,4.8051,4.7489,4.8158,4.8738,4.9516,5.0769,5.1576,5.2636,5.4533,5.594,5.7287,5.8697,6.0565,6.2106,6.2988,6.3197,6.3632,6.474,6.5024,6.5607,6.6729,6.6954,6.7014,6.7014,6.7014,6.7014,6.7014,6.7732,6.8421,6.8974,6.9738,7.038,7.0889,7.0889,7.0889,7.0889,7.0889,7.0889,7.0889,7.0889,7.0889,7.0889,7.0889,7.0889,7.0889,7.0889,7.0889,7.0889,7.0889,7.0889,7.0889,7.0889,7.0889,7.0889,0.0,0.0,0.0,0.0,0.0,0.0,0.0,0.0,0.0,0.0,0.0,0.0,0.0,0.0,0.0,0.0,0.0,0.0,0.0,0.0,3.6152,3.7353,3.7719,3.8261,3.8977,3.9734,4.0113,4.0113,4.0113,4.011,4.016,4.0521,4.0482,4.0067,3.9706,3.9558,3.9532,3.9069,3.9136,3.9519,0.0,0.0,0.0,0.0,0.0,0.0,0.0,0.0,0.0,0.0,4.1489,4.2293,4.3463,0.0,0.0,0.0,0.0,0.0,4.6862,4.6933,4.7488,4.8316,4.8179,4.8218,4.9553,5.0092,5.081,5.2474,5.3341,5.4431,5.6393,5.7543,5.874,6.0446,6.1806,6.2734,6.3063,6.3677,6.4351,6.4934,6.5637,6.6311,6.6954,6.7014,6.7014,6.7014,6.7014,6.7014,6.7014,6.7643,6.8301,6.8974,6.9648,7.0306,7.0889,7.0889,7.0889,7.0889,7.0889,7.0889,7.0889,7.0889,7.0889,7.0889,7.0889,7.0889,7.0889,7.0889,7.0889,7.0889,7.0889,7.0889,7.0889,7.0889,7.0889,7.0889,0.0,0.0,0.0,0.0,0.0,0.0,0.0,0.0,0.0,0.0,0.0,0.0,0.0,0.0,0.0,0.0,0.0,0.0,0.0,3.4861,3.6281,3.7849,3.7916,3.8328,3.9254,3.9802,4.0113,4.0113,4.0276,4.0737,4.1468,4.1276,4.0916,4.0358,4.0349,4.0153,3.9805,3.9361,3.942,3.9765,0.0,0.0,0.0,0.0,0.0,0.0,0.0,0.0,0.0,0.0,0.0,0.0,0.0,0.0,0.0,4.5535,4.6936,4.8199,4.6987,4.7244,4.7975,4.8434,4.8409,4.8816,5.0769,5.1325,5.1995,5.4012,5.5089,5.6196,5.8008,5.9145,6.0356,6.2076,6.2764,6.3168,6.3273,6.4156,6.4874,6.5203,6.6131,6.6835,6.6969,6.7014,6.7014,6.7014,6.7014,6.7014,6.7014,6.7493,6.8062,6.8734,6.9259,6.9917,7.0679,7.0679,7.0769,7.0889,7.0889,7.0889,7.0889,7.0889,7.0889,7.0889,7.0889,7.0889,7.0889,7.0889,7.0889,7.0889,7.0889,7.0889,7.0889,7.0889,7.0889,7.0889,0.0,0.0,0.0,0.0,0.0,0.0,0.0,0.0,0.0,0.0,0.0,0.0,0.0,0.0,0.0,0.0,0.0,0.0,0.0,3.5171,3.6281,3.7849,3.7916,3.8571,4.0005,4.0072,4.0113,4.0113,4.0804,4.1508,4.2212,4.1533,4.1173,4.1132,4.111,4.0339,3.9022,3.9707,3.9617,3.9036,3.9727,0.0,0.0,0.0,0.0,0.0,0.0,0.0,0.0,0.0,0.0,0.0,0.0,0.0,4.5758,4.7013,4.8425,4.9299,4.8026,4.8635,4.9556,4.9305,4.8768,4.8816,5.0769,5.1666,5.2695,5.47,5.6107,5.7406,5.8756,6.0595,6.2135,6.2884,6.3078,6.3317,6.3871,6.4006,6.4545,6.5787,6.5996,6.6311,6.6954,6.7014,6.7014,6.7014,6.7014,6.7014,6.7014,6.7044,6.7373,6.8047,6.8107,6.875,7.0037,7.0067,7.0366,7.0889,7.0889,7.0889,7.0889,7.0889,7.0889,7.0889,7.0889,7.0889,7.0889,7.0889,7.0889,7.0889,7.0889,7.0889,7.0889,7.0889,7.0889,7.0889,0.0,0.0,0.0,0.0,0.0,0.0,0.0,0.0,0.0,0.0,0.0,0.0,0.0,0.0,0.0,0.0,0.0,0.0,0.0,3.5661,3.6806,3.7849,3.8328,3.9051,4.0072,4.0113,4.0113,4.0113,4.1318,4.2252,4.2983,4.269,4.2307,4.1853,4.14,4.0622,3.9669,3.9965,3.992,3.9669,3.9971,4.0113,0.0,0.0,0.0,0.0,0.0,0.0,0.0,0.0,4.1404,4.1739,4.4144,4.4413,4.4283,4.6559,4.7503,4.7851,4.8057,4.8488,4.9117,5.0206,5.0601,5.1139,5.2713,5.3593,5.473,5.7124,5.8022,5.889,6.0625,6.1926,6.2794,6.3063,6.3108,6.3303,6.3931,6.4351,6.4949,6.5877,6.637,6.6729,6.6984,6.7014,6.7014,6.7014,6.7014,6.7014,6.7014,6.7014,6.7313,6.7987,6.7987,6.8451,6.9379,6.9379,6.9482,6.9722,7.053,7.0709,7.0336,7.0336,7.0111,6.9722,6.9722,6.9722,6.9722,6.9722,6.9722,6.9722,6.9722,6.9722,6.9722,6.9722,6.9722,6.9722,0.0,0.0,0.0,0.0,0.0,0.0,0.0,0.0,0.0,0.0,0.0,0.0,0.0,0.0,0.0,0.0,0.0,0.0,3.4776,3.6073,3.7122,3.7883,3.8599,3.9356,4.0072,4.0113,4.0113,4.0113,4.1589,4.2794,4.3768,4.3768,4.3234,4.2293,4.1779,4.1007,4.0113,4.0113,4.0113,4.0113,4.0113,4.0113,0.0,0.0,0.0,0.0,0.0,0.0,0.0,0.0,4.0981,4.1371,4.393,4.4049,4.3806,4.6926,4.7538,4.7436,4.8498,4.9076,4.9672,5.0891,5.2175,5.3443,5.4581,5.5329,5.6436,5.865,5.9608,6.0535,6.2135,6.2794,6.3108,6.3108,6.3243,6.3602,6.4246,6.4889,6.5577,6.6251,6.6729,6.7014,6.7014,6.7014,6.7014,6.7014,6.7014,6.7014,6.7014,6.7014,6.7224,6.7673,6.7673,6.8002,6.869,6.8675,6.8794,6.9004,6.9871,7.0081,6.9678,6.9678,6.9423,6.9004,6.9004,6.9004,6.9004,6.9004,6.9004,6.9004,6.9004,6.9004,6.9004,6.9004,6.9004,6.9004,0.0,0.0,0.0,0.0,0.0,0.0,0.0,0.0,0.0,0.0,0.0,0.0,0.0,0.0,0.0,0.0,0.0,0.0,3.5504,3.6372,3.7122,3.7883,3.8599,3.9356,4.0072,4.0113,4.0113,4.0113,4.1589,4.3078,4.4608,4.4608,4.3795,4.2293,4.2293,4.1487,4.0113,4.0113,4.0113,4.0113,4.0113,4.0113,4.0113,0.0,0.0,0.0,0.0,0.0,0.0,0.0,4.0986,4.1521,4.4527,4.4838,4.4831,4.8565,4.9026,4.8471,4.9511,5.0759,5.1689,5.1317,5.3234,5.5401,5.6072,5.6688,5.7483,5.886,6.0715,6.2301,6.2988,6.3108,6.3108,6.3108,6.3602,6.4246,6.4904,6.5577,6.6251,6.6909,6.7014,6.7014,6.7014,6.7014,6.7014,6.7014,6.7014,6.7014,6.7014,6.7014,6.7014,6.7014,6.7014,6.7313,6.7987,6.7987,6.8331,6.8974,6.8974,6.8974,6.9004,6.9004,6.9004,6.8974,6.8974,6.8974,6.8974,6.8974,6.8974,6.8974,6.8974,6.8974,6.8974,6.8974,6.8974,6.8974,0.0,0.0,0.0,0.0,0.0,0.0,0.0,0.0,0.0,0.0,0.0,0.0,0.0,0.0,0.0,0.0,0.0,0.0,3.5538,3.6828,3.7686,3.7883,3.9113,3.9869,4.0113,4.0113,4.0614,4.1657,4.2097,4.3078,4.4608,4.4608,4.3795,4.2293,4.2293,4.1487,4.0113,4.0113,4.0113,4.0113,4.0113,4.0113,4.0113,0.0,0.0,0.0,0.0,0.0,0.0,0.0,0.0,0.0,4.3597,4.3865,4.3693,4.6708,4.6942,4.6661,4.8849,5.006,5.0974,5.227,5.4264,5.6179,5.7304,5.8052,5.9009,6.0835,6.2076,6.2854,6.3063,6.3108,6.3257,6.3662,6.3887,6.4395,6.5547,6.5877,6.6251,6.6909,6.7014,6.7014,6.7014,6.7014,6.7014,6.7014,6.7014,6.7014,6.7014,6.7014,6.7014,6.7014,6.7014,6.7104,6.7284,6.7313,6.7403,6.7597,6.7597,6.7852,6.8301,6.8301,6.8032,6.7597,6.7597,6.7597,6.7597,6.7597,6.7597,6.7597,6.7597,6.7597,6.7597,6.7597,6.7597,6.7597,0.0,0.0,0.0,0.0,0.0,0.0,0.0,0.0,3.1195,3.1195,3.1195,3.1195,0.0,0.0,0.0,3.335,3.4066,3.481,3.5538,3.6766,3.7578,3.7883,3.9045,3.9802,4.0072,4.0113,4.0675,4.1853,4.2158,4.2943,4.412,4.412,4.3477,4.2293,4.2293,4.165,4.054,4.054,4.054,4.0506,4.0208,4.0113,4.0081,0.0,0.0,0.0,0.0,0.0,0.0,0.0,0.0,0.0,4.3113,4.3223,4.2784,4.5806,4.6031,4.5883,4.8558,4.9942,5.1026,5.2767,5.4892,5.7047,5.8876,5.9803,6.0625,6.1852,6.2644,6.3153,6.3422,6.3452,6.3662,6.4291,6.462,6.5084,6.5892,6.6221,6.655,6.6954,6.7014,6.7014,6.7014,6.7014,6.7014,6.7014,6.7014,6.7014,6.7014,6.7014,6.7014,6.7014,6.7014,6.7014,6.7014,6.7014,6.7014,6.7014,6.7014,6.7224,6.7583,6.7583,6.7373,6.7014,6.7014,6.7014,6.7014,6.7014,6.7014,6.7014,6.7014,6.7014,6.7014,6.7014,6.7014,6.7014,0.0,0.0,0.0,0.0,0.0,0.0,0.0,3.1195,3.1195,3.1195,3.1195,3.1234,0.0,0.0,0.0,3.3457,3.4167,3.4878,3.5571,3.6338,3.7088,3.7781,3.8571,3.9356,4.0072,4.0113,4.0438,4.1096,4.1847,4.2625,4.3382,4.3382,4.3058,4.2394,4.2394,4.1982,4.1305,4.1305,4.1305,4.1238,4.0506,4.0208,4.0104,3.9322,0.0,0.0,0.0,0.0,0.0,0.0,0.0,0.0,4.2808,4.2803,4.2177,4.5492,4.592,4.5883,4.8558,5.0223,5.1517,5.2857,5.5251,5.7962,6.0521,6.1672,6.2181,6.2181,6.2674,6.3273,6.3887,6.4006,6.4246,6.4964,6.5607,6.6026,6.6086,6.661,6.7014,6.7014,6.7014,6.7014,6.7014,6.7014,6.7014,6.7014,6.7014,6.7014,6.7014,6.7014,6.7014,6.7014,6.7014,6.7014,6.7014,6.7014,6.7014,6.7014,6.7014,6.7014,6.7014,6.7014,6.7014,6.7014,6.7014,6.7014,6.7014,6.7014,6.7014,6.7014,6.7014,6.7014,6.7014,6.7014,6.7014,6.7014,0.0,0.0,0.0,0.0,0.0,0.0,3.1195,3.1195,3.1195,3.1195,3.1195,3.1437,3.1984,3.2718,0.0,3.4207,3.494,3.5436,3.5605,3.6338,3.6857,3.7021,3.8307,3.9356,4.0072,4.0113,4.0174,4.0343,4.1075,4.2111,4.3382,4.3382,4.3321,4.3152,4.3152,4.2753,4.2056,4.2056,4.2056,4.1988,4.1271,4.0967,4.088,4.0144,4.0311,0.0,0.0,0.0,0.0,0.0,0.0,0.0,4.1832,4.2315,4.2726,4.4346,4.5059,4.5883,4.8558,5.0223,5.1517,5.2857,5.597,5.9099,6.0731,6.2032,6.2884,6.2884,6.3003,6.3273,6.3887,6.4006,6.4395,6.5577,6.5922,6.6176,6.67,6.6909,6.7014,6.7014,6.7014,6.7014,6.7014,6.7014,6.7014,6.7014,6.7014,6.7014,6.7014,6.7014,6.7014,6.7014,6.7014,6.7014,6.7014,6.7014,6.7014,6.7014,6.7014,6.7014,6.7014,6.7014,6.7014,6.7014,6.7014,6.7014,6.7014,6.7014,6.7014,6.7014,6.7014,6.7014,6.7014,6.7014,6.7014,6.7014,0.0,0.0,0.0,0.0,0.0,0.0,0.0,0.0,3.1747,3.1747,3.1747,3.2017,3.2757,3.3491,0.0,0.0,3.5171,3.56,3.56,3.5983,3.6406,3.679,3.8205,3.918,3.9559,3.9903,4.0113,4.0113,4.0506,4.1447,4.2855,4.2855,4.3058,4.3382,4.3382,4.3186,4.2821,4.2821,4.2821,4.2753,4.2016,4.1745,4.1645,4.0923,4.1097,4.1586,4.0459,0.0,0.0,0.0,0.0,0.0,0.0,0.0,4.2365,4.3858,4.4755,4.5883,4.8558,5.0223,5.1816,5.4413,5.7094,5.9444,6.0791,6.2121,6.3108,6.3108,6.3333,6.3722,6.4351,6.474,6.5293,6.6311,6.649,6.661,6.6954,6.7014,6.7014,6.7014,6.7014,6.7014,6.7014,6.7014,6.7014,6.7014,6.7014,6.7014,6.7014,6.7014,6.7014,6.7014,6.7014,6.7014,6.7014,6.7014,6.7014,6.7014,6.7014,6.7014,6.7014,6.7014,6.7014,6.7014,6.7014,6.7014,6.7014,6.7014,6.7014,6.7014,6.7014,6.7014,6.7014,6.7014,6.7014,6.7014,0.0,0.0,0.0,0.0,0.0,0.0,0.0,0.0,0.0,3.2491,3.2491,3.2757,3.3525,3.4134,3.4545,0.0,0.0,0.0,3.56,3.56,3.5955,3.6756,3.8103,3.8876,3.9011,3.9734,4.0113,4.0113,4.0113,4.0783,4.2124,4.2225,4.2692,4.3423,4.3558,4.3693,4.3795,4.3795,4.3795,4.3727,4.3003,4.2597,4.2436,4.182,4.1943,4.2305,4.116,4.0991,4.1305,4.118,0.0,0.0,0.0,0.0,4.1783,4.3738,4.4755,4.5853,4.8438,5.0223,5.2264,5.6017,5.8022,5.9444,6.0791,6.2121,6.3108,6.3108,6.3512,6.4066,6.4845,6.5458,6.6086,6.6879,6.7014,6.7014,6.7014,6.7014,6.7014,6.7014,6.7014,6.7014,6.7014,6.7014,6.7014,6.7014,6.7014,6.7014,6.7014,6.7014,6.7014,6.7014,6.7014,6.7014,6.7014,6.7014,6.7014,6.7014,6.7014,6.7014,6.7014,6.7014,6.7014,6.7014,6.7014,6.7014,6.7014,6.7014,6.7014,6.7014,6.7014,6.7014,6.7014,6.7014,6.7014,6.7014,0.0,0.0,0.0,0.0,0.0,0.0,0.0,0.0,0.0,0.0,3.3249,3.3525,3.4269,3.4443,3.4748,3.5408,3.5538,3.56,3.56,0.0,0.0,3.6756,3.759,3.8362,3.8977,3.9734,4.0113,4.0113,4.0113,4.054,4.1366,4.1988,4.2692,4.3416,4.412,4.4797,4.5391,4.5391,4.5391,4.5324,4.4594,4.3883,4.324,4.3151,4.3067,4.3063,4.3548,4.3311,4.2605,4.1849,4.1139,0.0,0.0,0.0,4.1783,4.3738,4.4755,4.5764,4.7859,5.0212,5.2755,5.5623,5.7736,5.9444,6.0791,6.2121,6.3108,6.3108,6.3153,6.3572,6.48,6.5084,6.5547,6.6789,6.7014,6.7014,6.7014,6.7014,6.7014,6.7014,6.7014,6.7014,6.7014,6.7014,6.7014,6.7014,6.7014,6.7014,6.7014,6.7014,6.7014,6.7014,6.7014,6.7014,6.7014,6.7014,6.7014,6.7014,6.7014,6.7014,6.7014,6.7014,6.7014,6.7014,6.7014,6.7014,6.7014,6.7014,6.7014,6.7014,6.7014,6.7014,6.7014,6.7014,6.7014,6.7014,0.0,0.0,0.0,0.0,0.0,0.0,0.0,0.0,0.0,0.0,0.0,3.4303,3.5041,3.5109,3.5239,3.5571,3.56,3.56,3.56,3.56,3.5774,3.6124,3.7274,3.8052,3.8396,3.9525,4.0113,4.0113,4.0113,4.0276,4.0601,4.1346,4.2313,4.3416,4.3768,4.4587,4.5696,4.5696,4.594,4.6278,4.5947,4.5609,4.5297,4.5297,4.4916,4.4439,4.4783,4.4017,4.2761,4.2381,4.1734,4.1085,4.0995,0.0,0.0,0.0,4.4755,4.5903,4.8615,5.0739,5.2845,5.5534,5.7377,5.8996,6.0701,6.1852,6.2644,6.3003,6.3108,6.3482,6.477,6.5293,6.5877,6.6819,6.7014,6.7014,6.7014,6.7014,6.7014,6.7014,6.7014,6.7014,6.7014,6.7014,6.7014,6.7014,6.7014,6.7014,6.7014,6.7014,6.7014,6.7014,6.7014,6.7014,6.7014,6.7014,6.7014,6.7014,6.7014,6.7014,6.7014,6.7014,6.7014,6.7014,6.7014,6.7014,6.7014,6.7014,6.7014,6.7014,6.7014,6.7014,6.7014,6.7014,6.7014,6.7014,0.0,0.0,0.0,0.0,0.0,0.0,0.0,0.0,0.0,0.0,0.0,3.4974,3.5538,0.0,0.0,0.0,3.56,3.5673,3.5881,3.5915,3.5983,3.618,3.7477,3.8193,3.8193,3.9423,4.0113,4.0113,4.0113,4.0113,4.0106,4.0669,4.1705,4.3118,4.3321,4.437,4.5974,4.5974,4.6413,4.709,4.7293,4.7267,4.7124,4.7503,4.6907,4.5865,4.6069,4.4837,4.307,4.2907,4.2309,4.1652,4.1652,4.2012,0.0,0.0,0.0,4.6381,4.8992,5.0799,5.2516,5.4845,5.6765,5.8547,6.0222,6.1359,6.2255,6.2734,6.2974,6.3452,6.453,6.5278,6.5981,6.664,6.6894,6.7014,6.7014,6.7014,6.7014,6.7014,6.7014,6.7014,6.7014,6.7014,6.7014,6.7014,6.7014,6.7014,6.7014,6.7014,6.7014,6.7014,6.7014,6.7014,6.7014,6.7014,6.7014,6.7014,6.7014,6.7014,6.7014,6.7014,6.7014,6.7014,6.7014,6.7014,6.7014,6.7014,6.7014,6.7014,6.7014,6.7014,6.7014,6.7014,6.7014,6.7014,0.0,0.0,0.0,0.0,0.0,0.0,0.0,0.0,0.0,0.0,0.0,3.5571,3.56,3.56,3.56,3.56,3.56,3.5915,3.6688,3.6756,3.7054,3.7747,3.8531,0.0,3.8943,3.97,4.0113,4.0113,4.0113,4.0113,4.0113,4.0146,4.0946,4.2394,4.3091,4.464,4.6725,4.6725,4.7158,4.7913,4.8605,4.8469,4.7988,4.9398,4.8762,4.7206,4.7901,4.6442,4.4108,4.3469,4.286,4.2351,4.2351,4.2381,4.277,0.0,0.0,0.0,4.8188,4.9793,5.1576,5.3007,5.5748,5.8294,5.9039,6.0715,6.2121,6.2151,6.2674,6.3317,6.3917,6.459,6.5263,6.5936,6.658,6.7014,6.7014,6.7014,6.7014,6.7014,6.7014,6.7014,6.7014,6.7014,6.7014,6.7014,6.7014,6.7014,6.7014,6.7014,6.7014,6.7014,6.7014,6.7014,6.7014,6.7014,6.7014,6.7014,6.7014,6.7014,6.7014,6.7014,6.7014,6.7014,6.7014,6.7014,6.7014,6.7014,6.7014,6.7014,6.7014,6.7014,6.7014,6.7014,6.7014,6.7014,0.0,0.0,0.0,0.0,0.0,0.0,0.0,0.0,0.0,0.0,0.0,0.0,0.0,3.7065,3.7065,3.7065,3.7065,3.72,3.7483,3.7516,3.7618,3.7883,3.8599,3.9011,3.9011,3.9734,4.0113,4.0113,4.0113,4.0113,4.0113,4.0113,4.0885,4.2293,4.2591,4.4215,4.6793,4.6793,4.7774,4.9268,4.8898,4.8887,4.9036,4.8863,4.7997,4.6917,4.7175,4.6257,4.4915,4.4666,4.4436,4.4247,4.4247,4.4247,4.4477,4.5623,4.658,4.7459,4.8128,4.9404,5.0996,5.2767,5.4743,5.6735,5.865,5.9997,6.1058,6.1912,6.2644,6.3168,6.3393,6.3947,6.4725,6.5817,6.6191,6.652,6.6954,6.7014,6.7014,6.7014,6.7014,6.7014,6.7014,6.7014,6.7014,6.7014,6.7014,6.7014,6.7014,6.7014,6.7014,6.7014,6.7014,6.7014,6.7014,6.7014,6.7014,6.7014,6.7014,6.7014,6.7014,6.7014,6.7014,6.7014,6.7014,6.7014,6.7014,6.7014,6.7014,6.7014,6.7014,6.7014,6.7014,6.7014,6.7014,6.7014,0.0,0.0,0.0,0.0,0.0,0.0,0.0,0.0,3.7353,3.7849,0.0,0.0,0.0,0.0,3.7916,3.7916,3.7916,3.8018,3.8261,3.8261,3.8396,3.8633,3.9113,3.9356,3.9356,3.9599,3.9836,4.0113,3.9836,3.9869,4.0113,4.0113,4.0885,4.2293,4.2564,4.4215,4.6771,4.6701,4.7794,4.9571,4.9424,4.9438,4.9568,4.9678,4.8882,4.7748,4.7748,4.7109,4.6242,4.5783,4.5633,4.5603,4.5364,4.5454,4.5713,4.6181,4.6779,4.7399,4.7859,4.9063,5.0506,5.1846,5.3713,5.57,5.7676,5.8993,6.0146,6.1493,6.2315,6.2824,6.3063,6.3422,6.4066,6.5144,6.5518,6.5906,6.658,6.667,6.6759,6.6969,6.7014,6.7014,6.7014,6.7014,6.7014,6.7014,6.7014,6.7014,6.7014,6.7014,6.7014,6.7014,6.7014,6.7014,6.7014,6.7014,6.7014,6.7014,6.7014,6.7014,6.7014,6.7014,6.7014,6.7014,6.7014,6.7014,6.7014,6.7014,6.7014,6.7014,6.7014,6.7014,6.7014,6.7014,6.7014,6.7014,0.0,0.0,0.0,0.0,0.0,0.0,3.7815,3.791,3.795,3.795,0.0,0.0,0.0,0.0,0.0,3.7944,3.7944,3.8261,3.8977,3.9045,3.9356,4.0079,4.0113,4.0113,4.0113,3.9389,3.9389,4.0113,3.9389,3.9383,4.0081,4.0075,4.0886,4.23,4.3057,4.468,4.6764,4.6527,4.7275,4.8722,5.0136,5.0161,4.9552,5.1862,5.1509,4.98,4.98,4.9153,4.8128,4.682,4.639,4.6271,4.5603,4.5802,4.633,4.633,4.679,4.7309,0.0,0.0,0.0,5.0207,5.2653,5.5281,5.6013,5.7676,5.9428,6.0761,6.1583,6.2285,6.2944,6.3063,6.3273,6.3887,6.453,6.5203,6.5877,6.5966,6.6221,6.6849,6.6954,6.6969,6.6969,6.6984,6.7014,6.7014,6.7014,6.7014,6.7014,6.7014,6.7014,6.7014,6.7014,6.7014,6.7014,6.7014,6.7014,6.7014,6.7014,6.7014,6.7014,6.7014,6.7014,6.7014,6.7014,6.7014,6.7014,6.7014,6.7014,6.7014,6.7014,6.7014,6.7014,6.7014,6.7014,6.7014,0.0,0.0,0.0,0.0,0.0,3.7855,3.8565,3.8707,3.8876,0.0,0.0,0.0,3.9491,3.9491,3.9491,3.9491,3.9491,3.9592,3.9768,3.9802,3.9903,4.0072,4.0113,4.0113,4.0113,3.9903,3.9903,4.0113,3.9903,3.961,3.9236,3.9726,4.051,4.1575,4.2788,4.4502,4.6545,4.6996,4.7659,4.838,4.8514,4.9016,4.9654,4.9614,4.9514,4.9455,4.9455,4.9256,4.8989,4.8588,4.8457,4.8338,4.7679,4.7249,4.7029,4.7029,4.7149,4.7309,4.7309,0.0,0.0,0.0,0.0,0.0,5.4982,5.6598,5.8022,5.9385,6.0551,6.1569,6.2241,6.2375,6.2584,6.3243,6.3857,6.45,6.5174,6.5278,6.5368,6.5547,6.5966,6.6281,6.6281,6.67,6.7014,6.7014,6.7014,6.7014,6.7014,6.7014,6.7014,6.7014,6.7014,6.7014,6.7014,6.7014,6.7014,6.7014,6.7014,6.7014,6.7014,6.7014,6.7014,6.7014,6.7014,6.7014,6.7014,6.7014,6.7014,6.7014,6.7014,6.7014,6.7014,6.7014,6.7014,6.7014,0.0,0.0,3.7488,3.8227,3.8362,3.8599,3.9356,3.9457,3.9728,0.0,0.0,0.0,4.0986,4.102,4.102,4.102,4.102,4.0885,4.0574,4.0574,4.0405,4.0106,4.0113,4.0113,4.0113,3.9802,3.963,3.9604,3.9296,3.9222,3.9416,3.9434,4.0221,4.1664,4.2729,4.397,4.5349,4.6632,4.7517,4.8069,4.8433,4.882,4.9235,4.9923,5.0133,5.0133,5.0414,5.0504,5.0474,5.0193,4.9924,4.9494,4.8577,4.8038,4.7668,4.7388,4.7309,4.7309,4.7309,4.7788,4.8487,4.9213,0.0,0.0,5.3875,5.5371,5.6838,5.871,5.9714,6.0551,6.1523,6.1912,6.2225,6.2614,6.3213,6.3857,6.45,6.459,6.468,6.4964,6.5323,6.5577,6.5577,6.6191,6.658,6.658,6.6819,6.7014,6.7014,6.7014,6.7014,6.7014,6.7014,6.7014,6.7014,6.7014,6.7014,6.7014,6.7014,6.7014,6.7014,6.7014,6.7014,6.7014,6.7014,6.7014,6.7014,6.7014,6.7014,6.7014,6.7014,6.7014,6.7014,6.7014,6.7014,6.7014,0.0,3.7556,3.8261,3.8977,3.9113,3.9356,4.0005,4.018,4.0472,0.0,4.1333,4.1705,4.2361,4.2496,4.257,4.257,4.2462,4.2151,4.1502,4.1366,4.1041,4.0377,4.0206,4.0132,4.0208,3.9341,3.8891,3.8901,3.8162,3.8502,3.9825,3.9112,3.9953,4.2055,4.2784,4.3386,4.4038,4.5996,4.7173,4.7896,4.9139,4.9232,4.8928,5.1606,5.2109,5.1487,5.2097,5.2306,5.2217,5.1606,5.0966,5.0207,4.9015,4.8577,4.8368,4.7638,4.7429,4.7388,4.7328,4.7728,4.8218,4.8278,4.9643,0.0,5.2677,5.4024,5.5688,5.8171,5.874,5.9219,6.0611,6.1373,6.1822,6.1972,6.2555,6.3213,6.3797,6.3887,6.4126,6.474,6.4859,6.4874,6.4874,6.5488,6.5877,6.5877,6.652,6.6909,6.7014,6.7014,6.7014,6.7014,6.7014,6.7014,6.7014,6.7014,6.7014,6.7014,6.7014,6.7014,6.7014,6.7014,6.7014,6.7014,6.7014,6.7014,6.7014,6.7014,6.7014,6.7014,6.7014,6.7014,6.7014,6.7014,6.7014,6.7014,3.8436,3.8673,3.9011,3.9768,3.9903,3.9937,4.0072,4.0601,4.1035,4.1163,4.2239,4.3017,4.3152,4.3748,4.4161,4.4161,4.3572,4.3118,4.2983,4.2422,4.2022,4.1894,4.0735,4.0388,4.0954,3.9044,3.8311,3.8901,3.8165,3.7897,3.8105,3.8473,3.9496,4.1087,4.2858,4.4228,4.5322,4.6863,4.7752,4.8194,4.8487,4.9396,5.0702,5.1282,5.2047,5.2827,5.2947,5.3007,5.2977,5.2857,5.2366,5.1666,5.0888,5.0249,4.9591,4.8446,4.8098,4.7978,4.7459,4.7399,4.7608,4.8158,4.9007,0.0,5.1307,5.2636,5.4024,5.5628,5.6389,5.7317,5.9159,5.9608,6.0057,6.112,6.1852,6.2525,6.3183,6.3273,6.3333,6.3452,6.3887,6.4216,6.4216,6.48,6.5203,6.5203,6.5817,6.643,6.6969,6.7014,6.7014,6.7014,6.7014,6.7014,6.7014,6.7014,6.7014,6.7014,6.7014,6.7014,6.7014,6.7014,6.7014,6.7014,6.7014,6.7014,6.7014,6.7014,6.7014,6.7014,6.7014,6.7014,6.7014,6.7014,6.7014,6.7014,3.8943,3.9288,3.9666,4.0045,4.0405,4.0635,4.0635,4.1603,4.2449,4.2834,4.4512,4.5648,4.5648,4.6338,4.6793,4.6793,4.6447,4.5865,4.5155,4.4756,4.4052,4.2888,4.1771,4.1134,4.1088,3.9588,3.8779,3.8739,3.8373,3.8365,3.8637,3.8561,3.9635,4.1731,4.2677,4.3981,4.5535,4.6934,4.8175,4.9243,4.9243,5.0021,5.1367,5.2683,5.3593,5.4294,5.4922,5.5162,5.5102,5.4815,5.4473,5.3964,5.2606,5.1977,5.1367,4.9722,4.9243,4.9033,4.8057,4.7788,4.7788,4.7788,4.8558,0.0,0.0,5.1726,5.3097,5.4431,5.5222,5.609,5.7406,5.8171,5.8936,5.9953,6.0655,6.1357,6.2002,6.2674,6.3108,6.3108,6.3363,6.3542,6.3542,6.4126,6.465,6.4964,6.5637,6.6161,6.649,6.6835,6.7014,6.7014,6.7014,6.7014,6.7014,6.7014,6.7014,6.7014,6.7014,6.7014,6.7014,6.7014,6.7014,6.7014,6.7014,6.7014,6.7044,6.7373,6.7493,6.7463,6.7134,6.7194,6.7493,6.7493,6.7703,6.7986,3.9214,3.9694,4.014,4.0276,4.0798,4.1299,4.1569,4.2787,4.4012,4.5101,4.7056,4.8326,4.8326,4.8977,4.9416,4.9416,4.9281,4.8714,4.7503,4.7102,4.6122,4.4284,4.296,4.2068,4.1545,4.0208,3.9297,3.8803,3.8524,3.8813,3.9624,3.8931,4.0093,4.2818,4.2768,4.3768,4.5574,4.692,4.8555,5.0226,5.0626,5.1265,5.2205,5.4533,5.5461,5.573,5.6885,5.7363,5.7393,5.6928,5.6761,5.6432,5.4533,5.3935,5.3545,5.1385,5.0787,5.0458,4.9045,4.8656,4.8506,4.7848,4.8577,4.9595,0.0,0.0,0.0,5.3563,5.4251,5.4922,5.5833,5.6855,5.7679,5.8098,5.9039,5.9757,5.9923,6.1447,6.2555,6.2704,6.2824,6.2914,6.2914,6.3452,6.4096,6.477,6.5308,6.5727,6.5996,6.652,6.6864,6.7014,6.7014,6.7014,6.7014,6.7014,6.7014,6.7014,6.7014,6.7014,6.7014,6.7014,6.7014,6.7014,6.7134,6.7194,6.7254,6.7912,6.8197,6.8122,6.7613,6.7732,6.8197,6.8197,6.8541,6.9004,3.9977,4.0039,4.0309,4.0967,4.113,4.1637,4.2949,4.391,4.521,4.7252,4.8875,4.9838,4.9838,5.0499,5.0964,5.0964,5.0338,4.9906,4.9744,4.8269,4.7284,4.7053,4.4217,4.2911,4.3473,4.0244,3.8865,3.9506,3.8186,3.8202,3.9433,3.9326,4.0703,4.3248,4.3838,4.4875,4.6271,4.7608,4.8985,5.0357,5.2127,5.3635,5.4832,5.5743,5.6432,5.6974,5.7709,5.8367,5.886,5.88,5.877,5.853,5.7094,5.6658,5.6149,5.3605,5.2857,5.2438,5.0518,4.9968,4.983,4.9247,4.9583,5.0117,5.0177,0.0,5.1517,5.2276,0.0,5.3114,5.4982,0.0,0.0,5.4837,5.6782,5.7739,5.6107,5.8514,6.0669,6.1239,6.1852,6.2211,6.2211,6.2824,6.3452,6.4066,6.4186,6.4755,6.5936,6.6056,6.64,6.6984,6.7014,6.7014,6.7014,6.7014,6.7014,6.7014,6.7014,6.7014,6.7014,6.7014,6.7014,6.7029,6.7628,6.7898,6.7958,6.86,6.8884,6.8884,6.8794,6.8824,6.8884,6.8884,6.8944,6.9004,4.0276,4.0438,4.0838,4.1163,4.2286,4.3376,4.3985,4.5846,4.78,4.9578,5.1141,5.2063,5.2063,5.3103,5.3636,5.3213,5.2327,5.1583,5.1132,4.9503,4.8316,4.7807,4.564,4.4222,4.3756,4.1751,4.069,4.0643,4.0019,4.0017,4.0546,4.0546,4.1743,4.3878,4.4177,4.5473,4.7549,4.8854,5.038,5.2127,5.4114,5.594,5.7483,5.7796,5.853,5.9444,5.9744,6.0013,6.0252,6.0252,6.0252,6.0013,5.868,5.853,5.8334,5.5713,5.5204,5.4952,5.2576,5.1947,5.1708,5.0661,5.09,5.1367,5.1367,5.1576,5.1846,5.2127,0.0,0.0,0.0,0.0,0.0,0.0,5.5448,5.6256,5.585,5.7257,5.8903,6.0356,6.1104,6.1672,6.2061,6.2704,6.3227,6.3452,6.3797,6.4246,6.4814,6.5592,6.6131,6.64,6.6789,6.7014,6.7014,6.7014,6.7014,6.7014,6.7014,6.7014,6.7014,6.7014,6.7224,6.7583,6.7868,6.8211,6.863,6.9319,6.9588,6.9618,6.9961,6.9901,6.9588,6.9588,6.9782,7.0111,4.0919,4.1143,4.1644,4.2049,4.3518,4.4878,4.5684,4.8146,5.0371,5.1674,5.2968,5.3847,5.3881,5.4992,5.531,5.4343,5.3644,5.2893,5.1988,5.0551,4.9355,4.8534,4.6981,4.5607,4.4433,4.3432,4.269,4.2202,4.1852,4.1852,4.2202,4.2022,4.297,4.4835,4.4835,4.6132,4.8368,4.965,5.1367,5.3378,5.5384,5.7586,5.9654,5.9654,6.0386,6.1359,6.1359,6.1493,6.1642,6.1642,6.1642,6.1463,6.0296,6.028,6.019,5.7915,5.7436,5.7154,5.4892,5.4144,5.3695,5.2354,5.2384,5.2695,5.2516,5.2456,5.2426,5.2247,5.2187,0.0,0.0,0.0,5.2965,5.3072,0.0,5.4623,5.4563,5.5581,5.7034,5.9053,6.0027,6.094,6.2002,6.2555,6.2884,6.3108,6.3512,6.3842,6.3977,6.4934,6.5607,6.5996,6.646,6.6819,6.7014,6.7014,6.7014,6.7014,6.7014,6.7014,6.7014,6.7194,6.7523,6.8017,6.8407,6.881,6.9303,6.9977,7.0247,7.0306,7.0739,7.062,7.0247,7.0247,7.053,7.0889,4.2232,4.2266,4.274,4.4235,4.454,4.5548,4.8409,5.0777,5.2503,5.3306,5.4093,5.4655,5.4919,5.5384,5.5059,5.3486,5.3721,5.348,5.2371,5.132,5.0452,4.977,4.8134,4.6922,4.6223,4.4915,4.4247,4.4217,4.296,4.299,4.4187,4.3539,4.4316,4.6241,4.6241,4.6999,4.8368,4.965,5.1367,5.3378,5.5384,5.8155,6.103,6.103,6.1463,6.2061,6.2061,6.2495,6.3048,6.3048,6.3048,6.2928,6.2211,6.2002,6.1762,6.037,5.9518,5.874,5.7334,5.6539,5.5773,5.4431,5.4119,5.3982,5.3306,5.3169,5.2977,5.2336,5.2187,5.2187,5.2187,5.2217,5.1816,0.0,5.1965,0.0,0.0,5.2641,5.5029,5.6944,5.8351,5.9937,6.1912,6.2121,6.2405,6.3048,6.3123,6.3393,6.3977,6.4036,6.4665,6.5966,6.6026,6.634,6.6984,6.7014,6.7014,6.7014,6.7014,6.7014,6.7014,6.7673,6.7987,6.8077,6.9379,6.9947,7.0007,7.062,7.0859,7.0889,7.0889,7.0889,7.0859,7.0859,7.0889,7.0889,4.4344,4.4862,4.5142,4.4675,4.6225,4.8349,5.0811,5.2258,5.3112,5.3085,5.4548,5.5644,5.5789,5.6042,5.6149,5.5888,5.4685,5.3753,5.332,5.1887,5.0963,5.0751,4.9776,4.8514,4.6999,4.652,4.5843,4.4975,4.4536,4.4536,4.4975,4.4736,4.5234,4.633,4.6749,4.7927,4.968,5.1439,5.3336,5.5444,5.8291,6.0386,6.1762,6.1762,6.2195,6.2764,6.2764,6.2914,6.3108,6.3108,6.3108,6.2974,6.2301,6.2405,6.2495,6.1164,6.0924,6.0805,5.9442,5.8933,5.8454,5.7111,5.6782,5.6602,5.5927,5.5132,5.4473,5.4234,5.3486,5.2857,5.2857,5.2498,5.2067,0.0,0.0,5.2306,0.0,5.2695,5.4114,5.5671,5.6974,5.8381,5.9967,6.0924,6.1732,6.2405,6.2854,6.3183,6.3393,6.3767,6.4425,6.5293,6.5757,6.6311,6.6984,6.7014,6.7014,6.7014,6.7014,6.7014,6.7014,6.7673,6.8241,6.8704,6.9618,7.0217,7.062,7.0829,7.0889,7.0889,7.0889,7.0889,7.0889,7.0889,7.0889,7.0889,4.5228,4.5936,4.6429,4.6217,4.8081,5.0216,5.1874,5.2475,5.2915,5.3384,5.4632,5.5726,5.6356,5.6691,5.6845,5.6843,5.5649,5.4854,5.4679,5.3163,5.2264,5.2264,5.1385,5.0099,4.8375,4.8117,4.747,4.6362,4.5903,4.5783,4.5992,4.5783,4.6012,4.6689,4.7369,4.8615,5.0327,5.2336,5.4473,5.6808,6.0116,6.1702,6.2121,6.2375,6.2734,6.3108,6.3108,6.3108,6.3108,6.3108,6.3108,6.3003,6.2584,6.2734,6.2928,6.2061,6.1942,6.1912,6.1058,6.0625,6.0176,5.9085,5.8816,5.8637,5.7962,5.7004,5.6166,5.5927,5.4832,5.3905,5.3905,5.3156,5.2636,0.0,0.0,5.2127,0.0,5.2217,5.2917,5.3982,5.5478,5.7124,5.8919,5.9863,6.0851,6.2002,6.2495,6.2854,6.3108,6.3482,6.3977,6.462,6.5278,6.5981,6.664,6.6894,6.7014,6.7014,6.7014,6.7134,6.7373,6.8032,6.872,6.9393,7.0037,7.053,7.0889,7.0889,7.0889,7.0889,7.0889,7.0889,7.0889,7.0889,7.0889,7.0889,4.4999,4.5619,4.6789,4.8722,5.0017,5.1033,5.1795,5.1702,5.2269,5.4251,5.4517,5.5125,5.6688,5.727,5.7226,5.6456,5.6714,5.6758,5.6329,5.5089,5.4359,5.4299,5.3054,5.1726,5.0387,4.9714,4.9037,4.8338,4.7029,4.6719,4.7309,4.6689,4.673,4.7388,4.8128,4.9164,5.0476,5.2486,5.4892,5.7586,6.0805,6.2121,6.2211,6.2884,6.3123,6.3123,6.3123,6.3168,6.3183,6.3183,6.3183,6.3183,6.3153,6.3123,6.3138,6.3108,6.2644,6.2151,6.2151,6.1658,6.103,6.037,6.019,6.001,5.9368,5.8697,5.8038,5.7363,5.6226,5.5341,5.5341,5.4234,5.3545,5.4149,0.0,5.2007,5.1325,5.1236,5.1487,5.2187,5.3964,5.6137,5.865,5.9009,5.9877,6.1852,6.2061,6.2405,6.3063,6.3108,6.3393,6.3977,6.465,6.5323,6.5996,6.667,6.7014,6.7014,6.7014,6.7343,6.8017,6.869,6.9379,7.0037,7.0649,7.0889,7.0889,7.0889,7.0889,7.0889,7.0889,7.0889,7.0889,7.0889,7.0889,7.0889,4.6248,4.7425,4.8753,4.9733,5.0162,5.1078,5.3208,5.3589,5.4208,5.5751,5.608,5.6583,5.7594,5.7848,5.8225,5.8886,5.8663,5.8262,5.7646,5.729,5.6675,5.573,5.4892,5.3815,5.2456,5.1289,5.0152,4.9048,4.8188,4.7608,4.7298,4.7638,4.7889,4.8117,4.9722,5.1199,5.2558,5.4576,5.7227,6.0192,6.1553,6.2405,6.2914,6.3542,6.3782,6.3782,6.3782,6.4096,6.45,6.45,6.45,6.4441,6.3917,6.3782,6.3677,6.3213,6.2988,6.2824,6.2824,6.2704,6.2435,6.1746,6.1597,6.1403,6.0731,6.0086,5.9548,5.9382,5.8291,5.735,5.735,5.6286,5.5324,5.5012,5.3815,5.2707,5.2037,5.1947,5.2187,5.2857,5.3832,5.491,5.609,5.75,5.8966,6.0489,6.1537,6.2405,6.3063,6.3108,6.3393,6.3977,6.465,6.5323,6.5996,6.667,6.7014,6.7014,6.7014,6.7343,6.8017,6.869,6.9379,7.0037,7.0649,7.0889,7.0889,7.0889,7.0889,7.0889,7.0889,7.0889,7.0889,7.0889,7.0889,7.0889,4.6946,4.8224,4.9491,5.0102,5.067,5.1643,5.3268,5.3731,5.4471,5.6155,5.6689,5.7432,5.8769,5.8953,5.9365,6.0354,6.0149,5.9923,5.9863,5.9295,5.865,5.7929,5.6974,5.5837,5.4546,5.3204,5.1887,5.0564,4.9613,4.8805,4.8188,4.8558,4.8876,4.9183,5.0589,5.2115,5.3803,5.6688,5.9322,6.1613,6.2285,6.2914,0.0,6.3857,6.4366,6.4874,6.4874,6.4919,6.4994,6.4994,6.4994,6.4934,6.456,6.4441,6.4351,6.4036,6.3917,6.3857,6.3572,6.3482,6.3333,6.2704,6.2555,6.2435,6.2061,6.1463,6.0968,6.0968,5.9907,5.9056,5.9355,5.8351,5.7137,5.6179,5.5174,5.4186,5.3204,5.3084,5.3114,5.3186,5.3773,5.4359,5.473,5.6782,5.8547,5.9578,6.0924,6.1942,6.2614,6.2944,6.3243,6.3602,6.45,6.5174,6.5577,6.652,6.7014,6.7014,6.7014,6.7493,6.8451,6.8824,6.9512,7.041,7.0739,7.0889,7.0889,7.0889,7.0889,7.0889,7.0889,7.0889,7.0889,7.0889,7.0889,7.0889,4.7687,4.8697,4.9774,5.0458,5.1636,5.2682,5.3266,5.3553,5.4458,5.6543,5.7225,5.8185,6.004,6.031,6.0609,6.118,6.1299,6.1569,6.2061,6.0998,6.031,6.022,5.9026,5.7812,5.6611,5.5269,5.388,5.2456,5.1206,5.023,4.9546,4.9647,4.9942,5.0506,5.1355,5.2893,5.5077,5.877,6.1028,6.2151,6.2824,6.3452,6.4006,6.4096,6.4904,6.5996,6.6086,6.5757,6.5263,6.5263,6.5263,6.5233,6.5144,6.5114,6.5114,6.5024,6.4994,6.4874,6.4306,6.4126,6.4006,6.3482,6.3273,6.3227,6.3227,6.2704,6.2225,6.2225,6.1238,6.0549,6.112,6.0146,5.886,5.7663,5.6898,5.6,5.476,0.0,0.0,0.0,5.4114,0.0,5.4568,5.6632,5.8248,5.8919,6.0282,6.1389,6.2061,6.2734,6.3108,6.3108,6.4351,6.4994,6.4994,6.634,6.7014,6.7014,6.7014,6.7687,6.9004,6.9004,6.9692,7.0889,7.0889,7.0889,7.0889,7.0889,7.0889,7.0889,7.0889,7.0889,7.0889,7.0889,7.0889,7.0889,4.9699,5.0338,5.1259,5.2456,5.3324,5.4403,5.6075,5.6398,5.7286,5.9765,5.9796,5.9921,6.0821,6.1433,6.1806,6.1912,6.2435,6.2555,6.2121,6.1882,6.1493,6.094,6.0176,5.9382,5.862,5.7274,5.5688,5.385,5.3054,5.2037,5.0888,5.1439,5.1738,5.1947,5.3713,5.5897,5.8411,6.0745,6.1882,6.2151,6.2824,6.3452,6.4066,6.462,6.5308,6.6056,6.664,6.6759,6.664,6.664,6.664,6.655,6.5996,6.5817,6.5727,6.5144,6.4994,6.4964,6.4845,6.4815,6.4785,6.4695,6.4231,6.3827,6.3827,6.3363,6.2914,6.2914,6.2315,6.1806,6.1912,6.0835,5.9861,5.9621,5.856,5.75,5.6705,5.6149,0.0,0.0,0.0,5.6042,5.6526,5.7004,5.7543,5.8205,6.0043,6.1389,6.2061,6.2734,6.3108,6.3108,6.4351,6.4994,6.4994,6.634,6.7014,6.7014,6.7014,6.7687,6.9004,6.9004,6.9692,7.0889,7.0889,7.0889,7.0889,7.0889,7.0889,7.0889,7.0889,7.0889,7.0889,7.0889,7.0889,7.0889,5.2193,5.2803,5.3683,5.4982,5.5777,5.6782,5.8424,5.9262,5.9989,6.0897,6.1086,6.1373,6.2061,6.2435,6.2614,6.2614,6.2914,6.2944,6.2644,6.2614,6.2301,6.1642,6.1313,6.0805,6.0133,5.9159,5.7842,5.6213,5.5538,5.4563,5.3282,5.3593,5.3922,5.4354,5.6359,5.8321,6.0222,6.1553,6.2315,6.2674,6.3303,6.3947,6.459,6.5278,6.5936,6.655,6.6879,6.7014,6.7014,6.7014,6.7014,6.6954,6.661,6.652,6.646,6.6116,6.6026,6.5966,6.5607,6.5518,6.5458,6.5084,6.477,6.453,6.453,6.4291,6.3977,6.3632,6.3318,6.3003,6.2674,6.1806,6.1148,6.1148,6.0282,5.9415,5.8753,5.8408,5.8095,0.0,0.0,0.0,5.762,5.7932,5.8261,5.8577,6.0162,6.1389,6.2061,6.2734,6.3108,6.3108,6.4351,6.4994,6.4994,6.634,6.7014,6.7014,6.7343,6.8032,6.9004,6.9363,7.0021,7.0889,7.0889,7.0889,7.0889,7.0889,7.0889,7.0889,7.0889,7.0889,7.0889,7.0889,7.0889,7.0889,5.4718,5.5478,5.6389,5.7556,5.8171,5.8966,6.034,6.1417,6.1912,6.1389,6.1912,6.2525,6.3048,6.3213,6.3273,6.3273,6.3422,6.3512,6.3512,6.3363,6.3063,6.254,6.2361,6.2002,6.1329,6.0819,5.9877,5.8517,5.7992,5.6718,5.4803,5.5641,5.6389,5.709,5.877,6.0192,6.1359,6.2032,6.2704,6.3333,6.3797,6.447,6.5263,6.5787,6.643,6.7014,6.7164,6.7224,6.7224,6.7373,6.7343,6.7224,6.7224,6.7313,6.7433,6.7433,6.7313,6.7104,6.658,6.6311,6.6101,6.5577,6.5338,6.5203,6.5203,6.5084,6.4845,6.4321,6.4096,6.3857,6.3393,6.2764,6.2301,6.2301,6.1762,6.1134,6.0609,6.04,6.013,0.0,0.0,0.0,5.8773,5.9085,5.9428,5.9727,6.0581,6.1389,6.2061,6.2734,6.3108,6.3108,6.4351,6.4994,6.4994,6.634,6.7014,6.7014,6.7688,6.8361,6.9034,6.9708,7.0336,7.0889,7.0889,7.0889,7.0889,7.0889,7.0889,7.0889,7.0889,7.0889,7.0889,7.0889,7.0889,7.0889,5.6838,5.7872,5.8949,5.9681,5.9861,6.037,6.1702,6.2002,6.2061,6.2002,6.2584,6.3048,6.3108,6.3602,6.3917,6.3917,6.447,6.4815,6.4815,6.4231,6.3887,6.3827,6.3303,6.2674,6.2032,6.1942,6.1253,5.9921,5.9861,5.7616,5.3456,5.7064,5.9099,5.9771,6.0551,6.1299,6.2061,6.2734,6.3363,6.3917,6.3977,6.4784,6.5906,6.5966,6.643,6.7074,6.7688,6.7928,6.8017,6.8615,6.8421,6.7928,6.7928,6.8331,6.8824,6.8824,6.8391,6.7898,6.7838,6.7373,6.6894,6.6835,6.637,6.5906,6.5906,6.5458,6.4964,6.4904,6.4411,6.3977,6.3917,6.3422,6.3003,6.3003,6.2421,6.1972,6.1912,6.1403,6.097,6.091,0.0,0.0,6.0761,6.0326,6.0519,6.1732,6.1359,6.1389,6.2061,6.2734,6.3108,6.3108,6.4351,6.4994,6.4994,6.634,6.7014,6.7014,6.7688,6.8361,6.9034,6.9708,7.0336,7.0889,7.0889,7.0889,7.0889,7.0889,7.0889,7.0889,7.0889,7.0889,7.0889,7.0889,7.0889,7.0889,5.9428,5.9923,6.0492,6.1164,6.1297,6.1627,6.2555,6.3003,6.3228,6.3228,6.3468,6.3632,6.3632,6.4216,6.459,6.459,6.4859,6.4994,6.4994,6.474,6.459,6.459,6.3977,6.3498,6.3258,6.2884,6.2255,6.1297,6.1297,6.0146,5.7992,5.9578,6.0655,6.1327,6.1583,6.2061,6.2734,6.3363,6.3782,6.4066,6.4874,6.5533,6.6101,6.6879,6.7373,6.7673,6.8361,6.86,6.8645,6.8914,6.8824,6.86,6.86,6.8764,6.9004,6.9004,6.8794,6.86,6.86,6.8405,6.8196,6.8196,6.7986,6.7687,6.7284,6.6984,6.658,6.5757,6.5069,6.459,6.459,6.4411,6.4126,6.3722,6.3422,6.3109,6.2764,6.2465,6.2315,6.2315,6.2076,6.1836,6.1702,6.1463,6.1523,6.2061,6.1852,6.2002,6.2674,6.2944,6.3108,6.3108,6.4351,6.4994,6.4994,6.634,6.7014,6.7014,6.8092,6.8734,6.9034,7.0081,7.0679,7.0889,7.0889,7.0889,7.0889,7.0889,7.0889,7.0889,7.0889,7.0889,7.0889,7.0889,7.0889,7.0889,6.1313,6.1553,6.1882,6.254,6.266,6.2869,6.3572,6.4006,6.4306,6.4306,6.4485,6.4515,6.4336,6.4889,6.5293,6.5293,6.5488,6.5577,6.5577,6.5398,6.5293,6.5293,6.465,6.4306,6.4306,6.3677,6.3123,6.266,6.2495,6.1553,5.9923,5.9923,6.0805,6.2405,6.257,6.2914,6.3393,6.4036,6.4425,6.4665,6.5607,6.6251,6.67,6.7643,6.8137,6.8391,6.9034,6.9303,6.9303,6.9512,6.9572,6.9542,6.9333,6.9423,6.9572,6.9572,6.9423,6.9303,6.9303,6.9153,6.9004,6.9004,6.9004,6.8884,6.8391,6.8271,6.7972,6.6819,6.6056,6.5518,6.5338,6.5144,6.4859,6.4351,6.4306,6.4066,6.3452,6.3363,6.3303,6.3123,6.3108,6.2914,6.2435,6.2391,6.2391,6.2391,6.2391,6.2614,6.3063,6.3108,6.3197,6.3363,6.4441,6.5084,6.5308,6.643,6.7104,6.7313,6.8435,6.9093,6.9333,7.041,7.0889,7.0889,7.0889,7.0889,7.0889,7.0889,7.0889,7.0889,7.0889,7.0889,7.0889,7.0889,7.0889,7.0889,6.2091,6.2614,6.3273,6.3857,6.3977,6.4216,6.4874,6.4964,6.4994,6.4994,6.5577,6.5727,6.5054,6.5577,6.5996,6.5996,6.658,6.6984,6.6984,6.637,6.5996,6.5996,6.5368,6.4994,6.4994,6.4321,6.3977,6.3977,6.3393,6.1058,5.7167,5.7167,5.9262,6.3108,6.3722,6.3977,6.4036,6.471,6.5368,6.5966,6.5996,6.6789,6.7987,6.7987,6.8421,6.9064,6.9738,6.9977,7.0067,7.0679,7.0889,7.0769,7.0187,7.0396,7.0889,7.0889,7.044,6.9977,6.9977,6.9498,6.9004,6.9004,6.9004,6.9004,6.9004,6.9004,6.8794,6.8137,6.7433,6.6759,6.6116,6.5458,6.4994,6.4994,6.4994,6.4755,6.4096,6.3977,6.3782,6.3168,6.3108,6.3108,6.3108,6.3108,6.3108,6.3108,6.3108,6.3108,6.3108,6.3108,6.3363,6.3977,6.465,6.5338,6.5966,6.667,6.7343,6.7987,6.869,6.9333,7.0007,7.062,7.0889,7.0889,7.0889,7.0889,7.0889,7.0889,7.0889,7.0889,7.0889,7.0889,7.0889,7.0889,7.0889,7.0889,6.3992,6.4261,6.447,6.465,6.468,6.4755,6.4964,6.5398,6.5697,6.5697,6.667,6.7284,6.7074,6.6835,6.667,6.667,6.6894,6.7014,6.7014,6.6789,6.667,6.667,6.6026,6.5697,6.5697,6.5039,6.468,6.468,6.45,6.3752,6.2496,6.2496,6.3184,6.4411,6.459,6.468,6.474,6.5398,6.5787,6.6071,6.7014,6.7613,6.8107,6.9035,6.9498,6.9752,7.038,7.062,7.0649,7.0829,7.0889,7.0859,7.0679,7.0739,7.0889,7.0889,7.0769,7.062,7.062,7.047,7.029,7.029,7.029,7.0201,6.9798,6.9333,6.8944,6.872,6.8495,6.8166,6.7493,6.7194,6.6759,6.5817,6.5697,6.5458,6.477,6.468,6.462,6.4411,6.4411,6.4216,6.3767,6.3707,6.3542,6.3123,6.3108,6.3108,6.3108,6.3482,6.3797,6.3977,6.5099,6.5787,6.5996,6.667,6.7343,6.8017,6.869,6.9572,7.062,7.0799,7.0889,7.0889,7.0889,7.0889,7.0889,7.0889,7.0889,7.0889,7.0889,7.0889,7.0889,7.0889,7.0889,7.0889,6.4904,6.4994,6.5084,6.5323,6.5398,6.5547,6.6056,6.649,6.6849,6.7089,6.7852,6.8391,6.8391,6.8002,6.7747,6.7747,6.7747,6.7747,6.7747,6.7747,6.7643,6.7373,6.6969,6.664,6.637,6.5727,6.5398,6.5398,6.5114,6.4994,6.4994,6.4994,6.4994,6.5024,6.5263,6.5398,6.5458,6.637,6.6759,6.6849,6.7942,6.8511,6.884,6.9678,7.0157,7.0396,7.0769,7.0889,7.0889,7.0889,7.0889,7.0889,7.0889,7.0889,7.0889,7.0889,7.0889,7.0889,7.0889,7.0889,7.0889,7.0889,7.0889,7.0799,7.041,7.0021,6.9662,6.9423,6.9379,6.9169,6.8511,6.8391,6.8032,6.6939,6.6759,6.643,6.5518,6.5398,6.5263,6.5024,6.4994,6.4859,6.4411,6.4381,6.4216,6.3827,6.3797,6.3797,6.3797,6.3917,6.4246,6.4725,6.5547,6.6116,6.637,6.7044,6.7703,6.8391,6.9273,7.0141,7.0889,7.0889,7.0889,7.0889,7.0889,7.0889,7.0889,7.0889,7.0889,7.0889,7.0889,7.0889,7.0889,7.0889,7.0889,7.0889,6.5114,6.5174,6.5398,6.6041,6.6176,6.664,6.7898,6.8077,6.8271,6.8914,6.9034,6.9064,6.9064,6.9093,6.9123,6.9123,6.9064,6.9004,6.9004,6.9004,6.8704,6.8107,6.8077,6.7762,6.7148,6.649,6.6131,6.6056,6.5443,6.5144,6.5144,6.5144,6.5144,6.5174,6.5847,6.6131,6.6221,6.7523,6.8077,6.8137,6.881,6.9439,7.0007,7.0037,7.041,7.0889,7.0889,7.0889,7.0889,7.0889,7.0889,7.0889,7.0889,7.0889,7.0889,7.0889,7.0889,7.0889,7.0889,7.0889,7.0889,7.0889,7.0889,7.0889,7.0889,7.0889,7.0739,7.0187,7.0067,6.9858,6.9183,6.9064,6.8854,6.8197,6.8077,6.7613,6.637,6.6176,6.5906,6.5263,6.5174,6.5114,6.5084,6.5084,6.5054,6.4994,6.4994,6.5024,6.5054,6.4485,6.4725,6.5966,6.6056,6.64,6.7074,6.7688,6.8361,6.9093,7.032,7.0889,7.0889,7.0889,7.0889,7.0889,7.0889,7.0889,7.0889,7.0889,7.0889,7.0889,7.0889,7.0889,7.0889,7.0889,7.0889,7.0889,6.643,6.6954,6.7343,6.7493,6.7972,6.8405,6.8704,6.8764,6.8824,6.8974,6.9453,6.9722,6.9676,7.0125,7.044,7.044,6.9572,6.9004,6.9004,6.9004,6.8944,6.8764,6.8764,6.8675,6.8525,6.7882,6.7284,6.6759,6.661,6.652,6.652,6.652,6.652,6.655,6.7224,6.7523,6.7583,6.8421,6.8764,6.8824,6.9498,6.9858,7.0037,7.05,7.0769,7.0889,7.0889,7.0889,7.0889,7.0889,7.0889,7.0889,7.0889,7.0889,7.0889,7.0889,7.0889,7.0889,7.0889,7.0889,7.0889,7.0889,7.0889,7.0889,7.0889,7.0889,7.0859,7.0709,7.0679,7.05,6.9887,6.9768,6.9558,6.8854,6.8764,6.8645,6.8345,6.7852,6.7463,6.7313,6.6819,6.634,6.5817,6.5757,6.5547,6.5024,6.4994,6.5203,6.5727,6.5607,6.5667,6.5996,6.649,6.7104,6.7778,6.7928,6.8571,6.9768,7.053,7.0889,7.0889,7.0889,7.0889,7.0889,7.0889,7.0889,7.0889,7.0889,7.0889,7.0889,7.0889,7.0889,7.0889,7.0889,7.0889,7.0889,6.7837,6.8211,6.8451,6.8451,6.878,6.9093,6.9393,6.9453,6.9558,6.9842,7.0187,7.041,7.0364,7.0663,7.0889,7.0889,7.026,6.9871,6.9871,6.9871,6.9752,6.9453,6.9453,6.9303,6.9004,6.8645,6.8271,6.7897,6.7897,6.7897,6.7897,6.7897,6.7897,6.7926,6.8301,6.8451,6.8511,6.9169,6.9453,6.9512,7.0141,7.041,7.044,7.0769,7.0889,7.0889,7.0889,7.0889,7.0889,7.0889,7.0889,7.0889,7.0889,7.0889,7.0889,7.0889,7.0889,7.0889,7.0889,7.0889,7.0889,7.0889,7.0889,7.0889,7.0889,7.0889,7.0889,7.0889,7.0889,7.0799,7.047,7.041,7.0201,6.9558,6.9453,6.9333,6.9034,6.869,6.8451,6.8451,6.8151,6.7777,6.7418,6.7388,6.7223,6.6864,6.6834,6.6983,6.7342,6.7388,6.7238,6.6909,6.7254,6.7792,6.8451,6.875,6.9409,7.0426,7.0739,7.0889,7.0889,7.0889,7.0889,7.0889,7.0889,7.0889,7.0889,7.0889,7.0889,7.0889,7.0889,7.0889,7.0889,7.0889,7.0889,7.0889,6.9004,6.9093,6.9153,6.9153,6.9243,6.9482,7.0037,7.0127,7.0336,7.0829,7.0889,7.0889,7.0889,7.0889,7.0889,7.0889,7.0889,7.0889,7.0889,7.0889,7.0679,7.0157,7.0127,6.9887,6.9303,6.9183,6.9093,6.9004,6.9004,6.9004,6.9004,6.9004,6.9004,6.9004,6.9093,6.9153,6.9183,6.9858,7.0127,7.0187,7.0679,7.0889,7.0889,7.0889,7.0889,7.0889,7.0889,7.0889,7.0889,7.0889,7.0889,7.0889,7.0889,7.0889,7.0889,7.0889,7.0889,7.0889,7.0889,7.0889,7.0889,7.0889,7.0889,7.0889,7.0889,7.0889,7.0889,7.0889,7.0889,7.0889,7.0889,7.0889,7.0739,7.0217,7.0127,6.9947,6.9363,6.9213,6.9153,6.9153,6.9064,6.9004,6.9004,6.9004,6.9004,6.9004,6.9004,6.9004,6.9004,6.9004,6.878,6.8317,6.8181,6.8481,6.9123,6.9798,7.038,7.0889,7.0889,7.0889,7.0889,7.0889,7.0889,7.0889,7.0889,7.0889,7.0889,7.0889,7.0889,7.0889,7.0889,7.0889,7.0889,7.0889,7.0889,7.0889,6.9004,6.9468,6.9858,6.9858,7.026,7.0649,7.0739,7.0769,7.0799,7.0889,7.0889,7.0889,7.0889,7.0889,7.0889,7.0889,7.0889,7.0889,7.0889,7.0889,7.0859,7.0769,7.0769,7.0709,7.062,7.0127,6.9558,6.9004,6.9004,6.9004,6.9004,6.9004,6.9004,6.9034,6.9588,6.9858,6.9887,7.05,7.0769,7.0769,7.0859,7.0889,7.0889,7.0889,7.0889,7.0889,7.0889,7.0889,7.0889,7.0889,7.0889,7.0889,7.0889,7.0889,7.0889,7.0889,7.0889,7.0889,7.0889,7.0889,7.0889,7.0889,7.0889,7.0889,7.0889,7.0889,7.0889,7.0889,7.0889,7.0889,7.0889,7.0889,7.0859,7.0769,7.0769,7.0709,7.062,7.0187,6.9858,6.9858,6.9333,6.9004,6.9004,6.9004,6.9004,6.9004,6.9004,6.9004,6.9004,6.9004,6.9213,6.9678,6.9123,6.9169,6.9828,7.044,7.0799,7.0889,7.0889,7.0889,7.0889,7.0889,7.0889,7.0889,7.0889,7.0889,7.0889,7.0889,7.0889,7.0889,7.0889,7.0889,7.0889,7.0889,7.0889,7.0889,7.0021,7.026,7.047,7.047,7.0709,7.0889,7.0889,7.0889,7.0889,7.0889,7.0889,7.0889,7.0889,7.0889,7.0889,7.0889,7.0889,7.0889,7.0889,7.0889,7.0889,7.0889,7.0889,7.0889,7.0889,7.062,7.032,7.0021,7.0021,7.0021,7.0021,7.0021,7.0021,7.0051,7.035,7.047,7.05,7.0769,7.0889,7.0889,7.0889,7.0889,7.0889,7.0889,7.0889,7.0889,7.0889,7.0889,7.0889,7.0889,7.0889,7.0889,7.0889,7.0889,7.0889,7.0889,7.0889,7.0889,7.0889,7.0889,7.0889,7.0889,7.0889,7.0889,7.0889,7.0889,7.0889,7.0889,7.0889,7.0889,7.0889,7.0889,7.0889,7.0889,7.0889,7.0889,7.0889,7.0649,7.047,7.047,7.0201,7.0021,7.0021,7.0021,7.0021,7.0021,7.0021,7.0021,7.0021,7.0021,7.0171,7.0486,7.0171,7.0171,7.047,7.0769,7.0889,7.0889,7.0889,7.0889,7.0889,7.0889,7.0889,7.0889,7.0889,7.0889,7.0889,7.0889,7.0889,7.0889,7.0889,7.0889,7.0889,7.0889,7.0889,7.0889,7.0889,7.0889,7.0889,7.0889,7.0889,7.0889,7.0889,7.0889,7.0889,7.0889,7.0889,7.0889,7.0889,7.0889,7.0889,7.0889,7.0889,7.0889,7.0889,7.0889,7.0889,7.0889,7.0889,7.0889,7.0889,7.0889,7.0889,7.0889,7.0889,7.0889,7.0889,7.0889,7.0889,7.0889,7.0889,7.0889,7.0889,7.0889,7.0889,7.0889,7.0889,7.0889,7.0889,7.0889,7.0889,7.0889,7.0889,7.0889,7.0889,7.0889,7.0889,7.0919,7.1068,7.1128,7.1158,7.1308,7.1351,7.1308,7.0979,7.0889,7.0889,7.0889,7.0889,7.0889,7.0889,7.0889,7.0889,7.0889,7.0889,7.0889,7.0889,7.0889,7.0889,7.0889,7.0889,7.0889,7.0889,7.0889,7.0889,7.0889,7.0889,7.0889,7.0889,7.0889,7.0889,7.0889,7.0889,7.0889,7.0889,7.0889,7.0889,7.0889,7.0889,7.0889,7.0889,7.0889,7.0889,7.0889,7.0889,7.0889,7.0889,7.0889,7.0889,7.0889,7.0889,7.0889,7.0889,7.0889,7.0889,7.0889,7.0889,7.0889,7.0889,7.0889,7.0889,7.0889,7.0889,7.0889,7.0889,7.0889,7.0889,7.0889,7.0889,7.0889,7.0889,7.0889,7.0889,7.0889,7.0889,7.0889,7.0889,7.0889,7.0889,7.0889,7.0889,7.0889,7.0889,7.0889,7.0889,7.0889,7.0889,7.0889,7.0889,7.0889,7.0889,7.0889,7.0889,7.0889,7.0889,7.0889,7.0889,7.0889,7.0889,7.0889,7.0889,7.0889,7.0889,7.0889,7.0889,7.0889,7.0889,7.0889,7.0889,7.0889,7.0889,7.0889,7.0889,7.1009,7.1623,7.1833,7.1953,7.2565,7.2757,7.2488,7.1248,7.0889,7.0889,7.0889,7.0889,7.0889,7.0889,7.0889,7.0889,7.0889,7.0889,7.0889,7.0889,7.0889,7.0889,7.0889,7.0889,7.0889,7.0889,7.0889,7.0889,7.0889,7.0889,7.0889,7.0889,7.0889,7.0889,7.0889,7.0889,7.0889,7.0889,7.0889,7.0889,7.0889,7.0889,7.0889,7.0889,7.0889,7.0889,7.0889,7.0889,7.0889,7.0889,7.0889,7.0889,7.0889,7.0889,7.0889,7.0889,7.0889,7.0889,7.0889,7.0889,7.0889,7.0889,7.0889,7.0889,7.0889,7.0889,7.0889,7.0889,7.0889,7.0889,7.0889,7.0889,7.0889,7.0889,7.0889,7.0889,7.0889,7.0889,7.0889,7.0889,7.0889,7.0889,7.0889,7.0889,7.0889,7.0889,7.0889,7.0889,7.0889,7.0889,7.0889,7.0889,7.0889,7.0889,7.0889,7.0889,7.0889,7.0889,7.0889,7.0889,7.0889,7.0889,7.0889,7.0889,7.0889,7.0889,7.0889,7.0949,7.1368,7.1517,7.1577,7.1996,7.2129,7.2129,7.2129,7.2129,7.2189,7.2445,7.2535,7.2565,7.2817,7.2907,7.2787,7.2279,7.2129,7.2129,7.2129,7.2129,7.2129,7.2129,7.2129,7.2129,7.2129,7.2129,7.2129,7.2129,7.2129,7.1996,7.1577,7.1517,7.1368,7.0949,7.0889,7.0889,7.0889,7.0889,7.0889,7.0889,7.0889,7.0889,7.0889,7.0889,7.0889,7.0889,7.0889,7.0889,7.0889,7.0889,7.0889,7.0889,7.0889,7.0889,7.0889,7.0889,7.0889,7.0889,7.0889,7.0889,7.0889,7.0889,7.0889,7.0889,7.0889,7.0889,7.0889,7.0889,7.0889,7.0889,7.0889,7.0889,7.0889,7.0889,7.0889,7.0889,7.0889,7.0889,7.0889,7.0889,7.0889,7.0979,7.1188,7.1218,7.1278,7.1517,7.1547,7.1547,7.1547,7.1338,7.1218,7.1218,7.1009,7.0889,7.0889,7.0889,7.0889,7.0889,7.0889,7.0889,7.0889,7.0889,7.0889,7.0889,7.0889,7.0889,7.0889,7.0889,7.0889,7.0889,7.0889,7.1009,7.1218,7.1218,7.1338,7.1577,7.2026,7.2206,7.2265,7.2727,7.2907,7.2907,7.2907,7.2907,7.2937,7.3146,7.3373,7.3522,7.3522,7.3522,7.3522,7.3522,7.3522,7.3432,7.2997,7.2907,7.2907,7.2907,7.2907,7.2907,7.2907,7.2907,7.2907,7.2907,7.2907,7.2744,7.2295,7.2206,7.2056,7.1591,7.1547,7.1547,7.1547,7.1547,7.1547,7.1547,7.1547,7.1547,7.1547,7.1547,7.1547,7.1547,7.1547,7.1547,7.1547,7.1308,7.1218,7.1218,7.1009,7.0889,7.0889,7.0889,7.0889,7.0889,7.0889,7.0889,7.0889,7.0889,7.0889,7.0889,7.0889,7.0889,7.0889,7.0889,7.0889,7.0889,7.0889,7.0889,7.0889,7.0889,7.0889,7.0919,7.0919,7.0919,7.0919,7.0919,7.0919,7.1158,7.1833,7.1923,7.2146,7.2817,7.2907,7.2907,7.2907,7.2295,7.1923,7.1923,7.1278,7.0919,7.0919,7.0919,7.0889,7.0889,7.0889,7.0889,7.0889,7.0889,7.0889,7.0889,7.0889,7.0889,7.0919,7.0919,7.0919,7.0919,7.0919,7.1308,7.1923,7.1923,7.2295,7.2907,7.2907,7.2907,7.2907,7.2907,7.2907,7.2907,7.2907,7.2907,7.3027,7.3702,7.4377,7.4886,7.4886,7.4886,7.4886,7.4886,7.4886,7.4587,7.3253,7.2907,7.2907,7.2907,7.2907,7.2907,7.2907,7.2907,7.2907,7.2907,7.2907,7.2907,7.2907,7.2907,7.2907,7.2907,7.2907,7.2907,7.2907,7.2907,7.2907,7.2907,7.2907,7.2907,7.2907,7.2907,7.2907,7.2907,7.2907,7.2907,7.2907,7.2235,7.1923,7.1923,7.1248,7.0889,7.0889,7.0889,7.0889,7.0889,7.0889,7.0889,7.0889,7.0889,7.0889,7.0889,7.0889,7.0889,7.0889,7.0889,7.0889,7.0889,7.0889,7.0889,7.0889,7.0889,7.1278,7.1593,7.1593,7.1996,7.2309,7.2309,7.2309,7.2385,7.2595,7.2595,7.2684,7.2877,7.2907,7.2907,7.2907,7.2727,7.2595,7.2595,7.2398,7.2309,7.2309,7.1381,7.0889,7.0889,7.0889,7.0889,7.0889,7.0889,7.0889,7.0889,7.0889,7.1158,7.1593,7.1593,7.1846,7.2309,7.2309,7.2428,7.2595,7.2595,7.2727,7.2937,7.3432,7.3612,7.3672,7.4121,7.4317,7.4317,7.4317,7.4317,7.4347,7.4527,7.4736,7.4886,7.4886,7.4886,7.4886,7.4886,7.4886,7.4796,7.4407,7.4317,7.4317,7.4317,7.4317,7.4317,7.4317,7.4317,7.4317,7.4317,7.4317,7.4168,7.3672,7.3612,7.3432,7.2967,7.2907,7.2907,7.2907,7.2907,7.2907,7.2907,7.2907,7.2907,7.2907,7.2907,7.2907,7.2907,7.2907,7.2907,7.2907,7.2698,7.2595,7.2595,7.1487,7.0889,7.0889,7.0889,7.0889,7.0889,7.0889,7.0889,7.0889,7.0889,7.0889,7.0889,7.0889,7.0889,7.0889,7.0889,7.0889,7.0889,7.0889,7.0889,7.0889,7.1697,7.2026,7.2295,7.2295,7.2624,7.2907,7.2907,7.2907,7.2997,7.3266,7.3313,7.3402,7.3672,7.3702,7.3702,7.3702,7.3462,7.3176,7.2907,7.2907,7.2907,7.2907,7.2129,7.1697,7.1697,7.1697,7.1697,7.1697,7.1697,7.1697,7.1697,7.1697,7.1906,7.2295,7.2295,7.2535,7.2907,7.2907,7.3057,7.3313,7.3313,7.3462,7.3732,7.4138,7.4317,7.4347,7.4736,7.4886,7.4886,7.4886,7.4886,7.4886,7.4886,7.4886,7.4886,7.4886,7.4886,7.4886,7.4886,7.4886,7.4886,7.4886,7.4886,7.4886,7.4886,7.4886,7.4886,7.4886,7.4886,7.4886,7.4886,7.4886,7.4766,7.4377,7.4317,7.4168,7.3762,7.3702,7.3702,7.3702,7.3702,7.3702,7.3702,7.3702,7.3702,7.3702,7.3702,7.3702,7.3702,7.3702,7.3702,7.3702,7.3432,7.3313,7.3313,7.2235,7.1697,7.1697,7.1697,7.1547,7.1308,7.1308,7.1158,7.0889,7.0889,7.0889,7.0889,7.0889,7.0889,7.0889,7.0889,7.0889,7.0889,7.0889,7.0889,7.0889,7.2907,7.2937,7.2997,7.2997,7.3027,7.3086,7.3086,7.3086,7.3313,7.3911,7.3971,7.4227,7.4826,7.4886,7.4886,7.4886,7.4347,7.3732,7.3133,7.3086,7.3086,7.3086,7.3086,7.3086,7.3086,7.2967,7.2907,7.2907,7.2907,7.2907,7.2907,7.2907,7.2937,7.2997,7.2997,7.3027,7.3086,7.3086,7.3432,7.3971,7.3971,7.4347,7.4886,7.4886,7.4886,7.4886,7.4886,7.4886,7.4886,7.4886,7.4886,7.4886,7.4886,7.4886,7.4886,7.4886,7.4886,7.4886,7.4886,7.4886,7.4886,7.4886,7.4886,7.4886,7.4886,7.4886,7.4886,7.4886,7.4886,7.4886,7.4886,7.4886,7.4886,7.4886,7.4886,7.4886,7.4886,7.4886,7.4886,7.4886,7.4886,7.4886,7.4886,7.4886,7.4886,7.4886,7.4886,7.4886,7.4886,7.4886,7.4886,7.4886,7.4317,7.3971,7.3971,7.3402,7.3027,7.2907,7.2907,7.2595,7.1983,7.1983,7.1607,7.0979,7.0979,7.0949,7.0889,7.0889,7.0889,7.0889,7.0889,7.0889,7.0889,7.0889,7.0889,7.0889,7.2907,7.3326,7.3672,7.3672,7.4138,7.4467,7.4467,7.4467,7.4527,7.4646,7.4676,7.4736,7.4886,7.4886,7.4886,7.4886,7.4766,7.4616,7.4467,7.4467,7.4467,7.4467,7.4467,7.4467,7.4467,7.3432,7.2907,7.2907,7.2907,7.2907,7.2907,7.2907,7.3193,7.3672,7.3672,7.3971,7.4467,7.4467,7.4557,7.4676,7.4676,7.4766,7.4886,7.4886,7.4886,7.4886,7.4886,7.4886,7.4886,7.4886,7.4886,7.4886,7.4886,7.4886,7.4886,7.4886,7.4886,7.4886,7.4886,7.4886,7.4886,7.4886,7.4886,7.4886,7.4886,7.4886,7.4886,7.4886,7.4886,7.4886,7.4886,7.4886,7.4886,7.4886,7.4886,7.4886,7.4886,7.4886,7.4886,7.4886,7.4886,7.4886,7.4886,7.4886,7.4886,7.4886,7.4886,7.4886,7.4886,7.4886,7.4886,7.4886,7.4766,7.4676,7.4676,7.4527,7.3941,7.2907,7.2907,7.2817,7.2684,7.2684,7.2325,7.1683,7.1683,7.1398,7.0889,7.0889,7.0889,7.0889,7.0889,7.0889,7.0889,7.0889,7.0889,7.0889,7.3851,7.4138,7.4377,7.4377,7.4676,7.4886,7.4886,7.4886,7.4886,7.4886,7.4886,7.4886,7.4886,7.4886,7.4886,7.4886,7.4886,7.4886,7.4886,7.4886,7.4886,7.4886,7.4886,7.4886,7.4886,7.4227,7.3851,7.3851,7.3851,7.3851,7.3851,7.3851,7.4031,7.4377,7.4377,7.4557,7.4886,7.4886,7.4886,7.4886,7.4886,7.4886,7.4886,7.4886,7.4886,7.4886,7.4886,7.4886,7.4886,7.4886,7.4886,7.4886,7.4886,7.4886,7.4886,7.4886,7.4886,7.4886,7.4886,7.4886,7.4886,7.4886,7.4886,7.4886,7.4886,7.4886,7.4886,7.4886,7.4886,7.4886,7.4886,7.4886,7.4886,7.4886,7.4886,7.4886,7.4886,7.4886,7.4886,7.4886,7.4886,7.4886,7.4886,7.4886,7.4886,7.4886,7.4886,7.4886,7.4886,7.4886,7.4886,7.4886,7.4886,7.4886,7.4886,7.4886,7.4557,7.3851,7.3851,7.3702,7.3373,7.3373,7.3013,7.2385,7.2385,7.1996,7.1368,7.1368,7.1188,7.0889,7.0889,7.0889,7.0889,7.0889,7.0889,7.0889,7.4886,7.4886,7.4886,7.4886,7.4886,7.4886,7.4886,7.4886,7.4886,7.4886,7.4886,7.4886,7.4886,7.4886,7.4886,7.4886,7.4886,7.4886,7.4886,7.4886,7.4886,7.4886,7.4886,7.4886,7.4886,7.4886,7.4886,7.4886,7.4886,7.4886,7.4886,7.4886,7.4886,7.4886,7.4886,7.4886,7.4886,7.4886,7.4886,7.4886,7.4886,7.4886,7.4886,7.4886,7.4886,7.4886,7.4886,7.4886,7.4886,7.4886,7.4886,7.4886,7.4886,7.4886,7.4886,7.4886,7.4886,7.4886,7.4886,7.4886,7.4886,7.4886,7.4886,7.4886,7.4886,7.4886,7.4886,7.4886,7.4886,7.4886,7.4886,7.4886,7.4886,7.4886,7.4886,7.4886,7.4886,7.4886,7.4886,7.4886,7.4886,7.4886,7.4886,7.4886,7.4886,7.4886,7.4886,7.4886,7.4886,7.4886,7.4886,7.4886,7.4886,7.4886,7.4886,7.4886,7.4886,7.4886,7.4886,7.4616,7.4061,7.4061,7.3702,7.3057,7.3057,7.2684,7.2072,7.2072,7.1683,7.1068,7.1068,7.1009,7.0889,7.0889,7.0889,7.0889,7.4886,7.4886,7.4886,7.4886,7.4886,7.4886,7.4886,7.4886,7.4886,7.4886,7.4886,7.4886,7.4886,7.4886,7.4886,7.4886,7.4886,7.4886,7.4886,7.4886,7.4886,7.4886,7.4886,7.4886,7.4886,7.4886,7.4886,7.4886,7.4886,7.4886,7.4886,7.4886,7.4886,7.4886,7.4886,7.4886,7.4886,7.4886,7.4886,7.4886,7.4886,7.4886,7.4886,7.4886,7.4886,7.4886,7.4886,7.4886,7.4886,7.4886,7.4886,7.4886,7.4886,7.4886,7.4886,7.4886,7.4886,7.4886,7.4886,7.4886,7.4886,7.4886,7.4886,7.4886,7.4886,7.4886,7.4886,7.4886,7.4886,7.4886,7.4886,7.4886,7.4886,7.4886,7.4886,7.4886,7.4886,7.4886,7.4886,7.4886,7.4886,7.4886,7.4886,7.4886,7.4886,7.4886,7.4886,7.4886,7.4886,7.4886,7.4886,7.4886,7.4886,7.4886,7.4886,7.4886,7.4886,7.4886,7.4886,7.4856,7.4766,7.4766,7.4407,7.3762,7.3762,7.3373,7.2757,7.2757,7.2385,7.1773,7.1773,7.1398,7.0889,7.0889,7.0889,7.0889,7.4886,7.4886,7.4886,7.4886,7.4886,7.4886,7.4886,7.4886,7.4886,7.4886,7.4886,7.4886,7.4886,7.4886,7.4886,7.4886,7.4886,7.4886,7.4886,7.4886,7.4886,7.4886,7.4886,7.4886,7.4886,7.4886,7.4886,7.4886,7.4886,7.4886,7.4886,7.4886,7.4886,7.4886,7.4886,7.4886,7.4886,7.4886,7.4886,7.4886,7.4886,7.4886,7.4886,7.4886,7.4886,7.4886,7.4886,7.4886,7.4886,7.4886,7.4886,7.4886,7.4886,7.4886,7.4886,7.4886,7.4886,7.4886,7.4886,7.4886,7.4886,7.4886,7.4886,7.4886,7.4886,7.4886,7.4886,7.4886,7.4886,7.4886,7.4886,7.4886,7.4886,7.4886,7.4886,7.4886,7.4886,7.4886,7.4886,7.4886,7.4886,7.4886,7.4886,7.4886,7.4886,7.4886,7.4886,7.4886,7.4886,7.4886,7.4886,7.4886,7.4886,7.4886,7.4886,7.4886,7.4886,7.4886,7.4886,7.4886,7.4886,7.4886,7.4736,7.4467,7.4467,7.4078,7.3462,7.3462,7.3073,7.2445,7.2445,7.2056,7.1457,7.1457,7.1218,7.0889]},{"header":{"parameterUnit":"m.s-1","parameterCategory":1,"la1":30.6,"la2":28.766,"lo1":-90.7593,"lo2":-88.6598,"dx":0.0162,"dy":0.0183,"nx":116,"ny":114,"refTime":"2022-12-15T18:00:00:Z","depth":0,"parameterNumber":3,"parameterNumberName":"V-component_of_WINDS"},"data":[0.0,0.0,0.0,0.0,0.0,0.0,0.0,0.0,0.0,0.0,0.0,0.0,0.0,0.0,0.0,0.0,0.0,0.0,0.0,0.0,0.0,0.0,0.0,0.0,0.0,0.0,0.0,0.0,0.0,0.0,0.0,0.0,0.0,0.0,0.0,0.0,0.0,0.0,0.0,0.0,0.0,0.0,0.0,0.0,0.0,0.0,0.0,0.0,0.0,0.0,0.0,0.0,0.0,0.0,0.0,0.0,0.0,0.0,0.0,0.0,0.0,0.0,0.0,0.0,0.0,0.0,0.0,0.0,0.0,0.0,0.0,0.0,0.0,0.0,0.0,0.0,0.0,0.0,0.0,0.0,0.0,0.0,0.0,0.0,0.0,0.0,0.0,0.0,0.0,0.0,0.0,0.0,0.0,0.0,0.0,0.0,0.0,0.0,0.0,0.0,0.0,0.0,0.0,0.0,0.0,0.0,0.0,0.0,0.0,0.0,0.0,0.0,0.0,0.0,0.0,0.0,0.0,0.0,0.0,0.0,0.0,0.0,0.0,0.0,0.0,0.0,0.0,0.0,0.0,0.0,0.0,0.0,0.0,0.0,0.0,0.0,0.0,0.0,0.0,0.0,0.0,0.0,0.0,0.0,0.0,0.0,0.0,0.0,0.0,0.0,0.0,0.0,0.0,0.0,0.0,0.0,0.0,0.0,0.0,0.0,0.0,0.0,0.0,0.0,0.0,0.0,0.0,0.0,0.0,0.0,0.0,0.0,0.0,0.0,0.0,0.0,0.0,0.0,0.0,0.0,0.0,0.0,0.0,0.0,0.0,0.0,0.0,0.0,0.0,0.0,0.0,0.0,0.0,0.0,0.0,0.0,0.0,0.0,0.0,0.0,0.0,0.0,0.0,0.0,0.0,0.0,0.0,0.0,0.0,0.0,0.0,0.0,0.0,0.0,0.0,0.0,0.0,0.0,0.0,0.0,0.0,0.0,0.0,0.0,0.0,0.0,0.0,0.0,0.0,0.0,0.0,0.0,0.0,0.0,0.0,0.0,0.0,0.0,0.0,0.0,0.0,0.0,0.0,0.0,0.0,0.0,0.0,0.0,0.0,0.0,0.0,0.0,0.0,0.0,0.0,0.0,0.0,0.0,0.0,0.0,0.0,0.0,0.0,0.0,0.0,0.0,0.0,0.0,0.0,0.0,0.0,0.0,0.0,0.0,0.0,0.0,0.0,0.0,0.0,0.0,0.0,0.0,0.0,0.0,0.0,0.0,0.0,0.0,0.0,0.0,0.0,0.0,0.0,0.0,0.0,0.0,0.0,0.0,0.0,0.0,0.0,0.0,0.0,0.0,0.0,0.0,0.0,0.0,0.0,0.0,0.0,0.0,0.0,0.0,0.0,0.0,0.0,0.0,0.0,0.0,0.0,0.0,0.0,0.0,0.0,0.0,0.0,0.0,0.0,0.0,0.0,0.0,0.0,0.0,0.0,0.0,0.0,0.0,0.0,0.0,0.0,0.0,0.0,0.0,0.0,0.0,0.0,0.0,0.0,0.0,0.0,0.0,0.0,0.0,0.0,0.0,0.0,0.0,0.0,0.0,0.0,0.0,0.0,0.0,0.0,0.0,0.0,0.0,0.0,0.0,0.0,0.0,0.0,0.0,0.0,0.0,0.0,0.0,0.0,0.0,0.0,0.0,0.0,0.0,0.0,0.0,0.0,0.0,0.0,0.0,0.0,0.0,0.0,0.0,0.0,0.0,0.0,0.0,0.0,0.0,0.0,0.0,0.0,0.0,0.0,0.0,0.0,0.0,0.0,0.0,0.0,0.0,0.0,0.0,0.0,0.0,0.0,0.0,0.0,0.0,0.0,0.0,0.0,0.0,0.0,0.0,0.0,0.0,0.0,0.0,0.0,0.0,0.0,0.0,0.0,0.0,0.0,0.0,0.0,0.0,0.0,0.0,0.0,0.0,0.0,0.0,0.0,0.0,0.0,0.0,0.0,0.0,0.0,0.0,0.0,0.0,0.0,0.0,0.0,0.0,0.0,0.0,0.0,0.0,0.0,0.0,0.0,0.0,0.0,0.0,0.0,0.0,0.0,0.0,0.0,0.0,0.0,0.0,0.0,0.0,0.0,0.0,0.0,0.0,0.0,0.0,0.0,0.0,0.0,0.0,0.0,0.0,0.0,0.0,0.0,0.0,0.0,0.0,0.0,0.0,0.0,0.0,0.0,0.0,0.0,0.0,0.0,0.0,0.0,0.0,0.0,0.0,0.0,0.0,0.0,0.0,0.0,0.0,0.0,0.0,0.0,0.0,0.0,0.0,0.0,0.0,0.0,0.0,0.0,0.0,0.0,0.0,0.0,0.0,0.0,0.0,0.0,0.0,0.0,0.0,0.0,0.0,0.0,0.0,0.0,0.0,0.0,0.0,0.0,0.0,0.0,0.0,0.0,0.0,0.0,0.0,0.0,0.0,0.0,0.0,0.0,0.0,0.0,0.0,0.0,0.0,0.0,0.0,0.0,0.0,0.0,0.0,0.0,0.0,0.0,0.0,0.0,0.0,0.0,0.0,0.0,0.0,0.0,0.0,0.0,0.0,0.0,0.0,0.0,0.0,0.0,0.0,0.0,0.0,0.0,0.0,0.0,0.0,0.0,0.0,0.0,0.0,0.0,0.0,0.0,0.0,0.0,0.0,0.0,0.0,0.0,0.0,0.0,0.0,0.0,0.0,0.0,0.0,0.0,0.0,0.0,0.0,0.0,0.0,0.0,0.0,0.0,0.0,0.0,0.0,0.0,0.0,0.0,0.0,0.0,0.0,0.0,0.0,0.0,0.0,0.0,0.0,0.0,0.0,0.0,0.0,0.0,0.0,0.0,0.0,0.0,0.0,0.0,0.0,0.0,0.0,0.0,0.0,0.0,0.0,0.0,0.0,0.0,0.0,0.0,0.0,0.0,0.0,0.0,0.0,0.0,0.0,0.0,0.0,0.0,0.0,0.0,0.0,0.0,0.0,0.0,0.0,0.0,0.0,0.0,0.0,0.0,0.0,0.0,0.0,0.0,0.0,0.0,0.0,0.0,0.0,0.0,0.0,0.0,0.0,0.0,0.0,0.0,0.0,0.0,0.0,0.0,0.0,0.0,0.0,0.0,0.0,0.0,0.0,0.0,0.0,0.0,0.0,0.0,0.0,0.0,0.0,0.0,0.0,0.0,0.0,0.0,0.0,0.0,0.0,0.0,0.0,0.0,0.0,0.0,0.0,0.0,0.0,0.0,0.0,0.0,0.0,0.0,0.0,0.0,0.0,0.0,0.0,0.0,0.0,0.0,0.0,0.0,0.0,0.0,0.0,0.0,0.0,0.0,0.0,0.0,0.0,0.0,0.0,0.0,0.0,0.0,0.0,0.0,0.0,0.0,0.0,0.0,0.0,0.0,0.0,0.0,0.0,0.0,0.0,0.0,0.0,0.0,0.0,0.0,0.0,0.0,0.0,0.0,0.0,0.0,0.0,0.0,0.0,0.0,0.0,0.0,0.0,0.0,0.0,0.0,0.0,0.0,0.0,0.0,0.0,0.0,0.0,0.0,0.0,0.0,0.0,0.0,0.0,0.0,0.0,0.0,0.0,0.0,0.0,0.0,0.0,0.0,0.0,0.0,0.0,0.0,0.0,0.0,0.0,0.0,0.0,0.0,0.0,0.0,0.0,0.0,0.0,0.0,0.0,0.0,0.0,0.0,0.0,0.0,0.0,0.0,0.0,0.0,0.0,0.0,0.0,0.0,0.0,0.0,0.0,0.0,0.0,0.0,0.0,0.0,0.0,0.0,0.0,0.0,0.0,0.0,0.0,0.0,0.0,0.0,0.0,0.0,0.0,0.0,0.0,0.0,0.0,0.0,0.0,0.0,0.0,0.0,0.0,0.0,0.0,0.0,0.0,0.0,0.0,0.0,0.0,0.0,0.0,0.0,0.0,0.0,0.0,0.0,0.0,0.0,0.0,0.0,0.0,0.0,0.0,0.0,0.0,0.0,0.0,0.0,0.0,0.0,0.0,0.0,0.0,0.0,0.0,0.0,0.0,0.0,0.0,0.0,0.0,0.0,0.0,0.0,0.0,0.0,0.0,0.0,0.0,0.0,0.0,0.0,0.0,0.0,0.0,0.0,0.0,0.0,0.0,0.0,0.0,0.0,0.0,0.0,0.0,0.0,0.0,0.0,0.0,0.0,0.0,0.0,0.0,0.0,0.0,0.0,0.0,0.0,0.0,0.0,0.0,0.0,0.0,0.0,0.0,0.0,0.0,0.0,0.0,0.0,0.0,0.0,0.0,0.0,0.0,0.0,0.0,0.0,0.0,0.0,0.0,0.0,0.0,0.0,0.0,0.0,0.0,0.0,0.0,0.0,0.0,0.0,0.0,0.0,0.0,0.0,0.0,0.0,0.0,0.0,0.0,0.0,0.0,0.0,0.0,0.0,0.0,0.0,0.0,0.0,0.0,0.0,0.0,0.0,0.0,0.0,0.0,0.0,0.0,0.0,0.0,0.0,0.0,0.0,0.0,0.0,0.0,0.0,0.0,0.0,0.0,0.0,0.0,0.0,0.0,0.0,0.0,0.0,0.0,0.0,0.0,0.0,0.0,0.0,0.0,0.0,0.0,0.0,0.0,0.0,0.0,0.0,0.0,0.0,0.0,0.0,0.0,0.0,0.0,0.0,0.0,0.0,0.0,0.0,0.0,0.0,0.0,0.0,0.0,0.0,0.0,0.0,0.0,0.0,0.0,0.0,0.0,0.0,0.0,0.0,0.0,0.0,0.0,0.0,0.0,0.0,0.0,0.0,0.0,0.0,0.0,0.0,0.0,0.0,0.0,0.0,0.0,0.0,0.0,0.0,0.0,0.0,0.0,0.0,0.0,0.0,0.0,0.0,0.0,0.0,0.0,0.0,0.0,0.0,0.0,0.0,0.0,0.0,0.0,0.0,0.0,0.0,0.0,0.0,0.0,0.0,0.0,0.0,0.0,0.0,0.0,0.0,0.0,0.0,0.0,0.0,0.0,0.0,0.0,0.0,0.0,0.0,0.0,0.0,0.0,0.0,0.0,0.0,0.0,0.0,0.0,0.0,0.0,0.0,0.0,0.0,0.0,0.0,0.0,0.0,0.0,0.0,0.0,0.0,0.0,0.0,0.0,0.0,0.0,0.0,0.0,0.0,0.0,0.0,0.0,0.0,0.0,0.0,0.0,0.0,0.0,0.0,0.0,0.0,0.0,0.0,0.0,0.0,0.0,0.0,0.0,0.0,0.0,0.0,0.0,0.0,0.0,0.0,0.0,0.0,0.0,0.0,0.0,0.0,0.0,0.0,0.0,0.0,0.0,0.0,0.0,0.0,0.0,0.0,0.0,0.0,0.0,0.0,0.0,0.0,0.0,0.0,0.0,0.0,0.0,0.0,0.0,0.0,0.0,0.0,0.0,0.0,0.0,0.0,0.0,0.0,0.0,0.0,0.0,0.0,0.0,0.0,0.0,0.0,0.0,0.0,0.0,0.0,0.0,0.0,0.0,0.0,0.0,0.0,0.0,0.0,0.0,0.0,0.0,0.0,0.0,0.0,0.0,0.0,0.0,0.0,0.0,0.0,0.0,0.0,0.0,0.0,0.0,0.0,0.0,0.0,0.0,0.0,0.0,0.0,0.0,0.0,0.0,0.0,0.0,0.0,0.0,0.0,0.0,0.0,0.0,0.0,0.0,0.0,0.0,0.0,0.0,0.0,0.0,0.0,0.0,0.0,0.0,0.0,0.0,0.0,0.0,0.0,0.0,0.0,0.0,0.0,0.0,0.0,0.0,0.0,0.0,0.0,0.0,0.0,0.0,0.0,0.0,0.0,0.0,0.0,0.0,0.0,0.0,0.0,0.0,0.0,0.0,0.0,0.0,0.0,0.0,0.0,0.0,0.0,0.0,0.0,0.0,0.0,0.0,0.0,0.0,0.0,0.0,0.0,0.0,0.0,0.0,0.0,0.0,0.0,0.0,0.0,0.0,0.0,0.0,0.0,0.0,0.0,0.0,0.0,0.0,0.0,0.0,0.0,0.0,0.0,0.0,0.0,0.0,0.0,0.0,1.9424,1.8407,0.0,0.0,0.0,0.0,0.0,0.0,0.0,0.0,0.0,0.0,0.0,0.0,0.0,0.0,0.0,0.0,0.0,0.0,0.0,0.0,0.0,0.0,0.0,1.1774,1.1881,1.1881,1.2087,0.0,0.0,0.0,0.0,0.0,0.0,0.0,1.2814,1.2827,1.3249,1.4121,1.4121,1.446,1.5059,1.4858,1.4636,1.4427,0.0,0.0,0.0,0.0,0.0,0.0,0.0,0.0,0.0,0.0,0.0,0.0,0.0,0.0,0.0,0.0,0.0,0.0,0.0,0.0,0.0,0.0,0.0,0.0,0.0,0.0,0.0,0.0,0.0,0.0,0.0,0.0,0.0,0.0,0.0,0.0,0.0,0.0,0.0,0.0,0.0,0.0,0.0,0.0,0.0,0.0,0.0,0.0,0.0,0.0,0.0,0.0,0.0,0.0,0.0,0.0,0.0,0.0,0.0,0.0,0.0,0.0,0.0,0.0,0.0,0.0,0.0,0.0,0.0,0.0,2.2084,2.1207,0.0,0.0,0.0,0.0,0.0,0.0,0.0,0.0,0.0,0.0,0.0,0.0,0.0,0.0,0.0,0.0,0.0,0.0,0.0,0.0,0.0,1.1732,1.1811,1.2109,1.232,1.232,1.2734,1.3001,1.3001,1.3079,1.3118,1.3118,1.3118,1.3301,1.373,1.373,1.416,1.5021,1.5178,1.5667,1.6429,1.6488,1.6148,1.5456,1.5151,0.0,0.0,0.0,0.0,0.0,0.0,0.0,0.0,0.0,0.0,0.0,0.0,0.0,0.0,0.0,0.0,0.0,0.0,0.0,0.0,0.0,0.0,0.0,0.0,0.0,0.0,0.0,0.0,0.0,0.0,0.0,0.0,0.0,0.0,0.0,0.0,0.0,0.0,0.0,0.0,0.0,0.0,0.0,0.0,0.0,0.0,0.0,0.0,0.0,0.0,0.0,0.0,0.0,0.0,0.0,0.0,0.0,0.0,0.0,0.0,0.0,0.0,0.0,2.4406,2.4706,2.611,2.5127,2.5202,2.6089,2.5039,2.4414,2.4082,2.3348,0.0,0.0,0.0,0.0,0.0,0.0,0.0,0.0,0.0,0.0,0.0,0.0,0.0,0.0,0.0,0.0,0.0,0.0,0.0,1.2274,1.2668,1.2772,1.2811,1.2811,1.3184,1.3418,1.3418,1.3756,1.3938,1.3938,1.3938,1.4166,1.4623,1.4623,1.506,1.5936,1.6684,1.7293,1.7773,1.8108,1.8216,1.8041,1.6578,1.5936,1.5877,0.0,0.0,0.0,0.0,0.0,0.0,0.0,0.0,0.0,0.0,0.0,0.0,0.0,0.0,0.0,0.0,0.0,0.0,0.0,0.0,0.0,0.0,0.0,0.0,0.0,0.0,0.0,0.0,0.0,0.0,0.0,0.0,0.0,0.0,0.0,0.0,0.0,0.0,0.0,0.0,0.0,1.9766,2.0283,0.0,0.0,0.0,0.0,0.0,0.0,0.0,0.0,0.0,0.0,0.0,0.0,0.0,2.5051,2.5445,2.5491,2.5932,2.6745,2.6593,2.7014,2.7949,2.7791,2.7804,2.7949,2.7786,0.0,2.5433,2.5328,0.0,0.0,0.0,0.0,0.0,0.0,0.0,0.0,0.0,0.0,0.0,0.0,0.0,0.0,0.0,0.0,0.0,0.0,0.0,0.0,0.0,1.3248,1.334,1.3542,1.3737,1.3848,1.3848,1.4244,1.4485,1.4485,1.4706,1.5051,1.5517,1.5742,1.6418,1.7519,1.8379,1.8906,1.9073,1.9512,1.9727,1.9687,1.8953,1.8209,1.7461,1.6609,0.0,0.0,0.0,0.0,0.0,0.0,0.0,0.0,0.0,0.0,0.0,0.0,0.0,0.0,0.0,0.0,0.0,0.0,0.0,0.0,0.0,0.0,0.0,0.0,0.0,0.0,0.0,0.0,0.0,0.0,0.0,0.0,0.0,0.0,0.0,0.0,0.0,0.0,0.0,2.0147,2.0801,2.127,2.1884,2.2273,0.0,0.0,0.0,0.0,0.0,0.0,0.0,0.0,0.0,2.6145,2.6184,2.6484,2.7155,2.7155,2.7467,2.8073,2.8073,2.8418,2.9018,2.9018,2.9018,2.9018,2.9018,2.8607,2.7832,2.7109,2.6562,2.6145,0.0,0.0,0.0,0.0,2.5132,2.5113,0.0,0.0,0.0,0.0,0.0,0.0,0.0,0.0,0.0,0.0,0.0,0.0,1.3457,1.3509,1.3652,1.4062,1.4302,1.4426,1.4426,1.4973,1.5339,1.5464,1.5742,1.6172,1.6742,1.7249,1.8091,1.9269,1.9913,2.0293,2.042,2.0762,2.0928,2.0928,2.0928,2.0244,1.9064,1.8223,1.7676,1.7327,0.0,0.0,0.0,0.0,0.0,0.0,0.0,0.0,0.0,0.0,0.0,0.0,0.0,0.0,0.0,0.0,0.0,0.0,0.0,0.0,0.0,0.0,0.0,0.0,0.0,0.0,0.0,0.0,0.0,0.0,0.0,0.0,0.0,0.0,0.0,0.0,0.0,2.1445,2.1884,2.2335,2.3016,2.3482,0.0,0.0,0.0,0.0,0.0,0.0,2.603,2.6245,2.6713,2.7467,2.7487,2.7871,2.8627,2.8627,2.8828,2.9224,2.9224,2.9473,2.9931,3.0048,3.0092,3.0092,3.0224,3.0263,3.0146,2.8758,2.7904,2.7467,2.7168,2.6765,2.6362,2.6362,2.6362,2.6362,0.0,0.0,0.0,0.0,0.0,0.0,0.0,0.0,0.0,0.0,0.0,1.3059,1.3457,1.3509,1.3652,1.4062,1.4862,1.5337,1.5337,1.6122,1.68,1.7243,1.7282,1.7676,1.847,1.9318,2.0176,2.1064,2.1112,2.1366,2.1807,2.1827,2.1827,2.1827,2.1827,2.1329,2.0439,1.9569,1.9189,1.91,1.8242,0.0,0.0,0.0,0.0,0.0,0.0,0.0,0.0,0.0,0.0,0.0,0.0,0.0,0.0,0.0,0.0,0.0,0.0,0.0,0.0,0.0,0.0,0.0,0.0,0.0,0.0,0.0,0.0,0.0,0.0,0.0,0.0,0.0,0.0,0.0,0.0,0.0,0.0,2.3663,2.4082,0.0,0.0,0.0,0.0,2.5628,2.644,2.6921,2.6928,2.7715,2.8359,2.8795,2.8814,2.9043,2.952,2.954,2.9755,3.0137,3.0137,3.0371,3.0854,3.1216,3.1411,3.143,3.187,3.2061,3.1944,3.0204,2.9232,2.8814,2.8775,2.8535,2.8164,2.8164,2.8164,2.8164,0.0,0.0,0.0,0.0,0.0,1.1529,1.21,1.2455,1.2793,1.3223,1.3287,1.3555,1.4265,1.457,1.4895,1.5346,1.591,1.6371,1.6668,1.7218,1.7718,1.8147,1.8702,1.9405,2.0255,2.0576,2.1035,2.166,2.1904,2.2108,2.2294,2.2548,2.2674,2.2674,2.2674,2.2498,2.2127,2.0996,2.0527,2.0449,1.9571,1.8878,0.0,0.0,0.0,0.0,0.0,0.0,0.0,0.0,0.0,0.0,0.0,0.0,0.0,0.0,0.0,0.0,0.0,0.0,0.0,0.0,0.0,0.0,0.0,0.0,0.0,0.0,0.0,0.0,0.0,0.0,0.0,0.0,0.0,0.0,0.0,0.0,0.0,2.4613,2.5266,0.0,2.6289,2.6607,2.7044,2.7708,2.804,2.8346,2.8666,2.8973,2.9311,2.9726,3.0039,3.0391,3.082,3.1108,3.1358,3.1494,3.1494,3.1558,3.1749,3.189,3.1949,3.1968,3.214,3.2198,3.2159,3.1534,3.0835,3.0156,2.9849,2.9492,2.9149,2.9149,2.9149,2.9149,0.0,0.0,0.0,0.0,1.1389,1.1786,1.2357,1.2701,1.304,1.3457,1.3509,1.388,1.489,1.5247,1.5637,1.6238,1.6828,1.7327,1.7773,1.8331,1.8888,1.9455,2.0176,2.0908,2.161,2.164,2.1854,2.2294,2.2734,2.2949,2.2949,2.3357,2.3541,2.3541,2.3541,2.3541,2.3463,2.2498,2.1913,2.1581,2.0869,2.0322,1.9902,0.0,0.0,0.0,0.0,0.0,0.0,0.0,0.0,0.0,0.0,0.0,0.0,0.0,0.0,0.0,0.0,0.0,0.0,0.0,0.0,0.0,0.0,0.0,0.0,0.0,0.0,0.0,0.0,0.0,0.0,0.0,0.0,0.0,0.0,2.4668,2.5422,2.5696,2.638,2.7044,2.7585,2.793,2.8392,2.9082,2.9263,2.9551,3.0014,3.017,3.0444,3.0854,3.1167,3.1523,3.1938,3.2261,3.2476,3.2613,3.2613,3.2613,3.2613,3.2785,3.2843,3.2843,3.2984,3.3043,3.3023,3.2902,3.2496,3.191,3.1167,3.0698,3.0478,3.0478,3.0478,3.0478,0.0,0.0,0.0,1.1444,1.1601,1.1909,1.2772,1.2909,1.3053,1.347,1.3529,1.4017,1.5278,1.5435,1.5786,1.6668,1.7514,1.8205,1.8637,1.9454,2.0313,2.12,2.168,2.212,2.2509,2.2518,2.2732,2.3131,2.3594,2.382,2.3839,2.4227,2.4402,2.4402,2.4402,2.4402,2.4371,2.3984,2.334,2.2528,2.209,2.166,2.1229,0.0,0.0,0.0,0.0,0.0,0.0,0.0,0.0,0.0,0.0,0.0,0.0,0.0,0.0,0.0,0.0,0.0,0.0,0.0,0.0,0.0,0.0,0.0,0.0,0.0,0.0,0.0,0.0,0.0,0.0,0.0,0.0,0.0,2.5219,2.5515,2.6096,2.696,2.7474,2.8073,2.8873,2.8951,2.916,2.9618,3.0034,3.0449,3.0932,3.1313,3.1758,3.2198,3.2237,3.2452,3.2847,3.2851,3.3066,3.3441,3.3461,3.3445,3.348,3.3961,3.4173,3.4176,3.457,3.4746,3.4707,3.4313,3.4173,3.4036,3.2746,3.2237,3.2237,3.2237,3.2237,3.2237,0.0,0.0,0.0,1.1497,1.1847,1.2221,1.2811,1.3157,1.347,1.388,1.4232,1.4819,1.5804,1.6164,1.6695,1.757,1.8127,1.8888,1.998,2.0273,2.0928,2.2088,2.2275,2.2528,2.2917,2.327,2.3507,2.3613,2.4032,2.4227,2.4227,2.4344,2.4402,2.4402,2.4402,2.4402,2.4391,2.4285,2.409,2.3797,2.2743,2.2255,2.2108,0.0,0.0,0.0,0.0,0.0,0.0,0.0,0.0,0.0,0.0,0.0,0.0,0.0,0.0,0.0,0.0,0.0,0.0,0.0,0.0,0.0,0.0,0.0,0.0,0.0,0.0,0.0,0.0,0.0,0.0,0.0,2.6569,2.6596,2.6491,2.7129,2.778,2.8307,2.8783,2.9285,2.9785,3.0156,3.0527,3.0957,3.1401,3.171,3.1846,3.2207,3.25,3.2633,3.3238,3.3645,3.3727,3.4023,3.4238,3.4355,3.4687,3.4844,3.4863,3.5293,3.5488,3.5471,3.5589,3.5647,3.5628,3.551,3.5488,3.5332,3.3695,3.307,3.307,3.307,3.307,3.307,0.0,0.0,0.0,1.1763,1.2034,1.2365,1.2825,1.3242,1.3639,1.4055,1.4505,1.519,1.6238,1.6566,1.7116,1.8158,1.8801,1.963,2.0791,2.1348,2.1992,2.2713,2.2752,2.2947,2.3376,2.3652,2.3867,2.4043,2.4473,2.4785,2.4957,2.5144,2.532,2.5496,2.5496,2.5398,2.5222,2.5027,2.4851,2.4609,2.3661,2.3192,2.3027,2.2773,2.2305,2.1746,2.1746,2.1484,2.1133,2.1133,0.0,0.0,0.0,0.0,0.0,0.0,0.0,0.0,0.0,0.0,0.0,0.0,0.0,0.0,0.0,0.0,0.0,0.0,0.0,0.0,0.0,0.0,0.0,0.0,2.7682,2.7916,2.8287,2.8463,2.8756,2.9361,2.9858,3.0307,3.0703,3.1187,3.1616,3.2016,3.23,3.2593,3.298,3.3219,3.3434,3.3594,3.4274,3.4723,3.4883,3.5312,3.5605,3.5781,3.6055,3.6208,3.6191,3.6445,3.6545,3.6545,3.6545,3.6545,3.6545,3.6545,3.6545,3.6408,0.0,0.0,0.0,0.0,3.4495,3.4495,1.1626,1.164,1.1774,1.2145,1.2237,1.243,1.285,1.3281,1.3698,1.4049,1.4544,1.5339,1.6578,1.6707,1.7233,1.8559,1.9435,2.0313,2.1268,2.2449,2.3101,2.3101,2.3101,2.3318,2.3781,2.3828,2.4062,2.4481,2.4992,2.5422,2.5796,2.625,2.666,2.6999,2.6999,2.6804,2.6438,2.603,2.5613,2.52,2.4805,2.4324,2.3878,2.3878,2.3359,2.2645,2.2645,2.2383,2.2042,2.2042,0.0,0.0,0.0,0.0,0.0,0.0,0.0,0.0,0.0,0.0,0.0,0.0,0.0,0.0,0.0,0.0,0.0,0.0,0.0,0.0,0.0,0.0,0.0,0.0,2.8867,2.94,3.0234,2.9726,2.9537,3.0254,3.0776,3.1191,3.1606,3.2051,3.2511,3.2926,3.2988,3.3375,3.4212,3.4274,0.0,0.0,0.0,3.5781,3.6135,3.656,3.6951,3.7305,3.7402,3.7441,3.7441,3.7539,3.7598,3.7598,3.7598,3.7598,3.7598,3.7598,3.7598,3.75,3.6543,3.6155,3.6155,3.6155,3.6155,3.6155,1.1738,1.1867,1.2112,1.2184,1.2508,1.2805,1.2889,1.3529,1.401,1.4088,1.4784,1.5657,1.659,1.6707,1.7366,1.9023,1.9629,2.0576,2.2157,2.278,2.3101,2.3101,2.3101,2.3318,2.3781,2.4121,2.4512,2.4965,2.5754,2.6184,2.6269,2.6699,2.6921,2.6999,2.6999,2.696,2.6882,2.6784,2.6523,2.6145,2.6047,2.5312,2.4285,2.4285,2.3984,2.3546,2.3546,2.3262,2.2869,2.2869,2.2654,2.2372,2.2275,2.2021,0.0,0.0,0.0,0.0,0.0,0.0,0.0,0.0,0.0,0.0,0.0,0.0,0.0,0.0,0.0,0.0,0.0,0.0,0.0,2.9687,3.0215,3.0684,3.1177,3.1441,3.148,3.1274,3.166,3.212,3.25,3.2914,3.3359,3.3805,3.4157,3.457,3.5134,3.5469,3.584,3.6287,3.6716,3.6973,3.7051,3.7129,3.7226,3.7305,3.8026,0.0,3.8377,3.9081,3.9394,3.9394,3.9394,3.9394,3.9394,3.9394,3.9394,3.9238,3.7656,3.7051,3.7051,3.7051,3.7051,3.7051,1.2334,1.2414,1.2553,1.2553,1.2734,1.2909,1.2909,1.3581,1.4107,1.4107,1.4862,1.572,1.6609,1.6918,1.7656,1.9178,2.0273,2.1435,2.2713,2.2995,2.3101,2.3101,2.3101,2.3404,2.4102,2.4305,2.4734,2.541,2.6067,2.6504,2.6719,2.7161,2.7461,2.7656,2.7656,2.7539,2.7357,2.7357,2.7103,2.668,2.6477,2.5996,2.5352,2.4914,2.4473,2.4102,2.4102,2.3817,2.3446,2.3446,2.3162,2.281,2.281,2.2654,2.2509,0.0,0.0,0.0,0.0,0.0,0.0,0.0,0.0,0.0,0.0,0.0,0.0,0.0,0.0,2.8014,2.8275,0.0,2.9766,3.043,3.0918,3.1411,3.2055,3.2519,3.2637,3.2192,3.2539,3.2969,3.3414,3.4023,3.459,3.5019,3.5466,3.5896,3.6328,3.6543,3.6758,3.699,3.7615,3.7948,3.7948,3.8379,3.8594,3.8613,3.9023,3.9257,3.9276,3.9687,3.9902,3.9902,3.9902,3.9902,3.9902,3.9902,3.9902,3.9805,3.8945,3.8594,3.8594,3.8594,3.8594,3.8594,1.2909,1.2909,1.2909,1.2909,1.2909,1.2909,1.2909,1.3529,1.401,1.4088,1.4784,1.5657,1.659,1.7043,1.7879,1.9413,2.0996,2.2246,2.3053,2.3101,2.3101,2.3101,2.3101,2.3502,2.4371,2.4402,2.482,2.5706,2.6172,2.6602,2.7018,2.7487,2.7917,2.8314,2.8314,2.8119,2.7819,2.7819,2.7552,2.7109,2.6777,2.6555,2.6321,2.563,2.5012,2.4551,2.4551,2.4277,2.3917,2.3917,2.3661,2.3346,2.3346,2.3346,2.3346,2.3346,2.361,0.0,0.0,0.0,0.0,0.0,0.0,0.0,0.0,2.6523,2.737,2.737,2.8326,2.9146,2.9146,2.9849,3.0586,3.0957,3.1504,3.2114,3.2812,3.3344,3.3597,3.3437,3.3636,3.3984,3.443,3.5192,3.582,3.6213,3.6601,3.7029,3.7537,3.7539,3.7617,3.7793,3.8495,3.8846,3.8846,3.955,3.9902,3.9902,3.998,4.0019,4.0019,4.0098,4.0137,4.0137,4.0137,4.0137,4.0137,4.0137,4.0137,4.0137,4.0137,4.0137,4.0117,3.9961,3.9902,3.9902,1.2909,1.2909,1.2909,1.2909,1.2909,1.2909,1.2909,1.3281,1.3698,1.4049,1.4544,1.5339,1.6578,1.6754,1.7776,2.0243,2.1329,2.2246,2.3053,2.3101,2.3101,2.3101,2.3101,2.3502,2.4371,2.4402,2.482,2.5706,2.6172,2.6602,2.7018,2.7487,2.7917,2.8314,2.8314,2.8275,2.8236,2.8236,2.8015,2.7624,2.7565,2.7096,2.6399,2.6282,2.5747,2.5024,2.5024,2.4719,2.4344,2.4344,2.4305,2.4254,2.4254,2.4254,2.4254,2.4254,2.4305,2.4344,2.4344,2.4668,2.5219,2.5989,2.6484,2.6894,0.0,2.8066,2.8697,2.8697,2.9434,3.0059,3.0059,3.0781,3.1372,3.143,3.2426,3.3226,3.3324,3.4027,3.4824,3.555,3.5371,3.5332,3.5745,3.625,3.6716,3.7129,3.7207,3.7596,3.8416,3.8456,3.8807,3.957,3.9707,3.9746,3.9746,3.9844,3.9902,3.9902,4.0254,4.043,4.045,4.0859,4.1054,4.1054,4.1054,4.1054,4.1054,4.1054,4.1054,4.1054,4.1054,4.1054,4.0957,4.0195,3.9902,3.9902,1.2909,1.2909,1.2909,1.2909,1.2909,1.2909,1.2909,1.3242,1.3639,1.4055,1.4505,1.519,1.6246,1.723,1.8557,2.0439,2.1387,2.2129,2.2713,2.2975,2.3101,2.3101,2.3101,2.3502,2.4371,2.4402,2.482,2.5706,2.6172,2.6497,2.666,2.709,2.7532,2.7956,2.7956,2.808,2.8314,2.8314,2.8073,2.7676,2.7396,2.6934,2.638,2.6113,2.5769,2.5476,2.5754,2.5403,0.0,2.5086,2.482,2.4402,2.4402,2.459,2.4816,2.4816,2.5168,2.5625,2.5847,2.6262,2.6698,2.7076,2.7637,2.8151,2.8359,2.9043,2.9668,2.9668,3.0351,3.0976,3.0976,3.1484,3.2051,3.2524,3.3035,3.3675,3.4437,3.5081,3.5686,3.6328,3.668,3.6836,3.6777,3.7148,3.7578,3.8026,3.8262,3.8672,3.9335,3.9354,3.9512,3.9883,4.0137,4.0235,4.0235,4.0508,4.0664,4.0664,4.0839,4.0898,4.0898,4.1113,4.1191,4.1191,4.1191,4.1191,4.1191,4.1191,4.1191,4.1191,4.1191,4.1191,4.1152,4.08,4.0664,4.0664,1.2909,1.2909,1.2909,1.2909,1.2909,1.2909,1.2909,1.3157,1.347,1.388,1.4329,1.5027,1.6148,1.757,1.8966,2.0293,2.1094,2.1807,2.245,2.2771,2.2995,2.3092,2.3101,2.3463,2.4227,2.4332,2.4762,2.5523,2.5996,2.6269,2.6399,2.6699,2.707,2.7506,2.7506,2.7669,2.793,2.793,2.7767,2.7487,2.7148,2.6758,2.636,2.6023,2.5803,2.5745,2.6081,2.5891,2.5512,2.5789,2.5542,2.5125,2.5125,2.5352,2.5649,2.5779,2.634,2.7012,2.7409,2.7773,2.806,2.8191,2.8744,2.9263,2.9263,2.9844,3.043,3.0527,3.1059,3.1548,3.168,3.2148,3.2715,3.3304,3.3714,3.432,3.541,3.5937,3.6406,3.697,3.7656,3.8027,3.7832,3.8105,3.8439,3.8925,3.9219,3.959,4.0039,4.0078,4.0117,4.0234,4.0547,4.0684,4.0684,4.1035,4.1191,4.1191,4.1191,4.1191,4.1191,4.1191,4.1191,4.1191,4.1191,4.1191,4.1191,4.1191,4.1191,4.1191,4.1191,4.1191,4.1191,4.1191,4.1191,4.1191,1.2909,1.2909,1.2909,1.2909,1.2909,1.2909,1.2909,1.2909,1.3053,1.347,1.386,1.4777,1.6492,1.7483,1.8526,1.9815,2.0371,2.1172,2.2411,2.2509,2.2693,2.3081,2.3101,2.3337,2.382,2.4188,2.4629,2.5133,2.5515,2.5952,2.6399,2.6419,2.6641,2.7018,2.7018,2.7038,2.7038,2.7038,2.7038,2.7018,2.7018,2.6758,2.6399,2.6367,2.6113,2.5706,2.5725,2.6003,2.636,2.6367,2.6621,2.6921,2.6921,2.694,2.7018,2.7487,2.7917,2.832,2.8736,2.884,2.8971,2.9442,2.9858,3.0156,3.0156,3.0527,3.0996,3.1372,3.1489,3.1626,3.2085,3.2832,3.3383,3.3402,3.4492,3.5488,3.592,3.6367,3.697,3.7775,3.8281,3.8729,3.9101,3.916,3.9355,3.9824,3.9863,4.0059,4.0469,4.0489,4.0703,4.1133,4.1172,4.1172,4.1172,4.1191,4.1191,4.1191,4.1191,4.1191,4.1191,4.1191,4.1191,4.1191,4.1191,4.1191,4.1191,4.1191,4.1191,4.1191,4.1191,4.1191,4.1191,4.1191,4.1191,4.1191,1.2909,1.2909,1.2909,1.2909,1.2909,1.2909,1.2909,1.2909,1.304,1.3457,1.4114,0.0,0.0,0.0,0.0,0.0,1.9843,2.0791,2.1211,2.2031,2.2567,2.2693,2.2956,2.3318,2.3781,2.3926,2.4199,2.4629,2.5078,2.5383,2.5551,2.5808,2.6179,2.6602,2.6602,2.6758,2.6999,2.6999,2.6855,2.6602,2.6602,2.6335,2.5945,2.5945,2.5835,2.5706,0.0,2.5803,2.601,2.6608,2.6719,2.6641,2.6921,2.7402,2.8008,2.8738,2.9051,2.9188,2.933,2.9551,2.9805,2.9955,3.0332,3.0664,3.0664,3.0996,3.1333,3.1469,3.2172,3.2816,3.2969,3.3691,3.4375,3.4687,3.5332,3.594,3.6387,3.7051,3.7715,3.8299,3.873,3.9277,3.9981,3.9824,3.9844,4.0273,4.0293,4.0508,4.0937,4.0957,4.1035,4.1211,4.1191,4.1191,4.1191,4.1191,4.1191,4.1191,4.1191,4.1191,4.1191,4.1191,4.1191,4.1191,4.1191,4.1191,4.1191,4.1191,4.1367,4.1602,4.1602,4.1758,4.2012,4.2012,4.2012,4.1933,1.2909,1.2909,1.2909,1.2909,1.2909,0.0,0.0,0.0,0.0,0.0,0.0,0.0,0.0,0.0,0.0,0.0,0.0,2.0097,2.0556,2.1368,2.2031,2.247,2.2752,2.3084,2.3544,2.3711,2.3937,2.4199,2.4629,2.4855,2.4855,2.5113,2.5496,2.5942,2.5942,2.6152,2.655,2.655,2.6569,2.6582,2.6289,2.6062,2.5925,2.5613,2.5496,0.0,2.5496,2.5581,2.5842,2.6706,2.6934,2.6927,2.7344,2.8066,2.89,2.9604,2.9936,3.0053,3.0053,3.0249,3.0449,3.0449,3.0781,3.1113,3.1113,3.1445,3.1797,3.1918,3.2738,3.3461,3.3633,3.4355,3.5098,3.5547,3.5976,3.6465,3.7049,3.7715,3.832,3.8768,3.9316,3.9883,4.045,4.043,4.0469,4.0742,4.0762,4.0879,4.1172,4.1191,4.1191,4.1191,4.1191,4.1191,4.1191,4.1191,4.1191,4.1191,4.1191,4.1269,4.1406,4.1406,4.1504,4.1621,4.1621,4.1621,4.1621,4.1621,4.1777,4.2011,4.2011,4.2167,4.2402,4.2402,4.2402,4.2324,1.2909,1.2909,1.2909,0.0,0.0,0.0,0.0,0.0,0.0,0.0,0.0,0.0,0.0,0.0,0.0,0.0,0.0,0.0,2.0439,2.0586,2.1153,2.2372,2.247,2.2706,2.314,2.3557,2.3784,2.3851,2.4202,2.4363,2.4363,2.4402,2.4629,2.5063,2.5063,2.5285,2.5628,2.5628,2.6133,2.6892,2.5996,2.5942,2.629,2.5399,2.5063,2.5086,2.5165,2.5411,2.5815,2.6693,2.7324,2.7839,2.8236,2.8939,2.9715,3.0112,3.0547,3.0913,3.0913,3.0913,3.0898,3.0932,3.123,3.1538,3.1632,3.201,3.2488,3.2942,3.3352,3.374,3.4168,3.489,3.5566,3.5979,3.6426,3.701,3.7795,3.832,3.8788,3.918,3.9981,4.0508,4.0528,4.0937,4.1191,4.1191,4.1191,4.1191,4.1191,4.1191,4.1191,4.1191,4.1191,4.1191,4.1191,4.1211,4.123,4.125,4.125,4.1465,4.1836,4.1836,4.2031,4.2402,4.2402,4.2402,4.2402,4.2402,4.2421,4.2441,4.2441,4.246,4.248,4.248,4.248,4.248,0.0,0.0,0.0,0.0,0.0,0.0,0.0,0.0,0.0,0.0,0.0,0.0,0.0,0.0,0.0,0.0,0.0,0.0,1.9589,2.0243,2.0879,2.1493,2.2147,2.2942,2.3897,2.3501,2.3687,2.4547,2.4146,2.3945,2.3965,2.4266,2.4461,2.459,2.459,2.4648,2.4723,2.4723,2.5343,2.6247,2.5152,2.5307,2.6051,2.4993,2.459,2.4725,2.5997,2.5931,2.5422,2.6621,2.7702,2.8672,2.9115,2.9637,3.0131,3.06,3.0815,3.0913,3.0913,3.0913,3.0957,3.1255,3.143,3.1895,3.3387,3.4116,3.4798,3.6114,3.6258,3.6188,3.6312,3.6063,3.5996,3.6462,3.6873,3.7324,3.7834,3.8556,3.9199,3.9668,4.0176,4.0625,4.0996,4.1133,4.1191,4.1191,4.1191,4.1191,4.1191,4.1191,4.1191,4.1191,4.1191,4.1191,4.1191,4.1504,4.1797,4.2089,4.2089,4.2148,4.2246,4.2246,4.2304,4.2402,4.2402,4.2402,4.2402,4.2402,4.2617,4.291,4.291,4.3105,4.3379,4.3379,4.3379,4.3379,0.0,0.0,0.0,0.0,0.0,0.0,0.0,0.0,0.0,0.0,0.0,0.0,0.0,0.0,0.0,0.0,0.0,0.0,0.0,1.9638,2.0293,2.0908,2.1562,2.2401,2.343,2.3526,2.3738,2.4039,2.4173,2.3974,2.3504,2.3728,2.3942,2.4141,2.4141,2.4227,2.4426,2.4923,2.5462,0.0,0.0,2.5776,2.5588,2.5044,2.4541,2.437,2.605,2.6665,2.6754,2.6934,2.7858,2.899,2.9447,2.9877,3.0293,3.0776,3.0913,3.0913,3.0913,3.1035,3.123,3.145,3.2331,3.3409,3.456,3.5691,3.6782,3.7687,3.7878,3.7732,3.7207,3.693,3.684,3.6955,3.7148,3.7783,3.9193,3.9458,3.9907,4.0944,4.0924,4.1245,4.2348,4.1715,4.156,4.2406,4.1695,4.1191,4.1191,4.1191,4.1191,4.1191,4.1367,4.1562,4.1719,4.1953,4.2167,4.2402,4.2402,4.2499,4.2715,4.2715,4.2792,4.2968,4.2968,4.2968,4.2968,4.2968,4.3125,4.3359,4.3359,4.3496,4.3711,4.3711,4.3711,4.3711,0.0,0.0,0.0,0.0,0.0,0.0,0.0,0.0,0.0,1.4955,1.4916,1.5046,1.5442,1.6215,0.0,0.0,0.0,0.0,0.0,0.0,1.9608,2.0478,2.0908,2.1574,2.2526,2.3557,2.3887,2.345,2.4299,2.4299,2.355,2.3234,2.3406,2.3926,2.3758,2.3895,2.4295,2.5443,2.5872,2.59,2.707,2.6628,2.53,0.0,2.4792,2.3907,2.5479,2.7261,2.8664,2.7423,2.7897,2.9049,2.9467,2.9916,3.0371,3.0781,3.0913,3.0913,3.0913,3.1177,3.1553,3.1816,3.356,3.5336,3.5813,3.7272,3.8521,3.8521,3.8732,3.8578,3.7534,3.7617,3.7757,3.7567,3.7788,3.8793,4.111,4.0756,4.0967,4.2887,4.2206,4.235,4.4304,4.2961,4.256,4.3983,4.2601,4.1522,4.1211,4.125,4.1308,4.1367,4.1699,4.209,4.248,4.2499,4.2519,4.2577,4.2577,4.2793,4.3184,4.3184,4.338,4.3711,4.3711,4.3711,4.3711,4.3711,4.3711,4.3711,4.3711,4.3711,4.3711,4.3711,4.3711,4.3711,0.0,0.0,0.0,0.0,0.0,0.0,1.478,1.5078,1.5437,1.5831,1.5542,1.5469,1.5928,1.6418,0.0,0.0,0.0,0.0,0.0,0.0,0.0,1.9971,2.0459,2.137,2.2805,2.3239,2.4073,2.5329,2.4531,2.4754,2.5882,2.3984,2.3646,2.4582,2.3638,2.3268,2.3403,2.4554,2.553,2.6384,2.6609,2.6523,2.6264,2.6287,2.503,0.0,2.436,2.6623,2.8912,2.748,2.8105,2.9487,2.9579,3.0131,3.0781,3.0874,3.0913,3.0913,3.0913,3.1177,3.1895,3.3561,3.4587,3.5984,3.8985,3.9942,4.0187,4.0187,3.9509,3.8833,3.8617,3.8191,3.8077,3.8624,4.0366,4.1776,4.201,4.2105,4.3041,4.5447,4.447,4.436,4.6293,4.6204,4.5481,4.4209,4.411,4.3252,4.1308,4.1523,4.1855,4.2187,4.2265,4.2519,4.2969,4.2989,4.3144,4.3456,4.3456,4.3516,4.3594,4.3594,4.3633,4.3711,4.3711,4.3711,4.3711,4.3711,4.3711,4.3711,4.3711,4.3711,4.3711,4.3711,4.3711,4.3711,0.0,0.0,0.0,0.0,0.0,0.0,1.5085,1.5476,1.5843,1.6073,1.6094,1.6157,1.6387,1.6789,1.7148,0.0,0.0,0.0,0.0,0.0,0.0,1.922,1.9873,2.0709,2.1681,2.262,2.3317,2.378,0.0,2.4785,2.5282,2.467,2.486,2.5661,2.5115,2.4872,2.4904,2.5441,2.5995,2.6555,2.7106,2.6984,2.6565,2.7116,2.6835,0.0,2.4808,2.6461,2.8964,2.7495,2.7851,2.8998,2.9461,3.019,3.0913,3.0913,3.0913,3.0913,3.0913,3.1367,3.2281,3.406,3.5631,3.7443,4.0015,4.1248,4.1842,4.1842,4.0762,3.9844,4.0076,3.9407,3.9091,3.9914,4.1485,4.271,4.3045,4.3704,4.4694,4.6118,4.5878,4.5982,4.69,4.6992,4.6736,4.6108,4.6254,4.4932,4.168,4.2958,4.3458,4.2794,4.382,4.406,4.3419,4.3398,4.3496,4.3711,4.3711,4.3711,4.3711,4.3711,4.3711,4.3711,4.3965,4.4062,4.4082,4.4276,4.4373,4.4373,4.4373,4.4373,4.4373,4.4373,4.4373,4.4373,0.0,0.0,0.0,0.0,0.0,0.0,0.0,1.5855,1.6171,1.6359,1.666,1.689,1.6968,1.7227,1.7438,0.0,0.0,0.0,0.0,0.0,0.0,0.0,1.9357,2.0094,2.0766,0.0,0.0,2.2423,2.4244,0.0,0.0,0.0,0.0,0.0,2.6281,2.6203,2.6038,2.6613,2.683,0.0,0.0,2.7817,2.6871,0.0,0.0,0.0,0.0,2.6325,2.8689,2.7422,2.7519,2.8334,2.9305,3.0131,3.0762,3.0874,3.0913,3.0913,3.0913,3.1678,3.2909,3.4591,3.678,3.8966,4.0569,4.1935,4.2691,4.2221,4.1219,4.053,4.0847,4.0565,4.0382,4.0756,4.2435,4.3829,4.4128,4.5327,4.6542,4.7515,4.7639,4.7818,4.8235,4.8381,4.8465,4.8528,4.8328,4.6806,4.3589,4.5323,4.5838,4.4623,4.6162,4.617,4.4371,4.4351,4.4145,4.3711,4.3711,4.375,4.3848,4.3848,4.3906,4.4004,4.4375,4.4531,4.4551,4.4862,4.4998,4.4998,4.4998,4.4998,4.4998,4.4998,4.4998,4.4998,0.0,0.0,0.0,0.0,0.0,0.0,0.0,1.6065,1.6378,1.7184,1.7321,1.7461,1.7843,1.7578,1.7547,0.0,0.0,0.0,0.0,0.0,0.0,0.0,0.0,0.0,0.0,0.0,0.0,2.4072,2.5066,0.0,0.0,0.0,0.0,0.0,0.0,2.5213,2.4571,2.694,0.0,0.0,0.0,0.0,0.0,0.0,0.0,0.0,0.0,2.5886,2.7755,2.7196,2.7324,2.7976,2.9207,2.9897,3.0366,3.0762,3.0913,3.0913,3.0913,3.2197,3.4055,3.6167,3.8182,4.0086,4.1698,4.2178,4.1701,3.9691,3.9602,3.9888,3.9921,4.1113,4.1656,4.0374,4.4238,4.6843,4.5216,4.675,4.9101,5.1956,5.0781,5.041,5.2189,5.2785,5.2371,5.0656,4.9693,4.8998,4.8633,4.8831,4.9076,4.9373,4.9549,4.863,4.6545,4.6525,4.5576,4.3711,4.3711,4.3926,4.4336,4.4336,4.453,4.4881,4.494,4.494,4.494,4.4979,4.4998,4.4998,4.4998,4.4998,4.4998,4.4998,4.4998,4.4998,0.0,0.0,0.0,0.0,0.0,0.0,1.6026,1.6304,1.668,1.7321,1.7606,1.7812,1.798,1.7871,1.7832,1.798,0.0,0.0,0.0,0.0,0.0,0.0,0.0,0.0,0.0,0.0,2.1867,2.2082,2.2994,0.0,0.0,0.0,0.0,0.0,0.0,2.7551,2.6565,2.6963,0.0,0.0,0.0,0.0,0.0,0.0,0.0,0.0,0.0,0.0,2.7623,2.7156,2.7116,2.7552,2.9109,2.9715,2.9975,3.0698,3.0913,3.1097,3.1977,3.294,3.4346,3.7057,3.8511,3.9666,4.1278,4.1656,4.1404,4.0531,3.9782,3.9665,4.0999,4.1542,4.1995,4.2691,4.5668,4.7481,4.6244,4.8384,5.0364,5.1069,5.1495,5.1583,5.1198,5.2712,5.366,5.3575,5.3503,5.2922,5.1654,5.1597,5.0499,4.814,4.9322,4.8379,4.4965,4.4924,4.4654,4.4121,4.4121,4.4355,4.4744,4.4744,4.4842,4.5018,4.5312,4.541,4.543,4.5683,4.5779,4.5779,4.5779,4.5779,4.5779,4.5779,4.5779,4.5779,0.0,0.0,0.0,0.0,0.0,1.5769,1.6207,1.6641,1.7082,1.7528,1.7824,1.7999,1.7999,1.7999,1.7999,1.7999,1.7999,0.0,0.0,0.0,0.0,0.0,0.0,0.0,0.0,0.0,2.1021,2.1021,2.2118,2.3052,0.0,0.0,2.6586,2.6702,0.0,0.0,0.0,0.0,0.0,0.0,0.0,0.0,0.0,0.0,0.0,0.0,0.0,0.0,0.0,0.0,0.0,2.7734,2.8866,2.9403,2.9872,3.1167,3.1238,3.131,3.3233,3.365,3.429,3.7508,3.8523,3.9115,4.0716,4.1076,4.1026,4.0851,4.0045,3.9896,4.1629,4.203,4.2477,4.3678,4.6134,4.7629,4.6886,4.9386,5.1177,5.0894,5.2208,5.2536,5.1022,5.2756,5.4411,5.5541,5.5993,5.5564,5.41,5.4007,5.2376,4.8772,5.0723,4.9878,4.578,4.5739,4.5367,4.459,4.459,4.5144,4.6175,4.5494,4.6,4.7308,4.6995,4.7221,4.784,4.8125,4.8247,4.8247,4.8247,4.7858,4.7273,4.7273,4.6858,4.6376,0.0,0.0,0.0,0.0,0.0,0.0,1.6637,1.709,1.7536,1.7941,1.7999,1.7999,1.7999,1.7999,1.7999,1.7999,1.7999,0.0,0.0,0.0,0.0,0.0,0.0,0.0,0.0,0.0,2.2,2.2,2.3463,2.3685,2.2759,2.5308,2.5973,2.5085,0.0,0.0,0.0,0.0,0.0,0.0,0.0,0.0,2.6535,0.0,0.0,0.0,0.0,0.0,0.0,0.0,0.0,0.0,0.0,2.8914,3.0063,3.2403,3.2035,3.1542,3.4495,3.4208,3.3924,3.7428,3.8316,3.8682,4.0171,4.0512,4.0362,3.9823,4.0136,4.0662,4.1214,4.2657,4.341,4.2314,4.5352,4.7692,4.7077,4.9469,5.1699,5.2752,5.3364,5.3464,5.2928,5.3909,5.5031,5.61,5.62,5.62,5.6182,5.6182,5.5189,5.31,5.506,5.4324,5.0565,5.0525,4.8664,4.4998,4.4998,4.6385,4.8882,4.6698,4.8308,5.2693,5.0505,5.0799,5.2839,5.2839,5.2818,5.2818,5.2818,5.149,4.9574,4.9574,4.8161,4.6617,0.0,0.0,0.0,0.0,0.0,0.0,0.0,1.7101,1.7547,1.7949,1.7999,1.7999,1.7999,1.7999,1.7999,1.7999,1.7999,0.0,0.0,0.0,0.0,0.0,0.0,0.0,0.0,0.0,2.1451,2.1451,2.224,2.2795,2.3142,2.5115,2.5804,2.549,2.7125,2.7458,0.0,0.0,0.0,0.0,0.0,2.846,2.6504,0.0,0.0,0.0,0.0,0.0,0.0,0.0,0.0,0.0,0.0,0.0,0.0,3.3508,3.3316,3.2843,3.4764,3.5699,3.6375,3.7479,3.8498,3.9389,3.9844,3.9948,3.9898,3.9735,4.0124,4.065,4.1188,4.2671,4.3933,4.4358,4.6368,4.8221,4.9191,5.0456,5.1699,5.2787,5.3364,5.3783,5.4052,5.473,5.5458,5.6168,5.62,5.5582,5.418,5.5435,5.5251,5.3175,5.4082,5.337,5.0765,5.1099,5.0862,4.9978,4.9978,5.0588,5.1625,5.0939,5.1463,5.2859,5.2156,5.2239,5.2901,5.2901,5.2011,5.0631,5.0631,4.9276,4.7338,4.7338,4.6902,4.6617,0.0,0.0,0.0,0.0,0.0,0.0,0.0,1.7238,1.7723,1.796,1.7999,1.7999,1.7999,1.7999,1.7999,1.7999,1.7999,0.0,0.0,0.0,0.0,0.0,0.0,0.0,2.0391,2.0927,2.1278,2.1464,2.1914,2.2423,2.3033,2.5111,2.6023,2.5992,2.7029,2.735,0.0,0.0,0.0,0.0,2.8022,2.7762,2.5316,0.0,0.0,0.0,0.0,0.0,0.0,0.0,0.0,0.0,0.0,0.0,0.0,0.0,3.4007,3.408,3.6347,3.6406,3.6234,3.7902,3.8608,3.9025,3.9556,3.9697,3.976,3.9973,4.0261,4.0738,4.1505,4.2836,4.4166,4.5311,4.7044,4.8736,5.0201,5.1096,5.2,5.3063,5.3507,5.4027,5.4805,5.5207,5.5616,5.615,5.62,5.5637,5.4348,5.5689,5.5924,5.4603,5.49,5.4248,5.2556,5.2874,5.2867,5.2514,5.2514,5.308,5.413,5.3292,5.3804,5.5349,5.4517,5.4618,0.0,5.5389,5.4578,5.3331,5.3331,5.199,5.004,5.004,4.951,4.9105,0.0,0.0,0.0,0.0,0.0,0.0,0.0,1.7444,1.7999,1.7999,1.7999,1.7999,1.7999,1.7999,1.7999,1.7999,0.0,0.0,0.0,0.0,0.0,0.0,0.0,0.0,2.1171,2.1259,2.1513,2.1944,2.2363,2.2537,2.2591,2.5175,2.6431,2.6504,2.6431,2.6892,0.0,0.0,0.0,0.0,2.7295,2.6529,0.0,0.0,0.0,0.0,0.0,0.0,0.0,0.0,0.0,0.0,0.0,0.0,0.0,0.0,0.0,0.0,0.0,3.6518,3.4376,3.8398,3.8517,3.8031,3.9388,3.9722,0.0,4.0387,4.0563,4.0953,4.2048,4.3176,4.4292,4.5437,4.7446,4.9229,5.0302,5.1431,5.2553,5.3582,5.3733,5.4185,5.5308,5.5433,5.5666,5.615,5.62,5.62,5.62,5.6728,5.701,5.706,5.7085,5.6639,5.5651,5.5679,5.49,5.3374,5.3374,5.4456,5.6371,5.4314,5.5611,5.9386,5.7327,5.7608,5.9483,5.9483,5.9405,5.927,5.927,5.7908,5.5955,5.5955,5.4662,5.3209,0.0,0.0,0.0,0.0,0.0,0.0,0.0,0.0,0.0,0.0,1.7999,1.7999,1.7999,1.7999,1.7999,0.0,0.0,0.0,0.0,0.0,0.0,0.0,0.0,0.0,2.12,2.1844,2.2255,2.2363,2.2771,2.2956,2.2988,2.449,2.5661,2.6473,2.5588,2.4851,0.0,0.0,0.0,0.0,2.6897,2.6215,0.0,0.0,0.0,0.0,2.5359,2.6346,0.0,0.0,0.0,0.0,0.0,0.0,0.0,0.0,3.3125,3.3519,3.6586,0.0,3.6447,3.6352,3.778,3.9284,0.0,4.0023,4.0337,4.0487,4.1178,4.2009,4.2688,4.4055,4.5447,4.6562,4.8234,4.9807,5.0921,5.2026,5.2962,5.3632,5.4102,5.4655,5.5333,5.5767,5.605,5.6175,5.62,5.62,5.62,5.6728,5.7211,5.7656,5.8083,5.8162,5.7932,5.8323,5.8338,5.7947,5.7947,5.8227,5.8695,5.8207,5.852,5.9463,5.8954,5.9012,5.9483,5.9483,5.8506,5.6976,5.6976,5.5634,5.3681,5.3681,5.3353,5.3209,0.0,0.0,0.0,0.0,0.0,0.0,0.0,0.0,0.0,0.0,0.0,1.7999,1.7999,1.7999,0.0,0.0,0.0,0.0,0.0,0.0,0.0,0.0,0.0,2.1074,2.1513,2.2147,2.2596,2.2771,2.2995,2.3101,2.3144,2.4808,2.563,2.5693,2.5083,2.4168,0.0,0.0,2.4924,2.3367,2.6477,0.0,0.0,0.0,0.0,0.0,2.4435,2.5298,0.0,2.7129,2.7592,2.8175,0.0,0.0,0.0,0.0,3.2958,3.3587,3.6022,3.7099,3.7306,3.6514,3.8018,3.9747,4.0023,4.0287,4.0638,4.1167,4.1959,4.2813,4.3589,4.4895,4.6301,4.7657,4.9063,5.0444,5.185,5.2754,5.3364,5.3658,5.4454,5.5082,5.5383,5.5892,5.62,5.62,5.62,5.62,5.62,5.6979,5.7556,5.7901,5.8654,5.9081,5.9081,5.9357,5.9483,5.9483,5.9483,5.9483,5.9483,5.9483,5.9483,5.9483,5.9483,5.9483,5.9483,5.9483,5.8798,5.7711,5.7711,5.6976,5.5931,5.5931,5.5931,5.6091,0.0,0.0,0.0,0.0,0.0,0.0,0.0,0.0,0.0,0.0,0.0,0.0,0.0,0.0,0.0,0.0,0.0,0.0,0.0,0.0,0.0,0.0,2.0869,2.1523,2.1983,2.2402,2.2752,2.3101,2.3101,2.3199,2.3397,2.5158,2.5462,2.4543,2.4723,2.4264,0.0,2.4876,2.466,2.3575,2.596,0.0,0.0,0.0,0.0,0.0,0.0,0.0,0.0,2.6318,2.6399,2.6729,2.7847,0.0,0.0,0.0,0.0,0.0,3.6067,3.7196,3.7782,3.757,3.8608,3.9848,4.0387,4.0549,4.0953,4.2098,4.2738,4.3478,4.4654,4.5784,4.7079,4.8652,4.9891,5.118,5.2694,5.3289,5.3632,5.3808,5.4687,5.5358,5.5509,5.5942,5.62,5.62,5.62,5.62,5.62,5.7198,5.7801,5.7901,5.8855,5.9408,5.9483,5.9483,5.9483,5.9483,5.9483,5.9483,5.9483,5.9483,5.9483,5.9483,5.9483,5.9483,5.9483,5.9483,5.9483,5.9483,5.9483,5.9483,5.9483,5.9483,5.9483,5.9483,0.0,0.0,0.0,0.0,0.0,0.0,0.0,0.0,0.0,0.0,0.0,0.0,0.0,0.0,0.0,0.0,0.0,0.0,0.0,0.0,0.0,2.0986,2.1513,2.1992,2.2392,2.281,2.3053,2.3101,2.3101,2.3584,2.4521,2.3908,2.3528,2.3397,2.4382,2.4702,2.4553,2.4809,2.4777,2.4575,2.5009,0.0,0.0,0.0,0.0,0.0,0.0,0.0,0.0,2.6608,2.8098,3.0102,2.8666,0.0,0.0,0.0,0.0,0.0,3.5579,3.7618,3.9064,3.7809,3.8608,3.9848,4.0387,4.0851,4.1503,4.2624,4.3302,4.4166,4.5733,4.6913,4.8043,4.928,5.082,5.2084,5.2795,5.297,5.3364,5.4353,5.4622,5.5082,5.5993,5.615,5.62,5.62,5.62,5.62,5.62,5.6803,5.738,5.7876,5.8485,5.9056,5.9483,5.9483,5.9483,5.9483,5.9483,5.9483,5.9483,5.9483,5.9483,5.9483,5.9483,5.9483,5.9483,5.9483,5.9483,5.9483,5.9483,5.9483,5.9483,5.9483,5.9483,5.9483,0.0,0.0,0.0,0.0,0.0,0.0,0.0,0.0,0.0,0.0,0.0,0.0,0.0,0.0,0.0,0.0,0.0,0.0,0.0,0.0,2.0899,2.1552,2.1777,2.209,2.2489,2.2897,2.3101,2.3101,2.3101,2.3494,2.425,2.372,2.3786,2.4328,2.402,2.3887,2.393,2.4532,2.4425,2.3951,0.0,0.0,0.0,0.0,0.0,0.0,0.0,0.0,0.0,0.0,2.7624,2.9084,2.8175,0.0,0.0,0.0,0.0,0.0,3.684,3.856,3.9605,3.9213,3.9628,4.0437,4.158,4.2032,4.2635,4.4055,4.4784,4.5673,4.7346,4.8284,4.9289,5.072,5.1833,5.2611,5.2887,5.3432,5.4027,5.4547,5.5107,5.5641,5.615,5.62,5.62,5.62,5.62,5.62,5.62,5.6728,5.728,5.7876,5.8409,5.8961,5.9483,5.9483,5.9483,5.9483,5.9483,5.9483,5.9483,5.9483,5.9483,5.9483,5.9483,5.9483,5.9483,5.9483,5.9483,5.9483,5.9483,5.9483,5.9483,5.9483,5.9483,5.9483,0.0,0.0,0.0,0.0,0.0,0.0,0.0,0.0,0.0,0.0,0.0,0.0,0.0,0.0,0.0,0.0,0.0,0.0,0.0,2.0165,2.0987,2.1866,2.1905,2.2129,2.2635,2.2936,2.3101,2.3101,2.3209,2.3504,2.3957,2.4208,2.4585,2.4975,2.3782,2.3343,2.355,2.4135,2.4039,2.3541,0.0,0.0,0.0,0.0,0.0,0.0,0.0,0.0,0.0,0.0,0.0,0.0,0.0,0.0,0.0,3.0986,3.2466,3.4202,3.7501,3.8858,3.9569,4.0483,4.0575,4.0939,4.2624,4.3115,4.3653,4.5321,4.6225,4.7154,4.8702,4.9656,5.0645,5.2059,5.2636,5.2945,5.3063,5.3833,5.4496,5.4773,5.5491,5.605,5.6194,5.62,5.62,5.62,5.62,5.62,5.62,5.6602,5.7079,5.7675,5.8083,5.8635,5.9307,5.9307,5.9382,5.9483,5.9483,5.9483,5.9483,5.9483,5.9483,5.9483,5.9483,5.9483,5.9483,5.9483,5.9483,5.9483,5.9483,5.9483,5.9483,5.9483,5.9483,5.9483,0.0,0.0,0.0,0.0,0.0,0.0,0.0,0.0,0.0,0.0,0.0,0.0,0.0,0.0,0.0,0.0,0.0,0.0,0.0,2.0332,2.0987,2.1866,2.1905,2.2255,2.3053,2.3092,2.3101,2.3101,2.3544,2.3965,2.4386,2.5451,2.5216,2.3913,2.3795,2.4104,2.4606,2.3638,2.379,2.4585,2.3606,0.0,0.0,0.0,0.0,0.0,0.0,0.0,0.0,0.0,0.0,0.0,0.0,0.0,2.9011,3.0095,3.1148,3.2669,3.5965,3.7615,3.8848,4.078,4.0876,4.0939,4.2624,4.3377,4.4217,4.5899,4.7079,4.8143,4.933,5.0845,5.2109,5.2737,5.287,5.3071,5.3565,5.3708,5.416,5.5232,5.5408,5.5641,5.615,5.62,5.62,5.62,5.62,5.62,5.62,5.6226,5.6502,5.7035,5.7085,5.7656,5.8736,5.8761,5.9012,5.9483,5.9483,5.9483,5.9483,5.9483,5.9483,5.9483,5.9483,5.9483,5.9483,5.9483,5.9483,5.9483,5.9483,5.9483,5.9483,5.9483,5.9483,5.9483,0.0,0.0,0.0,0.0,0.0,0.0,0.0,0.0,0.0,0.0,0.0,0.0,0.0,0.0,0.0,0.0,0.0,0.0,0.0,2.0576,2.125,2.1866,2.2129,2.2518,2.3092,2.3101,2.3101,2.3101,2.3825,2.4394,2.4848,2.5272,2.4998,2.4149,2.3917,2.3779,2.3703,2.3278,2.3354,2.3703,2.3267,2.3101,0.0,0.0,0.0,0.0,0.0,0.0,0.0,0.0,2.7114,2.8855,2.7836,2.9222,3.1351,3.198,3.3224,3.5086,3.8226,3.9374,4.0086,4.1895,4.2459,4.2911,4.4256,4.497,4.5924,4.7933,4.8686,4.9414,5.087,5.1933,5.2661,5.2887,5.2895,5.3088,5.3615,5.4027,5.4529,5.5308,5.5691,5.5993,5.6175,5.62,5.62,5.62,5.62,5.62,5.62,5.62,5.6451,5.6985,5.6985,5.7405,5.8183,5.8183,5.8303,5.8504,5.9182,5.9332,5.8987,5.8987,5.883,5.8504,5.8504,5.8504,5.8504,5.8504,5.8504,5.8504,5.8504,5.8504,5.8504,5.8504,5.8504,5.8504,0.0,0.0,0.0,0.0,0.0,0.0,0.0,0.0,0.0,0.0,0.0,0.0,0.0,0.0,0.0,0.0,0.0,0.0,2.0078,2.0801,2.1405,2.1885,2.2285,2.2693,2.3092,2.3101,2.3101,2.3101,2.3981,2.4707,2.5285,2.5285,2.4961,2.4402,2.4121,2.3661,2.3101,2.3101,2.3101,2.3101,2.3101,2.3101,0.0,0.0,0.0,0.0,0.0,0.0,0.0,0.0,2.7399,2.87,2.846,3.0115,3.2212,3.2686,3.3987,3.5969,3.8989,4.0074,4.0765,4.2538,4.3804,4.4844,4.5799,4.6426,4.7355,4.9213,5.0017,5.0795,5.2109,5.2661,5.2895,5.2895,5.3038,5.3339,5.3909,5.4479,5.5056,5.5591,5.5993,5.62,5.62,5.62,5.62,5.62,5.62,5.62,5.62,5.62,5.6376,5.6753,5.6753,5.7029,5.7606,5.7625,5.7725,5.7901,5.8629,5.8805,5.8434,5.8434,5.8252,5.7901,5.7901,5.7901,5.7901,5.7901,5.7901,5.7901,5.7901,5.7901,5.7901,5.7901,5.7901,5.7901,0.0,0.0,0.0,0.0,0.0,0.0,0.0,0.0,0.0,0.0,0.0,0.0,0.0,0.0,0.0,0.0,0.0,0.0,2.0537,2.0986,2.1405,2.1885,2.2285,2.2693,2.3092,2.3101,2.3101,2.3101,2.3981,2.484,2.5706,2.5706,2.5238,2.4402,2.4402,2.3923,2.3101,2.3101,2.3101,2.3101,2.3101,2.3101,2.3101,0.0,0.0,0.0,0.0,0.0,0.0,0.0,2.7321,2.862,2.8761,2.9783,3.1046,3.1651,3.2797,3.4494,3.75,3.9147,4.0497,4.2515,4.4669,4.6461,4.6998,4.7541,4.8234,4.9389,5.0946,5.2277,5.2795,5.2895,5.2895,5.2895,5.3339,5.3909,5.4522,5.5056,5.5591,5.6143,5.62,5.62,5.62,5.62,5.62,5.62,5.62,5.62,5.62,5.62,5.62,5.62,5.62,5.6451,5.6985,5.6985,5.7305,5.7876,5.7876,5.7876,5.7901,5.7901,5.7901,5.7876,5.7876,5.7876,5.7876,5.7876,5.7876,5.7876,5.7876,5.7876,5.7876,5.7876,5.7876,5.7876,0.0,0.0,0.0,0.0,0.0,0.0,0.0,0.0,0.0,0.0,0.0,0.0,0.0,0.0,0.0,0.0,0.0,0.0,2.0556,2.129,2.1758,2.1885,2.2567,2.2975,2.3101,2.3101,2.3404,2.402,2.4274,2.484,2.5706,2.5706,2.5238,2.4402,2.4402,2.3923,2.3101,2.3101,2.3101,2.3101,2.3101,2.3101,2.3101,0.0,0.0,0.0,0.0,0.0,0.0,0.0,0.0,0.0,2.9806,3.1198,3.2627,3.4267,3.5716,3.7282,3.9734,4.0969,4.1949,4.369,4.5508,4.7114,4.8083,4.8711,4.9515,5.1046,5.2059,5.2711,5.2887,5.2895,5.302,5.3389,5.3607,5.4034,5.5031,5.5308,5.5591,5.6143,5.62,5.62,5.62,5.62,5.62,5.62,5.62,5.62,5.62,5.62,5.62,5.62,5.62,5.6276,5.6426,5.6451,5.6527,5.6721,5.6721,5.6903,5.728,5.728,5.7054,5.6721,5.6721,5.6721,5.6721,5.6721,5.6721,5.6721,5.6721,5.6721,5.6721,5.6721,5.6721,5.6721,0.0,0.0,0.0,0.0,0.0,0.0,0.0,0.0,1.7999,1.7999,1.7999,1.7999,0.0,0.0,0.0,1.9267,1.9668,2.0098,2.0556,2.124,2.1709,2.1885,2.2528,2.2936,2.3092,2.3101,2.3454,2.4149,2.4324,2.4762,2.5457,2.5457,2.5086,2.4402,2.4402,2.4032,2.3376,2.3376,2.3376,2.3357,2.317,2.3101,2.3155,0.0,0.0,0.0,0.0,0.0,0.0,0.0,0.0,0.0,3.0434,3.2148,3.3937,3.5527,3.6944,3.8479,4.07,4.1907,4.2864,4.4252,4.6035,4.7842,4.943,5.0209,5.087,5.19,5.2536,5.2962,5.3188,5.3213,5.3389,5.3976,5.4253,5.4612,5.529,5.5566,5.5842,5.615,5.62,5.62,5.62,5.62,5.62,5.62,5.62,5.62,5.62,5.62,5.62,5.62,5.62,5.62,5.62,5.62,5.62,5.62,5.62,5.6376,5.6677,5.6677,5.6502,5.62,5.62,5.62,5.62,5.62,5.62,5.62,5.62,5.62,5.62,5.62,5.62,5.62,0.0,0.0,0.0,0.0,0.0,0.0,0.0,1.7999,1.7999,1.7999,1.7999,1.801,0.0,0.0,0.0,1.9316,1.9727,2.0137,2.0576,2.0967,2.1386,2.1827,2.2255,2.2693,2.3092,2.3101,2.3318,2.3742,2.416,2.4609,2.5094,2.5094,2.4875,2.4461,2.4461,2.4238,2.3848,2.3848,2.3848,2.3809,2.3357,2.317,2.3271,2.4274,0.0,0.0,0.0,0.0,0.0,0.0,0.0,0.0,3.0729,3.264,3.4749,3.5802,3.702,3.8479,4.07,4.2119,4.3251,4.4328,4.6336,4.8636,5.0812,5.1749,5.2176,5.2176,5.2561,5.3063,5.3607,5.3708,5.3909,5.4572,5.5082,5.5433,5.5483,5.5892,5.62,5.62,5.62,5.62,5.62,5.62,5.62,5.62,5.62,5.62,5.62,5.62,5.62,5.62,5.62,5.62,5.62,5.62,5.62,5.62,5.62,5.62,5.62,5.62,5.62,5.62,5.62,5.62,5.62,5.62,5.62,5.62,5.62,5.62,5.62,5.62,5.62,5.62,0.0,0.0,0.0,0.0,0.0,0.0,1.7999,1.7999,1.7999,1.7999,1.7999,1.8127,1.8431,1.8878,0.0,1.9737,2.0185,2.0498,2.0595,2.0967,2.1239,2.1347,2.2088,2.2693,2.3092,2.3101,2.3151,2.3248,2.37,2.4328,2.5094,2.5094,2.5043,2.4945,2.4945,2.4699,2.4266,2.4266,2.4266,2.4227,2.3828,2.3652,2.3647,2.3514,2.3538,0.0,0.0,0.0,0.0,0.0,0.0,0.0,3.1202,3.2506,3.3758,3.6232,3.7455,3.8479,4.07,4.2119,4.3251,4.4328,4.6938,4.959,5.0987,5.2051,5.2737,5.2737,5.2837,5.3063,5.3607,5.3708,5.4034,5.5056,5.5315,5.5559,5.5968,5.6143,5.62,5.62,5.62,5.62,5.62,5.62,5.62,5.62,5.62,5.62,5.62,5.62,5.62,5.62,5.62,5.62,5.62,5.62,5.62,5.62,5.62,5.62,5.62,5.62,5.62,5.62,5.62,5.62,5.62,5.62,5.62,5.62,5.62,5.62,5.62,5.62,5.62,5.62,0.0,0.0,0.0,0.0,0.0,0.0,0.0,0.0,1.8294,1.8294,1.8294,1.845,1.8888,1.9336,0.0,0.0,2.0332,2.0605,2.0605,2.0801,2.1006,2.12,2.203,2.2606,2.281,2.2995,2.3101,2.3101,2.3357,2.3914,2.4758,2.4758,2.4875,2.5094,2.5094,2.4965,2.4738,2.4738,2.4738,2.4699,2.4258,2.4102,2.4119,2.4422,2.4359,2.4298,2.5915,0.0,0.0,0.0,0.0,0.0,0.0,0.0,3.4211,3.6517,3.7575,3.8479,4.07,4.2119,4.3503,4.5633,4.7908,4.9907,5.1038,5.2126,5.2895,5.2895,5.3113,5.3439,5.4027,5.4353,5.4787,5.5641,5.5792,5.5892,5.615,5.62,5.62,5.62,5.62,5.62,5.62,5.62,5.62,5.62,5.62,5.62,5.62,5.62,5.62,5.62,5.62,5.62,5.62,5.62,5.62,5.62,5.62,5.62,5.62,5.62,5.62,5.62,5.62,5.62,5.62,5.62,5.62,5.62,5.62,5.62,5.62,5.62,5.62,5.62,0.0,0.0,0.0,0.0,0.0,0.0,0.0,0.0,0.0,1.8723,1.8723,1.8888,1.9355,1.9707,1.9932,0.0,0.0,0.0,2.0605,2.0605,2.0771,2.1181,2.1971,2.2431,2.2509,2.2897,2.3101,2.3101,2.3101,2.3502,2.4305,2.4363,2.4648,2.5102,2.518,2.5258,2.5317,2.5317,2.5317,2.5278,2.4812,2.4578,2.4624,2.558,2.553,2.5231,2.713,2.7454,2.7194,2.8701,0.0,0.0,0.0,0.0,3.5041,3.6721,3.7575,3.8454,4.06,4.2119,4.3879,4.7004,4.8686,4.9907,5.1038,5.2126,5.2895,5.2895,5.3264,5.3758,5.4471,5.4956,5.5483,5.6118,5.62,5.62,5.62,5.62,5.62,5.62,5.62,5.62,5.62,5.62,5.62,5.62,5.62,5.62,5.62,5.62,5.62,5.62,5.62,5.62,5.62,5.62,5.62,5.62,5.62,5.62,5.62,5.62,5.62,5.62,5.62,5.62,5.62,5.62,5.62,5.62,5.62,5.62,5.62,5.62,5.62,5.62,0.0,0.0,0.0,0.0,0.0,0.0,0.0,0.0,0.0,0.0,1.9208,1.9355,1.9785,1.9873,2.0049,2.0468,2.0556,2.0605,2.0605,0.0,0.0,2.1181,2.1689,2.2148,2.2489,2.2897,2.3101,2.3101,2.3101,2.3376,2.3898,2.4227,2.4648,2.5114,2.5457,2.5847,2.6223,2.6223,2.6223,2.6184,2.573,2.532,2.5028,2.5181,2.6086,2.7352,2.8044,2.8905,2.9867,3.1179,3.1407,0.0,0.0,0.0,3.5041,3.6721,3.7575,3.8379,4.0136,4.2133,4.4267,4.6622,4.8419,4.9907,5.1038,5.2126,5.2895,5.2895,5.2962,5.3314,5.4403,5.4672,5.5031,5.6043,5.62,5.62,5.62,5.62,5.62,5.62,5.62,5.62,5.62,5.62,5.62,5.62,5.62,5.62,5.62,5.62,5.62,5.62,5.62,5.62,5.62,5.62,5.62,5.62,5.62,5.62,5.62,5.62,5.62,5.62,5.62,5.62,5.62,5.62,5.62,5.62,5.62,5.62,5.62,5.62,5.62,5.62,0.0,0.0,0.0,0.0,0.0,0.0,0.0,0.0,0.0,0.0,0.0,1.9805,2.0244,2.0283,2.0371,2.0576,2.0605,2.0605,2.0605,2.0605,2.0693,2.0869,2.1534,2.1983,2.2168,2.2791,2.3101,2.3101,2.3101,2.3209,2.3426,2.3856,2.4445,2.5114,2.5285,2.5742,2.6399,2.6399,2.6523,2.6719,2.6511,2.6316,2.6152,2.6152,2.7105,2.8464,2.8651,3.0023,3.1786,3.2355,3.2808,3.3307,3.4095,0.0,0.0,0.0,3.7575,3.8517,4.0815,4.2598,4.4342,4.6547,4.8118,4.9531,5.0962,5.19,5.2536,5.2837,5.2895,5.3239,5.4378,5.4848,5.5308,5.6068,5.62,5.62,5.62,5.62,5.62,5.62,5.62,5.62,5.62,5.62,5.62,5.62,5.62,5.62,5.62,5.62,5.62,5.62,5.62,5.62,5.62,5.62,5.62,5.62,5.62,5.62,5.62,5.62,5.62,5.62,5.62,5.62,5.62,5.62,5.62,5.62,5.62,5.62,5.62,5.62,5.62,5.62,0.0,0.0,0.0,0.0,0.0,0.0,0.0,0.0,0.0,0.0,0.0,2.0205,2.0556,0.0,0.0,0.0,2.0605,2.0635,2.0742,2.0762,2.0801,2.0928,2.1651,2.2051,2.2051,2.2732,2.3101,2.3101,2.3101,2.3101,2.3112,2.3465,2.4093,2.4926,2.5043,2.5649,2.6543,2.6543,2.6797,2.7187,2.7305,2.7272,2.7207,2.7409,2.8569,3.007,3.0186,3.1853,3.3953,3.3844,3.428,3.4892,3.4892,3.5193,0.0,0.0,0.0,3.8919,4.1155,4.2649,4.4066,4.5969,4.7631,4.9154,5.0561,5.1515,5.2209,5.2611,5.2812,5.3213,5.4177,5.4805,5.5365,5.5917,5.61,5.62,5.62,5.62,5.62,5.62,5.62,5.62,5.62,5.62,5.62,5.62,5.62,5.62,5.62,5.62,5.62,5.62,5.62,5.62,5.62,5.62,5.62,5.62,5.62,5.62,5.62,5.62,5.62,5.62,5.62,5.62,5.62,5.62,5.62,5.62,5.62,5.62,5.62,5.62,5.62,5.62,0.0,0.0,0.0,0.0,0.0,0.0,0.0,0.0,0.0,0.0,0.0,2.0576,2.0605,2.0605,2.0605,2.0605,2.0605,2.0762,2.1142,2.1181,2.1366,2.1807,2.2246,0.0,2.247,2.2878,2.3101,2.3101,2.3101,2.3101,2.3101,2.312,2.361,2.4461,2.4895,2.5806,2.696,2.696,2.7226,2.7715,2.808,2.8001,2.7741,2.8502,3.0544,3.3035,3.3405,3.5017,3.6888,3.6374,3.5884,3.5458,3.5458,3.5483,3.5809,0.0,0.0,0.0,4.0412,4.1781,4.3302,4.4453,4.6778,4.8969,4.954,5.0946,5.2126,5.2151,5.2561,5.3071,5.3632,5.4228,5.4823,5.5358,5.5867,5.62,5.62,5.62,5.62,5.62,5.62,5.62,5.62,5.62,5.62,5.62,5.62,5.62,5.62,5.62,5.62,5.62,5.62,5.62,5.62,5.62,5.62,5.62,5.62,5.62,5.62,5.62,5.62,5.62,5.62,5.62,5.62,5.62,5.62,5.62,5.62,5.62,5.62,5.62,5.62,5.62,0.0,0.0,0.0,0.0,0.0,0.0,0.0,0.0,0.0,0.0,0.0,0.0,0.0,2.1426,2.1426,2.1426,2.1426,2.1505,2.1641,2.166,2.1719,2.1885,2.2285,2.2509,2.2509,2.2897,2.3101,2.3101,2.3101,2.3101,2.3101,2.3101,2.356,2.4402,2.459,2.5527,2.6999,2.6999,2.7565,2.8571,2.9654,3.0197,3.0474,3.1694,3.3335,3.5035,3.5147,3.6282,3.7688,3.75,3.7287,3.7087,3.7087,3.7087,3.73,3.8303,3.9107,3.9823,4.0362,4.1455,4.2838,4.4252,4.5909,4.7606,4.9213,5.0343,5.1205,5.195,5.2536,5.2945,5.3163,5.3658,5.431,5.5257,5.5541,5.5817,5.615,5.62,5.62,5.62,5.62,5.62,5.62,5.62,5.62,5.62,5.62,5.62,5.62,5.62,5.62,5.62,5.62,5.62,5.62,5.62,5.62,5.62,5.62,5.62,5.62,5.62,5.62,5.62,5.62,5.62,5.62,5.62,5.62,5.62,5.62,5.62,5.62,5.62,5.62,5.62,0.0,0.0,0.0,0.0,0.0,0.0,0.0,0.0,2.1552,2.1866,0.0,0.0,0.0,0.0,2.1905,2.1905,2.1905,2.1963,2.209,2.209,2.2168,2.2305,2.2567,2.2693,2.2693,2.2819,2.2956,2.3101,2.2956,2.2975,2.3101,2.3101,2.356,2.4402,2.4559,2.5527,2.7037,2.7698,2.8611,2.9749,3.1034,3.2029,3.2828,3.3646,3.5129,3.6783,3.6783,3.7661,3.8781,3.8417,3.8291,3.8266,3.8065,3.814,3.8379,3.8793,3.9296,3.9772,4.0136,4.1192,4.245,4.3528,4.507,4.6712,4.8369,4.9473,5.0469,5.1599,5.226,5.2686,5.2887,5.3188,5.3758,5.4662,5.5006,5.5333,5.5867,5.5942,5.6018,5.6194,5.62,5.62,5.62,5.62,5.62,5.62,5.62,5.62,5.62,5.62,5.62,5.62,5.62,5.62,5.62,5.62,5.62,5.62,5.62,5.62,5.62,5.62,5.62,5.62,5.62,5.62,5.62,5.62,5.62,5.62,5.62,5.62,5.62,5.62,5.62,5.62,0.0,0.0,0.0,0.0,0.0,0.0,2.1846,2.1915,2.1924,2.1924,0.0,0.0,0.0,0.0,0.0,2.1935,2.1935,2.209,2.2489,2.2528,2.2693,2.3081,2.3101,2.3101,2.3101,2.2713,2.2713,2.3101,2.2713,2.2724,2.3155,2.3166,2.3636,2.4468,2.4953,2.5893,2.7204,2.9109,3.0409,3.1264,3.2171,3.3418,3.4656,3.4245,3.5879,3.8408,3.8408,3.9295,4.0362,3.9308,3.8969,3.8869,3.8266,3.8454,3.8919,3.8919,3.9283,3.9697,0.0,0.0,0.0,4.2199,4.4206,4.6361,4.6948,4.8369,4.9866,5.1013,5.1674,5.2234,5.2787,5.2887,5.3063,5.3607,5.4177,5.4773,5.5308,5.5383,5.5566,5.6093,5.615,5.6194,5.6194,5.6175,5.62,5.62,5.62,5.62,5.62,5.62,5.62,5.62,5.62,5.62,5.62,5.62,5.62,5.62,5.62,5.62,5.62,5.62,5.62,5.62,5.62,5.62,5.62,5.62,5.62,5.62,5.62,5.62,5.62,5.62,5.62,5.62,0.0,0.0,0.0,0.0,0.0,2.1855,2.2266,2.2333,2.2431,0.0,0.0,0.0,2.2771,2.2771,2.2771,2.2771,2.2771,2.283,2.2917,2.2936,2.2995,2.3092,2.3101,2.3101,2.3101,2.2995,2.2995,2.3101,2.2995,2.3419,2.4339,2.4734,2.5175,2.5681,2.6542,2.7707,2.9155,2.9976,3.1395,3.3192,3.4905,3.627,3.7375,3.8329,3.9407,4.0474,4.0474,4.0716,4.1038,4.0725,4.0638,4.0538,3.9985,3.9647,3.9484,3.9484,3.9584,3.9697,3.9697,0.0,0.0,0.0,0.0,0.0,4.611,4.7465,4.8686,4.9857,5.0837,5.1691,5.2226,5.231,5.2485,5.3038,5.3582,5.4152,5.4748,5.4805,5.4881,5.5031,5.5383,5.5616,5.5616,5.5968,5.62,5.62,5.62,5.62,5.62,5.62,5.62,5.62,5.62,5.62,5.62,5.62,5.62,5.62,5.62,5.62,5.62,5.62,5.62,5.62,5.62,5.62,5.62,5.62,5.62,5.62,5.62,5.62,5.62,5.62,5.62,5.62,0.0,0.0,2.163,2.207,2.2148,2.2285,2.2693,2.2752,2.2908,0.0,0.0,0.0,2.3619,2.3638,2.3638,2.3638,2.3638,2.356,2.3396,2.3396,2.3298,2.3112,2.3101,2.3101,2.3101,2.2936,2.3155,2.3811,2.3641,2.4064,2.508,2.5916,2.6354,2.6495,2.8014,2.9745,3.1533,3.2425,3.3679,3.5185,3.6788,3.8142,3.9317,4.027,4.1188,4.2044,4.2256,4.2331,4.2306,4.2094,4.1868,4.153,4.0738,4.0287,3.9998,3.9785,3.9697,3.9697,3.9697,4.0099,4.0663,4.1317,0.0,0.0,4.5181,4.6436,4.7666,4.9264,5.0134,5.0837,5.1624,5.195,5.2184,5.2511,5.3013,5.3582,5.4152,5.4228,5.4303,5.4572,5.4873,5.5056,5.5056,5.5541,5.5867,5.5867,5.6068,5.62,5.62,5.62,5.62,5.62,5.62,5.62,5.62,5.62,5.62,5.62,5.62,5.62,5.62,5.62,5.62,5.62,5.62,5.62,5.62,5.62,5.62,5.62,5.62,5.62,5.62,5.62,5.62,5.62,0.0,2.1669,2.209,2.2489,2.2567,2.2693,2.3053,2.314,2.3337,0.0,2.3878,2.4093,2.4442,2.452,2.4547,2.4547,2.45,2.4336,2.3976,2.3898,2.368,2.3268,2.333,2.3302,2.317,2.3029,2.3556,2.4798,2.4576,2.4914,2.5816,2.7022,2.7523,2.7474,2.9611,3.1794,3.3982,3.5473,3.6505,3.7294,3.8177,3.9447,4.0806,4.098,4.1915,4.3226,4.3714,4.389,4.3815,4.3327,4.2813,4.2199,4.1128,4.0738,4.0563,3.9973,3.9798,3.9785,3.9735,4.0049,4.0437,4.0487,4.1656,0.0,4.4177,4.5307,4.6728,4.8812,4.9289,4.969,5.0887,5.1498,5.1875,5.2,5.246,5.3013,5.3532,5.3607,5.3808,5.4353,5.4454,5.4496,5.4496,5.4981,5.5308,5.5308,5.5817,5.6143,5.62,5.62,5.62,5.62,5.62,5.62,5.62,5.62,5.62,5.62,5.62,5.62,5.62,5.62,5.62,5.62,5.62,5.62,5.62,5.62,5.62,5.62,5.62,5.62,5.62,5.62,5.62,5.62,2.2177,2.2314,2.2509,2.2917,2.2995,2.3014,2.3092,2.3426,2.3691,2.3781,2.4418,2.4867,2.4945,2.5242,2.5464,2.5464,2.5156,2.4926,2.4848,2.4492,2.4246,2.4157,2.4658,2.4553,2.3675,2.5009,2.5418,2.4798,2.5637,2.6783,2.8228,2.8975,2.9695,3.0437,3.2113,3.367,3.5131,3.6204,3.7856,3.9794,3.9992,4.1037,4.2521,4.2557,4.3287,4.4303,4.4403,4.4453,4.4428,4.4328,4.394,4.3377,4.2724,4.221,4.1658,4.0651,4.0337,4.0236,3.9823,3.9772,3.9948,4.0387,4.1076,0.0,4.3076,4.4166,4.5307,4.6677,4.729,4.8068,4.964,5.0017,5.0393,5.1314,5.19,5.2435,5.2988,5.3063,5.3113,5.3213,5.3607,5.3884,5.3884,5.4403,5.4773,5.4773,5.5257,5.5742,5.6194,5.62,5.62,5.62,5.62,5.62,5.62,5.62,5.62,5.62,5.62,5.62,5.62,5.62,5.62,5.62,5.62,5.62,5.62,5.62,5.62,5.62,5.62,5.62,5.62,5.62,5.62,5.62,2.247,2.2654,2.2858,2.3062,2.3298,2.3446,2.3446,2.4035,2.4523,2.4715,2.5715,2.6404,2.6404,2.677,2.6999,2.6999,2.6816,2.6497,2.6086,2.584,2.5418,2.4777,2.566,2.5797,2.5056,2.653,2.7295,2.7283,2.7863,2.8665,2.9664,3.0587,3.1369,3.2112,3.3757,3.5318,3.6751,3.7816,3.9448,4.1343,4.1343,4.1996,4.3126,4.4231,4.497,4.5533,4.606,4.6261,4.621,4.5944,4.5683,4.5257,4.4141,4.3614,4.3126,4.1744,4.1343,4.1167,4.0325,4.0099,4.0099,4.0099,4.07,0.0,0.0,4.3427,4.4529,4.5673,4.6311,4.7039,4.8143,4.8812,4.948,5.0334,5.0896,5.1456,5.2026,5.2561,5.2895,5.2895,5.3138,5.3289,5.3289,5.3808,5.4278,5.4572,5.5107,5.5516,5.5792,5.605,5.62,5.62,5.62,5.62,5.62,5.62,5.62,5.62,5.62,5.62,5.62,5.62,5.62,5.62,5.62,5.62,5.6226,5.6502,5.6602,5.6577,5.6301,5.6351,5.6602,5.6602,5.6778,5.7047,2.2626,2.2888,2.3131,2.3209,2.3555,2.3859,2.4015,2.4719,2.541,2.6023,2.7168,2.7936,2.7936,2.8295,2.8549,2.8549,2.847,2.8125,2.7409,2.7555,2.7219,2.6183,2.7369,2.7811,2.7255,2.8318,2.9244,2.996,3.0065,3.0392,3.0941,3.1932,3.2794,3.3642,3.5138,3.6685,3.8241,3.9371,4.0765,4.2238,4.2551,4.3065,4.3829,4.5733,4.6512,4.6737,4.7732,4.8134,4.8159,4.7741,4.7575,4.7299,4.5733,4.5231,4.4905,4.3165,4.2663,4.2386,4.1153,4.0827,4.0701,4.0149,4.0738,4.1592,0.0,0.0,0.0,4.4945,4.5522,4.606,4.6798,4.7707,4.8426,4.8777,4.954,5.0142,5.0309,5.1532,5.246,5.2586,5.2686,5.2762,5.2762,5.3213,5.3783,5.4378,5.483,5.5182,5.5408,5.5817,5.6075,5.62,5.62,5.62,5.62,5.62,5.62,5.62,5.62,5.62,5.62,5.62,5.62,5.62,5.6301,5.6351,5.6401,5.6953,5.7161,5.7129,5.6702,5.6803,5.7161,5.7161,5.7481,5.7901,2.3023,2.3073,2.3229,2.3652,2.3761,2.4054,2.4828,2.5352,2.6069,2.7298,2.8236,2.8756,2.8756,2.9174,2.9461,2.9461,2.9062,2.8795,2.8684,2.9561,3.0033,2.9886,3.1376,3.1716,3.067,3.1353,3.1332,3.052,3.0991,3.1772,3.2796,3.2925,3.4079,3.6029,3.6723,3.7675,3.8869,3.9948,4.1103,4.2324,4.374,4.498,4.5984,4.6722,4.7299,4.7807,4.8451,4.9003,4.9389,4.9339,4.9314,4.9113,4.7908,4.7516,4.7089,4.4955,4.4328,4.3976,4.2436,4.1998,4.1858,4.1277,4.1605,4.2123,4.2174,0.0,4.3251,4.3865,0.0,4.4568,4.611,0.0,0.0,4.6039,4.7672,4.8476,4.7079,4.9072,5.0879,5.1414,5.19,5.2201,5.2201,5.2686,5.3213,5.3758,5.3858,5.4336,5.5358,5.5458,5.5717,5.6175,5.62,5.62,5.62,5.62,5.62,5.62,5.62,5.62,5.62,5.62,5.62,5.6244,5.6684,5.691,5.696,5.7531,5.7801,5.7801,5.7725,5.775,5.7801,5.7801,5.7851,5.7901,2.3209,2.3318,2.3563,2.3781,2.4414,2.5027,2.5379,2.6452,2.7598,2.866,2.9545,3.0059,3.0059,3.0678,3.1006,3.0723,3.1305,3.1629,3.1468,3.2359,3.2801,3.2646,3.3675,3.3742,3.2674,3.3602,3.3729,3.2985,3.3191,3.356,3.4022,3.4022,3.5027,3.6859,3.711,3.8178,3.9898,4.1016,4.2297,4.374,4.5382,4.6913,4.8234,4.8469,4.9113,4.9907,5.0159,5.0385,5.0586,5.0586,5.0586,5.0385,4.9238,4.9113,4.8921,4.6697,4.6271,4.6085,4.4116,4.3589,4.3388,4.2509,4.271,4.3126,4.3126,4.3302,4.3528,4.374,0.0,0.0,0.0,0.0,0.0,0.0,4.6527,4.7205,4.6838,4.8018,4.9398,5.0645,5.1272,5.1749,5.2076,5.2586,5.2995,5.3213,5.3532,5.3909,5.4386,5.5039,5.5491,5.5717,5.6043,5.62,5.62,5.62,5.62,5.62,5.62,5.62,5.62,5.62,5.6376,5.6677,5.6885,5.7204,5.7556,5.8133,5.8359,5.8384,5.8704,5.8654,5.8359,5.8359,5.8554,5.883,2.358,2.3739,2.4043,2.4277,2.5093,2.5862,2.6342,2.778,2.9082,2.9872,3.06,3.1343,3.2056,3.2171,3.2478,3.318,3.3642,3.4022,3.4267,3.5273,3.5674,3.5343,3.605,3.6035,3.5126,3.5683,3.5782,3.5392,3.5079,3.5079,3.5392,3.5241,3.6056,3.7663,3.7663,3.873,4.0563,4.1708,4.3126,4.474,4.6421,4.8294,5.0083,5.0083,5.067,5.1515,5.1515,5.1599,5.1724,5.1724,5.1724,5.1574,5.0594,5.0553,5.0477,4.857,4.8168,4.7958,4.6035,4.5407,4.5031,4.3955,4.398,4.4217,4.4066,4.4016,4.3991,4.384,4.379,0.0,0.0,0.0,4.4443,4.4558,0.0,4.5809,4.5759,4.6612,4.7857,4.9524,5.0368,5.1163,5.2026,5.246,5.2737,5.2895,5.3264,5.354,5.3683,5.4486,5.5082,5.5408,5.5767,5.6068,5.62,5.62,5.62,5.62,5.62,5.62,5.62,5.6351,5.6627,5.701,5.7336,5.7706,5.8152,5.8685,5.8911,5.8961,5.9357,5.9257,5.8911,5.8911,5.9182,5.9483,2.4352,2.4371,2.4645,2.5491,2.5667,2.6264,2.7949,2.9316,3.0312,3.0796,3.123,3.2435,3.4987,3.3422,3.3657,3.7278,3.5683,3.5126,3.6692,3.8148,3.8713,3.819,3.9065,3.9307,3.8743,3.7688,3.7148,3.7123,3.6008,3.6033,3.7098,3.6594,3.7248,3.8843,3.8843,3.9459,4.0563,4.1708,4.3126,4.474,4.6421,4.8771,5.1239,5.1239,5.1574,5.2076,5.2076,5.241,5.2845,5.2845,5.2845,5.2744,5.2201,5.2026,5.1825,5.0628,4.9941,4.9289,4.8109,4.7415,4.6747,4.5673,4.5437,4.5296,4.4704,4.4564,4.4428,4.3915,4.379,4.379,4.379,4.3815,4.3503,0.0,4.3628,0.0,0.0,4.422,4.6175,4.7782,4.8962,5.0293,5.195,5.2126,5.2335,5.2845,5.2937,5.3163,5.3683,5.3733,5.426,5.5383,5.5433,5.5666,5.6175,5.62,5.62,5.62,5.62,5.62,5.62,5.6753,5.6985,5.706,5.8183,5.866,5.871,5.9257,5.9458,5.9483,5.9483,5.9483,5.9458,5.9458,5.9483,5.9483,2.7441,2.674,2.603,2.5745,2.6654,2.7897,2.9336,3.019,3.1207,3.269,3.3817,3.4791,3.5584,3.6633,3.7252,3.7079,3.8291,3.9323,3.9974,4.1066,4.1592,4.1419,4.1375,4.0753,3.9459,3.9057,3.8467,3.7739,3.735,3.735,3.7739,3.7538,3.7977,3.8919,3.9271,4.0237,4.1733,4.3162,4.4729,4.6471,4.8912,5.067,5.1825,5.1825,5.2159,5.2636,5.2636,5.2762,5.2895,5.2895,5.2895,5.2812,5.2277,5.2335,5.241,5.1322,5.1122,5.1021,4.985,4.9423,4.9022,4.7948,4.7672,4.7521,4.6928,4.6235,4.5683,4.5482,4.4855,4.4328,4.4328,4.4027,4.3689,0.0,0.0,4.389,0.0,4.4217,4.5382,4.6687,4.7807,4.8987,5.0318,5.1122,5.18,5.2335,5.2711,5.2988,5.3163,5.3507,5.4059,5.4848,5.5207,5.5641,5.6175,5.62,5.62,5.62,5.62,5.62,5.62,5.6753,5.723,5.765,5.8384,5.8886,5.9257,5.9433,5.9483,5.9483,5.9483,5.9483,5.9483,5.9483,5.9483,5.9483,3.0042,2.9458,2.8452,2.6902,2.8357,3.0117,3.115,3.2117,3.3407,3.5272,3.6289,3.7323,3.8552,3.958,4.0244,4.0382,4.1555,4.2664,4.3518,4.3776,4.3879,4.3879,4.3165,4.2085,4.0614,4.0375,3.981,3.8881,3.8517,3.8417,3.8592,3.8417,3.863,3.922,3.9747,4.0815,4.2299,4.3915,4.5683,4.7641,5.0444,5.1774,5.2126,5.231,5.2611,5.2895,5.2895,5.2895,5.2895,5.2895,5.2895,5.2837,5.2485,5.2611,5.2744,5.2076,5.1975,5.195,5.1205,5.087,5.0494,4.9606,4.938,4.9229,4.8636,4.7832,4.7129,4.6928,4.5984,4.5206,4.5206,4.4579,4.4166,0.0,0.0,4.374,0.0,4.3815,4.4378,4.5296,4.6552,4.7933,4.9439,5.0259,5.1088,5.2026,5.241,5.2711,5.2895,5.3239,5.3683,5.4253,5.4805,5.5365,5.5917,5.61,5.62,5.62,5.62,5.6301,5.6502,5.7054,5.7631,5.8227,5.8736,5.9182,5.9483,5.9483,5.9483,5.9483,5.9483,5.9483,5.9483,5.9483,5.9483,5.9483,3.2097,3.2371,3.1783,2.9113,3.082,3.2727,3.3275,3.4976,3.6769,3.8296,3.8596,4.0028,4.3548,4.2257,4.2708,4.672,4.5289,4.5046,4.7057,4.6225,4.5638,4.5587,4.4518,4.3427,4.235,4.1692,4.1102,4.0538,3.9484,3.9245,3.9697,3.922,3.9233,3.9785,4.0362,4.1254,4.2425,4.4041,4.6035,4.8294,5.1021,5.2126,5.2201,5.2737,5.2937,5.2937,5.2937,5.2945,5.2988,5.2988,5.2988,5.2988,5.2962,5.2937,5.292,5.2895,5.2536,5.2151,5.2151,5.1766,5.1239,5.0628,5.0477,5.0327,4.9816,4.928,4.8727,4.8134,4.7179,4.6411,4.6411,4.5482,4.4905,4.5462,0.0,4.3639,4.3115,4.3039,4.3226,4.379,4.5257,4.7104,4.9213,4.9515,5.0243,5.19,5.2076,5.2335,5.2887,5.2895,5.3163,5.3683,5.4278,5.4873,5.5408,5.5942,5.62,5.62,5.62,5.6477,5.701,5.7606,5.8183,5.8736,5.9282,5.9483,5.9483,5.9483,5.9483,5.9483,5.9483,5.9483,5.9483,5.9483,5.9483,5.9483,3.4949,3.4476,3.3959,3.3704,3.4254,3.4574,3.4183,3.6231,3.8222,3.9355,4.1237,4.2978,4.4293,4.5809,4.6652,4.6448,4.7478,4.8215,4.8344,4.8099,4.7556,4.6737,4.6035,4.5131,4.4016,4.3037,4.2082,4.1088,4.0412,3.9948,3.971,3.9973,4.0161,4.0375,4.1744,4.2961,4.4077,4.5744,4.7992,5.0535,5.1649,5.2335,5.2762,5.3289,5.349,5.349,5.349,5.3783,5.4152,5.4152,5.4152,5.4102,5.3632,5.349,5.3432,5.3013,5.2795,5.2686,5.2686,5.2586,5.236,5.1783,5.1657,5.1523,5.0987,5.0419,4.9967,4.98,4.8912,4.8149,4.8149,4.723,4.6371,4.6135,4.5131,4.4202,4.3664,4.3589,4.379,4.4328,4.5171,4.6075,4.7039,4.8275,4.9506,5.0728,5.1607,5.2335,5.2887,5.2895,5.3163,5.3683,5.4278,5.4873,5.5408,5.5942,5.62,5.62,5.62,5.6477,5.701,5.7606,5.8183,5.8736,5.9282,5.9483,5.9483,5.9483,5.9483,5.9483,5.9483,5.9483,5.9483,5.9483,5.9483,5.9483,3.7615,3.7571,3.7719,3.8336,3.8815,3.8695,3.7385,3.942,4.1561,4.2895,4.4565,4.6017,4.7035,4.8543,4.921,4.8493,4.9611,5.0309,5.0259,4.9782,4.9213,4.8554,4.7807,4.6853,4.5719,4.4644,4.3539,4.2381,4.163,4.0953,4.0412,4.07,4.0989,4.1292,4.2473,4.3754,4.5146,4.7541,4.975,5.1699,5.2234,5.2762,0.0,5.3582,5.4009,5.4436,5.4436,5.4504,5.4597,5.4597,5.4597,5.4547,5.4202,5.4102,5.4027,5.3733,5.3632,5.3582,5.3314,5.3239,5.3113,5.2586,5.246,5.236,5.2076,5.1574,5.113,5.113,5.0268,4.9581,4.9832,4.8962,4.7917,4.7114,4.6245,4.5417,4.4644,4.4543,4.4568,4.4604,4.5121,4.5638,4.5924,4.7672,4.9154,4.9992,5.1122,5.1975,5.2511,5.2787,5.3038,5.3339,5.4152,5.4748,5.5056,5.5817,5.62,5.62,5.62,5.6602,5.7405,5.775,5.8328,5.9081,5.9357,5.9483,5.9483,5.9483,5.9483,5.9483,5.9483,5.9483,5.9483,5.9483,5.9483,5.9483,4.0036,4.0839,4.1742,4.2386,4.3352,4.35,4.1968,4.3609,4.5519,4.6922,4.7752,4.8796,5.0352,5.0578,5.0829,5.1364,5.1465,5.1691,5.2076,5.1155,5.0578,5.0503,4.9556,4.851,4.745,4.6376,4.5236,4.4016,4.3014,4.2171,4.1528,4.159,4.1907,4.245,4.314,4.4407,4.624,4.9314,5.118,5.2151,5.2686,5.3213,5.3708,5.3783,5.4461,5.5408,5.5483,5.5207,5.4823,5.4823,5.4823,5.4798,5.4723,5.4697,5.4697,5.4622,5.4597,5.4496,5.3959,5.3808,5.3708,5.3239,5.3063,5.2995,5.2995,5.2586,5.2184,5.2184,5.1356,5.0779,5.1314,5.0469,4.9389,4.8385,4.7716,4.6963,4.5949,0.0,0.0,0.0,4.5382,0.0,4.5813,4.7546,4.8903,4.9439,5.0611,5.154,5.2076,5.2611,5.2895,5.2895,5.4027,5.4597,5.4597,5.5666,5.62,5.62,5.62,5.6796,5.7901,5.7901,5.8478,5.9483,5.9483,5.9483,5.9483,5.9483,5.9483,5.9483,5.9483,5.9483,5.9483,5.9483,5.9483,5.9483,4.1772,4.2286,4.3011,4.4016,4.4744,4.5524,4.6508,4.7036,4.7249,4.7036,4.8747,5.0252,5.1063,5.1548,5.1833,5.195,5.236,5.246,5.2126,5.1925,5.1599,5.1163,5.0494,4.98,4.9188,4.8058,4.6728,4.5211,4.4518,4.3664,4.2724,4.3162,4.3413,4.3589,4.507,4.6903,4.9012,5.0971,5.1925,5.2151,5.2686,5.3213,5.3758,5.4253,5.483,5.5458,5.5917,5.6018,5.5917,5.5917,5.5917,5.5842,5.5408,5.5257,5.5182,5.4723,5.4597,5.4572,5.4471,5.4446,5.4421,5.4346,5.3926,5.3557,5.3557,5.3138,5.2762,5.2762,5.226,5.1833,5.195,5.1046,5.0201,5.0001,4.9138,4.8275,4.7581,4.7089,0.0,0.0,0.0,4.6973,4.7431,4.7832,4.8284,4.8894,5.041,5.154,5.2076,5.2611,5.2895,5.2895,5.4027,5.4597,5.4597,5.5666,5.62,5.62,5.62,5.6796,5.7901,5.7901,5.8478,5.9483,5.9483,5.9483,5.9483,5.9483,5.9483,5.9483,5.9483,5.9483,5.9483,5.9483,5.9483,5.9483,4.3843,4.4331,4.5045,4.611,4.6803,4.7672,4.8997,4.9699,4.9865,4.9313,5.0439,5.1498,5.2076,5.236,5.2511,5.2511,5.2762,5.2787,5.2536,5.2511,5.2277,5.1724,5.1448,5.1021,5.0485,4.964,4.8535,4.7195,4.6602,4.5759,4.4733,4.497,4.5246,4.5583,4.7265,4.8937,5.0561,5.1649,5.226,5.2561,5.3088,5.3658,5.4228,5.4805,5.5358,5.5842,5.6118,5.62,5.62,5.62,5.62,5.615,5.5892,5.5817,5.5767,5.5509,5.5433,5.5383,5.5082,5.5006,5.4956,5.4672,5.4378,5.4177,5.4177,5.3976,5.3683,5.3364,5.313,5.2837,5.2561,5.1833,5.1281,5.1281,5.0611,4.9882,4.9273,4.8955,4.872,0.0,0.0,0.0,4.8375,4.8611,4.8887,4.9179,5.051,5.154,5.2076,5.2611,5.2895,5.2895,5.4027,5.4597,5.4597,5.5666,5.62,5.62,5.6477,5.7054,5.7901,5.8202,5.8755,5.9483,5.9483,5.9483,5.9483,5.9483,5.9483,5.9483,5.9483,5.9483,5.9483,5.9483,5.9483,5.9483,4.5939,4.6552,4.729,4.8269,4.8812,4.9506,5.0603,5.1507,5.195,5.154,5.195,5.2435,5.2845,5.3013,5.3063,5.3063,5.3188,5.3264,5.3264,5.3138,5.2887,5.2477,5.2327,5.2026,5.149,5.1005,5.0243,4.9129,4.8661,4.7566,4.5959,4.6662,4.729,4.7851,4.9314,5.0535,5.1515,5.2051,5.2586,5.3113,5.3532,5.4127,5.4823,5.5232,5.5742,5.62,5.6326,5.6376,5.6376,5.6502,5.6477,5.6376,5.6376,5.6451,5.6552,5.6552,5.6451,5.6276,5.5867,5.5641,5.5465,5.5056,5.4856,5.4773,5.4773,5.4672,5.4471,5.4002,5.3783,5.3582,5.3163,5.2636,5.2277,5.2277,5.1825,5.1297,5.0829,5.0653,5.0427,0.0,0.0,0.0,4.9371,4.9606,4.9866,5.0117,5.0862,5.154,5.2076,5.2611,5.2895,5.2895,5.4027,5.4597,5.4597,5.5666,5.62,5.62,5.6734,5.733,5.7926,5.8459,5.8987,5.9483,5.9483,5.9483,5.9483,5.9483,5.9483,5.9483,5.9483,5.9483,5.9483,5.9483,5.9483,5.9483,4.7666,4.856,4.9464,5.0051,5.0201,5.0628,5.1774,5.2026,5.2076,5.2026,5.2485,5.2845,5.2895,5.3339,5.3632,5.3632,5.4127,5.4446,5.4446,5.3926,5.3607,5.3557,5.3088,5.2561,5.2051,5.1975,5.1398,5.0252,5.0201,4.8319,4.483,4.7883,4.959,5.0126,5.0837,5.1465,5.2076,5.2611,5.3138,5.3632,5.3683,5.4361,5.5333,5.5383,5.5742,5.6251,5.6734,5.6935,5.701,5.7575,5.738,5.6935,5.6935,5.7305,5.775,5.775,5.7355,5.691,5.686,5.6502,5.61,5.605,5.5691,5.5333,5.5333,5.4956,5.4572,5.4522,5.4077,5.3683,5.3632,5.3188,5.2837,5.2837,5.2377,5.2,5.195,5.1523,5.1188,5.1138,0.0,0.0,5.1013,5.0619,5.0754,5.18,5.1515,5.154,5.2076,5.2611,5.2895,5.2895,5.4027,5.4597,5.4597,5.5666,5.62,5.62,5.6734,5.733,5.7926,5.8459,5.8987,5.9483,5.9483,5.9483,5.9483,5.9483,5.9483,5.9483,5.9483,5.9483,5.9483,5.9483,5.9483,5.9483,4.9866,5.0309,5.0787,5.1322,5.1406,5.1682,5.246,5.2837,5.3055,5.3055,5.3256,5.3364,5.3364,5.3884,5.4228,5.4228,5.4454,5.4597,5.4597,5.4353,5.4228,5.4228,5.3683,5.3281,5.308,5.2737,5.2209,5.1406,5.1406,5.0469,4.8661,4.9992,5.0896,5.1431,5.1674,5.2076,5.2611,5.3138,5.349,5.3758,5.4436,5.4988,5.5465,5.6118,5.6502,5.6753,5.733,5.7531,5.76,5.7826,5.775,5.7531,5.7531,5.77,5.7901,5.7901,5.7725,5.7531,5.7531,5.7399,5.7223,5.7223,5.7047,5.6796,5.6426,5.6175,5.5867,5.5207,5.4629,5.4228,5.4228,5.4077,5.3808,5.3439,5.3188,5.2955,5.2636,5.2385,5.226,5.226,5.2059,5.1858,5.1774,5.1574,5.1624,5.2076,5.19,5.2026,5.2561,5.2787,5.2895,5.2895,5.4027,5.4597,5.4597,5.5666,5.62,5.62,5.7104,5.7675,5.7926,5.8805,5.9307,5.9483,5.9483,5.9483,5.9483,5.9483,5.9483,5.9483,5.9483,5.9483,5.9483,5.9483,5.9483,5.9483,5.1448,5.1649,5.1925,5.2477,5.2578,5.2754,5.3314,5.3708,5.3959,5.3959,5.411,5.4135,5.3984,5.4479,5.4848,5.4848,5.4981,5.5056,5.5056,5.4906,5.4848,5.4848,5.4278,5.3959,5.3959,5.3432,5.2937,5.2578,5.241,5.1649,5.0309,5.0309,5.1021,5.2335,5.2503,5.2762,5.3163,5.3733,5.4059,5.426,5.5082,5.5591,5.5968,5.6728,5.7111,5.7355,5.7926,5.8152,5.8152,5.8328,5.8378,5.8353,5.8177,5.8252,5.8378,5.8378,5.8252,5.8152,5.8152,5.8027,5.7901,5.7901,5.7901,5.7801,5.7355,5.7255,5.7004,5.6068,5.5458,5.5006,5.4856,5.4723,5.4454,5.4027,5.3959,5.3758,5.3213,5.3138,5.3088,5.2937,5.2895,5.2762,5.236,5.2352,5.2352,5.2352,5.2352,5.2511,5.2887,5.2895,5.297,5.3138,5.4102,5.4672,5.483,5.5742,5.6276,5.6451,5.7424,5.7976,5.8177,5.9081,5.9483,5.9483,5.9483,5.9483,5.9483,5.9483,5.9483,5.9483,5.9483,5.9483,5.9483,5.9483,5.9483,5.9483,5.2101,5.2511,5.3063,5.3582,5.3683,5.3884,5.4496,5.4572,5.4597,5.4597,5.5056,5.5182,5.4647,5.5056,5.5408,5.5408,5.5867,5.6175,5.6175,5.5691,5.5408,5.5408,5.4881,5.4597,5.4597,5.4002,5.3683,5.3683,5.3163,5.1205,4.7942,4.7942,4.9699,5.2895,5.3439,5.3683,5.3733,5.4328,5.4881,5.5383,5.5408,5.6043,5.6985,5.6985,5.738,5.7951,5.8485,5.8685,5.8761,5.9307,5.9483,5.9382,5.8861,5.9037,5.9483,5.9483,5.9106,5.8685,5.8685,5.8284,5.7901,5.7901,5.7901,5.7901,5.7901,5.7901,5.7725,5.7111,5.6552,5.6018,5.5509,5.4956,5.4597,5.4597,5.4597,5.4396,5.3783,5.3683,5.349,5.2945,5.2895,5.2895,5.2895,5.2895,5.2895,5.2895,5.2895,5.2895,5.2895,5.2895,5.3138,5.3683,5.4278,5.4856,5.5383,5.5942,5.6477,5.6985,5.7606,5.8177,5.871,5.9257,5.9483,5.9483,5.9483,5.9483,5.9483,5.9483,5.9483,5.9483,5.9483,5.9483,5.9483,5.9483,5.9483,5.9483,5.3725,5.3951,5.4127,5.4278,5.4303,5.4396,5.4572,5.4906,5.5157,5.5157,5.5942,5.6426,5.6251,5.605,5.5942,5.5942,5.61,5.62,5.62,5.6043,5.5942,5.5942,5.5433,5.5157,5.5157,5.4604,5.4303,5.4303,5.4152,5.3524,5.2469,5.2469,5.3047,5.4077,5.4228,5.4303,5.4353,5.4906,5.5232,5.544,5.62,5.6702,5.7085,5.7863,5.8284,5.8529,5.9056,5.9257,5.9282,5.9433,5.9483,5.9458,5.9307,5.9357,5.9483,5.9483,5.9382,5.9257,5.9257,5.9131,5.8981,5.8981,5.8981,5.8905,5.8535,5.8177,5.7851,5.7631,5.7474,5.7198,5.6602,5.6351,5.6018,5.5257,5.5157,5.4956,5.4378,5.4303,5.4253,5.4077,5.4077,5.3884,5.3507,5.3457,5.3289,5.2937,5.2895,5.2895,5.2895,5.3239,5.3532,5.3683,5.4655,5.5232,5.5408,5.5942,5.6477,5.701,5.7606,5.8378,5.9257,5.9408,5.9483,5.9483,5.9483,5.9483,5.9483,5.9483,5.9483,5.9483,5.9483,5.9483,5.9483,5.9483,5.9483,5.9483,5.4522,5.4597,5.4672,5.4873,5.4906,5.5031,5.5458,5.5792,5.6093,5.6294,5.6903,5.7355,5.7355,5.7029,5.6846,5.6846,5.6846,5.6846,5.6846,5.6846,5.6728,5.6502,5.6194,5.5917,5.5691,5.5182,5.4906,5.4906,5.4697,5.4597,5.4597,5.4597,5.4597,5.4622,5.4823,5.4906,5.4956,5.5691,5.6018,5.6093,5.6979,5.7455,5.7732,5.8434,5.8836,5.9037,5.9382,5.9483,5.9483,5.9483,5.9483,5.9483,5.9483,5.9483,5.9483,5.9483,5.9483,5.9483,5.9483,5.9483,5.9483,5.9483,5.9483,5.9408,5.9081,5.8755,5.8453,5.8252,5.8183,5.8008,5.7455,5.7355,5.7054,5.6168,5.6018,5.5742,5.5006,5.4906,5.4823,5.4622,5.4597,5.4454,5.4077,5.4052,5.3884,5.3557,5.3532,5.3532,5.3532,5.3632,5.3909,5.431,5.5031,5.5509,5.5691,5.6226,5.6778,5.7355,5.8127,5.8855,5.9483,5.9483,5.9483,5.9483,5.9483,5.9483,5.9483,5.9483,5.9483,5.9483,5.9483,5.9483,5.9483,5.9483,5.9483,5.9483,5.4697,5.4748,5.4906,5.5415,5.5559,5.5917,5.691,5.706,5.7255,5.7826,5.7926,5.7951,5.7951,5.7976,5.8001,5.8001,5.7951,5.7901,5.7901,5.7901,5.765,5.7085,5.706,5.6828,5.6344,5.5792,5.5491,5.5458,5.4974,5.4723,5.4723,5.4723,5.4723,5.4748,5.5282,5.5491,5.5566,5.6627,5.706,5.7111,5.7706,5.8234,5.871,5.8736,5.9081,5.9483,5.9483,5.9483,5.9483,5.9483,5.9483,5.9483,5.9483,5.9483,5.9483,5.9483,5.9483,5.9483,5.9483,5.9483,5.9483,5.9483,5.9483,5.9483,5.9483,5.9483,5.9357,5.8861,5.8761,5.8585,5.8052,5.7951,5.7775,5.7161,5.706,5.6702,5.5691,5.5559,5.5333,5.4823,5.4748,5.4697,5.4672,5.4672,5.4647,5.4597,5.4597,5.4622,5.4647,5.411,5.431,5.5383,5.5458,5.5717,5.6251,5.6734,5.733,5.7976,5.9006,5.9483,5.9483,5.9483,5.9483,5.9483,5.9483,5.9483,5.9483,5.9483,5.9483,5.9483,5.9483,5.9483,5.9483,5.9483,5.9483,5.9483,5.5742,5.615,5.6477,5.6602,5.7004,5.7399,5.765,5.77,5.775,5.7876,5.8278,5.8504,5.8497,5.8874,5.9106,5.9106,5.8378,5.7901,5.7901,5.7901,5.7851,5.77,5.77,5.7625,5.7499,5.6928,5.6426,5.6018,5.5892,5.5817,5.5817,5.5817,5.5817,5.5842,5.6376,5.6627,5.6677,5.738,5.77,5.775,5.8284,5.8585,5.8736,5.9156,5.9382,5.9483,5.9483,5.9483,5.9483,5.9483,5.9483,5.9483,5.9483,5.9483,5.9483,5.9483,5.9483,5.9483,5.9483,5.9483,5.9483,5.9483,5.9483,5.9483,5.9483,5.9483,5.9458,5.9332,5.9307,5.9156,5.861,5.851,5.8334,5.7775,5.77,5.76,5.7349,5.6903,5.6577,5.6451,5.6068,5.5666,5.5257,5.5207,5.5031,5.4622,5.4597,5.4773,5.5182,5.5082,5.5132,5.5408,5.5792,5.6276,5.6809,5.6935,5.7506,5.851,5.9182,5.9483,5.9483,5.9483,5.9483,5.9483,5.9483,5.9483,5.9483,5.9483,5.9483,5.9483,5.9483,5.9483,5.9483,5.9483,5.9483,5.9483,5.6922,5.7204,5.7405,5.7405,5.7681,5.7976,5.8227,5.8278,5.8334,5.8604,5.8861,5.9081,5.9075,5.9326,5.9483,5.9483,5.8956,5.8629,5.8629,5.8629,5.8529,5.8278,5.8278,5.8152,5.7901,5.76,5.7255,5.6972,5.6972,5.6972,5.6972,5.6972,5.6972,5.6997,5.728,5.7405,5.7455,5.8008,5.8278,5.8328,5.8855,5.9081,5.9106,5.9382,5.9483,5.9483,5.9483,5.9483,5.9483,5.9483,5.9483,5.9483,5.9483,5.9483,5.9483,5.9483,5.9483,5.9483,5.9483,5.9483,5.9483,5.9483,5.9483,5.9483,5.9483,5.9483,5.9483,5.9483,5.9483,5.9408,5.9131,5.9081,5.8905,5.8334,5.8278,5.8177,5.7926,5.7606,5.7405,5.7405,5.7154,5.6872,5.657,5.6545,5.6438,5.6136,5.6111,5.6237,5.6538,5.6545,5.642,5.6143,5.6401,5.6853,5.7405,5.7656,5.8208,5.9062,5.9357,5.9483,5.9483,5.9483,5.9483,5.9483,5.9483,5.9483,5.9483,5.9483,5.9483,5.9483,5.9483,5.9483,5.9483,5.9483,5.9483,5.9483,5.7901,5.7976,5.8027,5.8027,5.8102,5.8303,5.8736,5.8811,5.8987,5.9433,5.9483,5.9483,5.9483,5.9483,5.9483,5.9483,5.9483,5.9483,5.9483,5.9483,5.9307,5.8836,5.8811,5.861,5.8152,5.8052,5.7976,5.7901,5.7901,5.7901,5.7901,5.7901,5.7901,5.7901,5.7976,5.8027,5.8052,5.8585,5.8811,5.8861,5.9307,5.9483,5.9483,5.9483,5.9483,5.9483,5.9483,5.9483,5.9483,5.9483,5.9483,5.9483,5.9483,5.9483,5.9483,5.9483,5.9483,5.9483,5.9483,5.9483,5.9483,5.9483,5.9483,5.9483,5.9483,5.9483,5.9483,5.9483,5.9483,5.9483,5.9483,5.9483,5.9357,5.8886,5.8811,5.866,5.8202,5.8077,5.8027,5.8027,5.7951,5.7901,5.7901,5.7901,5.7901,5.7901,5.7901,5.7901,5.7901,5.7901,5.7681,5.7261,5.7179,5.743,5.8001,5.8535,5.9056,5.9483,5.9483,5.9483,5.9483,5.9483,5.9483,5.9483,5.9483,5.9483,5.9483,5.9483,5.9483,5.9483,5.9483,5.9483,5.9483,5.9483,5.9483,5.9483,5.7901,5.8259,5.8585,5.8585,5.8956,5.9282,5.9357,5.9382,5.9408,5.9483,5.9483,5.9483,5.9483,5.9483,5.9483,5.9483,5.9483,5.9483,5.9483,5.9483,5.9458,5.9382,5.9382,5.9332,5.9257,5.8811,5.8334,5.7901,5.7901,5.7901,5.7901,5.7901,5.7901,5.7926,5.8359,5.8585,5.861,5.9156,5.9382,5.9382,5.9458,5.9483,5.9483,5.9483,5.9483,5.9483,5.9483,5.9483,5.9483,5.9483,5.9483,5.9483,5.9483,5.9483,5.9483,5.9483,5.9483,5.9483,5.9483,5.9483,5.9483,5.9483,5.9483,5.9483,5.9483,5.9483,5.9483,5.9483,5.9483,5.9483,5.9483,5.9483,5.9458,5.9382,5.9382,5.9332,5.9257,5.8861,5.8585,5.8585,5.8177,5.7901,5.7901,5.7901,5.7901,5.7901,5.7901,5.7901,5.7901,5.7901,5.8077,5.8434,5.8001,5.8008,5.856,5.9106,5.9408,5.9483,5.9483,5.9483,5.9483,5.9483,5.9483,5.9483,5.9483,5.9483,5.9483,5.9483,5.9483,5.9483,5.9483,5.9483,5.9483,5.9483,5.9483,5.9483,5.8755,5.8956,5.9131,5.9131,5.9332,5.9483,5.9483,5.9483,5.9483,5.9483,5.9483,5.9483,5.9483,5.9483,5.9483,5.9483,5.9483,5.9483,5.9483,5.9483,5.9483,5.9483,5.9483,5.9483,5.9483,5.9257,5.9006,5.8755,5.8755,5.8755,5.8755,5.8755,5.8755,5.878,5.9031,5.9131,5.9156,5.9382,5.9483,5.9483,5.9483,5.9483,5.9483,5.9483,5.9483,5.9483,5.9483,5.9483,5.9483,5.9483,5.9483,5.9483,5.9483,5.9483,5.9483,5.9483,5.9483,5.9483,5.9483,5.9483,5.9483,5.9483,5.9483,5.9483,5.9483,5.9483,5.9483,5.9483,5.9483,5.9483,5.9483,5.9483,5.9483,5.9483,5.9483,5.9483,5.9483,5.9282,5.9131,5.9131,5.8905,5.8755,5.8755,5.8755,5.8755,5.8755,5.8755,5.8755,5.8755,5.8755,5.888,5.9112,5.888,5.888,5.9131,5.9382,5.9483,5.9483,5.9483,5.9483,5.9483,5.9483,5.9483,5.9483,5.9483,5.9483,5.9483,5.9483,5.9483,5.9483,5.9483,5.9483,5.9483,5.9483,5.9483,5.9483,5.9483,5.9483,5.9483,5.9483,5.9483,5.9483,5.9483,5.9483,5.9483,5.9483,5.9483,5.9483,5.9483,5.9483,5.9483,5.9483,5.9483,5.9483,5.9483,5.9483,5.9483,5.9483,5.9483,5.9483,5.9483,5.9483,5.9483,5.9483,5.9483,5.9483,5.9483,5.9483,5.9483,5.9483,5.9483,5.9483,5.9483,5.9483,5.9483,5.9483,5.9483,5.9483,5.9483,5.9483,5.9483,5.9483,5.9483,5.9483,5.9483,5.9483,5.9483,5.9508,5.9633,5.9684,5.9709,5.9834,5.9904,5.9834,5.9558,5.9483,5.9483,5.9483,5.9483,5.9483,5.9483,5.9483,5.9483,5.9483,5.9483,5.9483,5.9483,5.9483,5.9483,5.9483,5.9483,5.9483,5.9483,5.9483,5.9483,5.9483,5.9483,5.9483,5.9483,5.9483,5.9483,5.9483,5.9483,5.9483,5.9483,5.9483,5.9483,5.9483,5.9483,5.9483,5.9483,5.9483,5.9483,5.9483,5.9483,5.9483,5.9483,5.9483,5.9483,5.9483,5.9483,5.9483,5.9483,5.9483,5.9483,5.9483,5.9483,5.9483,5.9483,5.9483,5.9483,5.9483,5.9483,5.9483,5.9483,5.9483,5.9483,5.9483,5.9483,5.9483,5.9483,5.9483,5.9483,5.9483,5.9483,5.9483,5.9483,5.9483,5.9483,5.9483,5.9483,5.9483,5.9483,5.9483,5.9483,5.9483,5.9483,5.9483,5.9483,5.9483,5.9483,5.9483,5.9483,5.9483,5.9483,5.9483,5.9483,5.9483,5.9483,5.9483,5.9483,5.9483,5.9483,5.9483,5.9483,5.9483,5.9483,5.9483,5.9483,5.9483,5.9483,5.9483,5.9483,5.9583,6.0066,6.0242,6.0342,6.0889,6.1085,6.0858,5.9784,5.9483,5.9483,5.9483,5.9483,5.9483,5.9483,5.9483,5.9483,5.9483,5.9483,5.9483,5.9483,5.9483,5.9483,5.9483,5.9483,5.9483,5.9483,5.9483,5.9483,5.9483,5.9483,5.9483,5.9483,5.9483,5.9483,5.9483,5.9483,5.9483,5.9483,5.9483,5.9483,5.9483,5.9483,5.9483,5.9483,5.9483,5.9483,5.9483,5.9483,5.9483,5.9483,5.9483,5.9483,5.9483,5.9483,5.9483,5.9483,5.9483,5.9483,5.9483,5.9483,5.9483,5.9483,5.9483,5.9483,5.9483,5.9483,5.9483,5.9483,5.9483,5.9483,5.9483,5.9483,5.9483,5.9483,5.9483,5.9483,5.9483,5.9483,5.9483,5.9483,5.9483,5.9483,5.9483,5.9483,5.9483,5.9483,5.9483,5.9483,5.9483,5.9483,5.9483,5.9483,5.9483,5.9483,5.9483,5.9483,5.9483,5.9483,5.9483,5.9483,5.9483,5.9483,5.9483,5.9483,5.9483,5.9483,5.9483,5.9533,5.9885,6.001,6.006,6.0412,6.0557,6.0557,6.0557,6.0557,6.0607,6.0788,6.0864,6.0889,6.1135,6.121,6.111,6.0683,6.0557,6.0557,6.0557,6.0557,6.0557,6.0557,6.0557,6.0557,6.0557,6.0557,6.0557,6.0557,6.0557,6.0412,6.006,6.001,5.9885,5.9533,5.9483,5.9483,5.9483,5.9483,5.9483,5.9483,5.9483,5.9483,5.9483,5.9483,5.9483,5.9483,5.9483,5.9483,5.9483,5.9483,5.9483,5.9483,5.9483,5.9483,5.9483,5.9483,5.9483,5.9483,5.9483,5.9483,5.9483,5.9483,5.9483,5.9483,5.9483,5.9483,5.9483,5.9483,5.9483,5.9483,5.9483,5.9483,5.9483,5.9483,5.9483,5.9483,5.9483,5.9483,5.9483,5.9483,5.9483,5.9558,5.9734,5.9759,5.9809,6.001,6.0035,6.0035,6.0035,5.9859,5.9759,5.9759,5.9583,5.9483,5.9483,5.9483,5.9483,5.9483,5.9483,5.9483,5.9483,5.9483,5.9483,5.9483,5.9483,5.9483,5.9483,5.9483,5.9483,5.9483,5.9483,5.9583,5.9759,5.9759,5.9859,6.006,6.0437,6.0588,6.0638,6.1059,6.121,6.121,6.121,6.121,6.1235,6.1411,6.1567,6.1692,6.1692,6.1692,6.1692,6.1692,6.1692,6.1617,6.1285,6.121,6.121,6.121,6.121,6.121,6.121,6.121,6.121,6.121,6.121,6.104,6.0663,6.0588,6.0462,6.0105,6.0035,6.0035,6.0035,6.0035,6.0035,6.0035,6.0035,6.0035,6.0035,6.0035,6.0035,6.0035,6.0035,6.0035,6.0035,5.9834,5.9759,5.9759,5.9583,5.9483,5.9483,5.9483,5.9483,5.9483,5.9483,5.9483,5.9483,5.9483,5.9483,5.9483,5.9483,5.9483,5.9483,5.9483,5.9483,5.9483,5.9483,5.9483,5.9483,5.9483,5.9483,5.9508,5.9508,5.9508,5.9508,5.9508,5.9508,5.9709,6.0242,6.0317,6.0537,6.1135,6.121,6.121,6.121,6.0663,6.0317,6.0317,5.9809,5.9508,5.9508,5.9508,5.9483,5.9483,5.9483,5.9483,5.9483,5.9483,5.9483,5.9483,5.9483,5.9483,5.9508,5.9508,5.9508,5.9508,5.9508,5.9834,6.0317,6.0317,6.0663,6.121,6.121,6.121,6.121,6.121,6.121,6.121,6.121,6.121,6.1311,6.1843,6.2375,6.2802,6.2802,6.2802,6.2802,6.2802,6.2802,6.2551,6.1466,6.121,6.121,6.121,6.121,6.121,6.121,6.121,6.121,6.121,6.121,6.121,6.121,6.121,6.121,6.121,6.121,6.121,6.121,6.121,6.121,6.121,6.121,6.121,6.121,6.121,6.121,6.121,6.121,6.121,6.121,6.0613,6.0317,6.0317,5.9784,5.9483,5.9483,5.9483,5.9483,5.9483,5.9483,5.9483,5.9483,5.9483,5.9483,5.9483,5.9483,5.9483,5.9483,5.9483,5.9483,5.9483,5.9483,5.9483,5.9483,5.9483,5.9809,6.0041,6.0041,6.0412,6.0708,6.0708,6.0708,6.0738,6.0914,6.0914,6.0989,6.1185,6.121,6.121,6.121,6.1059,6.0914,6.0914,6.0783,6.0708,6.0708,5.9929,5.9483,5.9483,5.9483,5.9483,5.9483,5.9483,5.9483,5.9483,5.9483,5.9709,6.0041,6.0041,6.0286,6.0708,6.0708,6.0808,6.0914,6.0914,6.1059,6.1235,6.1617,6.1768,6.1818,6.2195,6.2325,6.2325,6.2325,6.2325,6.235,6.2501,6.2676,6.2802,6.2802,6.2802,6.2802,6.2802,6.2802,6.2727,6.24,6.2325,6.2325,6.2325,6.2325,6.2325,6.2325,6.2325,6.2325,6.2325,6.2325,6.2199,6.1818,6.1768,6.1617,6.126,6.121,6.121,6.121,6.121,6.121,6.121,6.121,6.121,6.121,6.121,6.121,6.121,6.121,6.121,6.121,6.1034,6.0914,6.0914,5.9985,5.9483,5.9483,5.9483,5.9483,5.9483,5.9483,5.9483,5.9483,5.9483,5.9483,5.9483,5.9483,5.9483,5.9483,5.9483,5.9483,5.9483,5.9483,5.9483,5.9483,6.0161,6.0437,6.0663,6.0663,6.0939,6.121,6.121,6.121,6.1285,6.1512,6.1517,6.1592,6.1818,6.1843,6.1843,6.1843,6.1642,6.1436,6.121,6.121,6.121,6.121,6.0557,6.0161,6.0161,6.0161,6.0161,6.0161,6.0161,6.0161,6.0161,6.0161,6.0337,6.0663,6.0663,6.0864,6.121,6.121,6.1336,6.1517,6.1517,6.1642,6.1868,6.2174,6.2325,6.235,6.2676,6.2802,6.2802,6.2802,6.2802,6.2802,6.2802,6.2802,6.2802,6.2802,6.2802,6.2802,6.2802,6.2802,6.2802,6.2802,6.2802,6.2802,6.2802,6.2802,6.2802,6.2802,6.2802,6.2802,6.2802,6.2802,6.2701,6.2375,6.2325,6.2199,6.1893,6.1843,6.1843,6.1843,6.1843,6.1843,6.1843,6.1843,6.1843,6.1843,6.1843,6.1843,6.1843,6.1843,6.1843,6.1843,6.1617,6.1517,6.1517,6.0613,6.0161,6.0161,6.0161,6.0035,5.9834,5.9834,5.9709,5.9483,5.9483,5.9483,5.9483,5.9483,5.9483,5.9483,5.9483,5.9483,5.9483,5.9483,5.9483,5.9483,6.121,6.1235,6.1285,6.1285,6.1311,6.1361,6.1361,6.1361,6.1517,6.2019,6.2069,6.225,6.2752,6.2802,6.2802,6.2802,6.235,6.1868,6.1366,6.1361,6.1361,6.1361,6.1361,6.1361,6.1361,6.126,6.121,6.121,6.121,6.121,6.121,6.121,6.1235,6.1285,6.1285,6.1311,6.1361,6.1361,6.1617,6.2069,6.2069,6.235,6.2802,6.2802,6.2802,6.2802,6.2802,6.2802,6.2802,6.2802,6.2802,6.2802,6.2802,6.2802,6.2802,6.2802,6.2802,6.2802,6.2802,6.2802,6.2802,6.2802,6.2802,6.2802,6.2802,6.2802,6.2802,6.2802,6.2802,6.2802,6.2802,6.2802,6.2802,6.2802,6.2802,6.2802,6.2802,6.2802,6.2802,6.2802,6.2802,6.2802,6.2802,6.2802,6.2802,6.2802,6.2802,6.2802,6.2802,6.2802,6.2802,6.2802,6.2325,6.2069,6.2069,6.1592,6.1311,6.121,6.121,6.0914,6.0367,6.0367,6.0085,5.9558,5.9558,5.9533,5.9483,5.9483,5.9483,5.9483,5.9483,5.9483,5.9483,5.9483,5.9483,5.9483,6.121,6.1562,6.1818,6.1818,6.2174,6.245,6.245,6.245,6.2501,6.2601,6.2626,6.2676,6.2802,6.2802,6.2802,6.2802,6.2701,6.2576,6.245,6.245,6.245,6.245,6.245,6.245,6.245,6.1617,6.121,6.121,6.121,6.121,6.121,6.121,6.1416,6.1818,6.1818,6.2069,6.245,6.245,6.2526,6.2626,6.2626,6.2701,6.2802,6.2802,6.2802,6.2802,6.2802,6.2802,6.2802,6.2802,6.2802,6.2802,6.2802,6.2802,6.2802,6.2802,6.2802,6.2802,6.2802,6.2802,6.2802,6.2802,6.2802,6.2802,6.2802,6.2802,6.2802,6.2802,6.2802,6.2802,6.2802,6.2802,6.2802,6.2802,6.2802,6.2802,6.2802,6.2802,6.2802,6.2802,6.2802,6.2802,6.2802,6.2802,6.2802,6.2802,6.2802,6.2802,6.2802,6.2802,6.2802,6.2802,6.2701,6.2626,6.2626,6.2501,6.2044,6.121,6.121,6.1135,6.0989,6.0989,6.0688,6.0116,6.0116,5.991,5.9483,5.9483,5.9483,5.9483,5.9483,5.9483,5.9483,5.9483,5.9483,5.9483,6.1969,6.2174,6.2375,6.2375,6.2626,6.2802,6.2802,6.2802,6.2802,6.2802,6.2802,6.2802,6.2802,6.2802,6.2802,6.2802,6.2802,6.2802,6.2802,6.2802,6.2802,6.2802,6.2802,6.2802,6.2802,6.225,6.1969,6.1969,6.1969,6.1969,6.1969,6.1969,6.2119,6.2375,6.2375,6.2526,6.2802,6.2802,6.2802,6.2802,6.2802,6.2802,6.2802,6.2802,6.2802,6.2802,6.2802,6.2802,6.2802,6.2802,6.2802,6.2802,6.2802,6.2802,6.2802,6.2802,6.2802,6.2802,6.2802,6.2802,6.2802,6.2802,6.2802,6.2802,6.2802,6.2802,6.2802,6.2802,6.2802,6.2802,6.2802,6.2802,6.2802,6.2802,6.2802,6.2802,6.2802,6.2802,6.2802,6.2802,6.2802,6.2802,6.2802,6.2802,6.2802,6.2802,6.2802,6.2802,6.2802,6.2802,6.2802,6.2802,6.2802,6.2802,6.2802,6.2802,6.2526,6.1969,6.1969,6.1843,6.1567,6.1567,6.1266,6.0738,6.0738,6.0412,5.9885,5.9885,5.9734,5.9483,5.9483,5.9483,5.9483,5.9483,5.9483,5.9483,6.2802,6.2802,6.2802,6.2802,6.2802,6.2802,6.2802,6.2802,6.2802,6.2802,6.2802,6.2802,6.2802,6.2802,6.2802,6.2802,6.2802,6.2802,6.2802,6.2802,6.2802,6.2802,6.2802,6.2802,6.2802,6.2802,6.2802,6.2802,6.2802,6.2802,6.2802,6.2802,6.2802,6.2802,6.2802,6.2802,6.2802,6.2802,6.2802,6.2802,6.2802,6.2802,6.2802,6.2802,6.2802,6.2802,6.2802,6.2802,6.2802,6.2802,6.2802,6.2802,6.2802,6.2802,6.2802,6.2802,6.2802,6.2802,6.2802,6.2802,6.2802,6.2802,6.2802,6.2802,6.2802,6.2802,6.2802,6.2802,6.2802,6.2802,6.2802,6.2802,6.2802,6.2802,6.2802,6.2802,6.2802,6.2802,6.2802,6.2802,6.2802,6.2802,6.2802,6.2802,6.2802,6.2802,6.2802,6.2802,6.2802,6.2802,6.2802,6.2802,6.2802,6.2802,6.2802,6.2802,6.2802,6.2802,6.2802,6.2576,6.2144,6.2144,6.1843,6.1336,6.1336,6.0989,6.0442,6.0442,6.0116,5.9633,5.9633,5.9583,5.9483,5.9483,5.9483,5.9483,6.2802,6.2802,6.2802,6.2802,6.2802,6.2802,6.2802,6.2802,6.2802,6.2802,6.2802,6.2802,6.2802,6.2802,6.2802,6.2802,6.2802,6.2802,6.2802,6.2802,6.2802,6.2802,6.2802,6.2802,6.2802,6.2802,6.2802,6.2802,6.2802,6.2802,6.2802,6.2802,6.2802,6.2802,6.2802,6.2802,6.2802,6.2802,6.2802,6.2802,6.2802,6.2802,6.2802,6.2802,6.2802,6.2802,6.2802,6.2802,6.2802,6.2802,6.2802,6.2802,6.2802,6.2802,6.2802,6.2802,6.2802,6.2802,6.2802,6.2802,6.2802,6.2802,6.2802,6.2802,6.2802,6.2802,6.2802,6.2802,6.2802,6.2802,6.2802,6.2802,6.2802,6.2802,6.2802,6.2802,6.2802,6.2802,6.2802,6.2802,6.2802,6.2802,6.2802,6.2802,6.2802,6.2802,6.2802,6.2802,6.2802,6.2802,6.2802,6.2802,6.2802,6.2802,6.2802,6.2802,6.2802,6.2802,6.2802,6.2777,6.2701,6.2701,6.24,6.1893,6.1893,6.1567,6.1085,6.1085,6.0738,6.0191,6.0191,5.991,5.9483,5.9483,5.9483,5.9483,6.2802,6.2802,6.2802,6.2802,6.2802,6.2802,6.2802,6.2802,6.2802,6.2802,6.2802,6.2802,6.2802,6.2802,6.2802,6.2802,6.2802,6.2802,6.2802,6.2802,6.2802,6.2802,6.2802,6.2802,6.2802,6.2802,6.2802,6.2802,6.2802,6.2802,6.2802,6.2802,6.2802,6.2802,6.2802,6.2802,6.2802,6.2802,6.2802,6.2802,6.2802,6.2802,6.2802,6.2802,6.2802,6.2802,6.2802,6.2802,6.2802,6.2802,6.2802,6.2802,6.2802,6.2802,6.2802,6.2802,6.2802,6.2802,6.2802,6.2802,6.2802,6.2802,6.2802,6.2802,6.2802,6.2802,6.2802,6.2802,6.2802,6.2802,6.2802,6.2802,6.2802,6.2802,6.2802,6.2802,6.2802,6.2802,6.2802,6.2802,6.2802,6.2802,6.2802,6.2802,6.2802,6.2802,6.2802,6.2802,6.2802,6.2802,6.2802,6.2802,6.2802,6.2802,6.2802,6.2802,6.2802,6.2802,6.2802,6.2802,6.2802,6.2802,6.2676,6.245,6.245,6.2124,6.1642,6.1642,6.1316,6.0788,6.0788,6.0462,5.996,5.996,5.9759,5.9483]}]]